Data from Weather Station test

Home
 
SELECT id, temp_in, temp_out, humid, atmos, rain, time FROM wx_data WHERE device_id = 3
 
ID
(int)
TEMP_IN
(int)
TEMP_OUT
(int)
HUMID
(int)
ATMOS
(int)
RAIN
(int)
TIME
(timestamp)
990  254  220  60  1015  2019-01-23 08:51:59 
991  261  222  57  1016  2019-01-20 18:37:54 
992  256  212  63  1016  2019-01-20 19:01:23 
993  251  202  64  1015  2019-01-20 20:01:23 
994  250  201  64  1015  2019-01-20 20:19:06 
995  246  191  64  1016  2019-01-20 21:01:23 
996  241  185  60  1015  2019-01-20 22:01:24 
997  236  172  60  1015  2019-01-23 08:47:58 
998  233  161  60  1014  2019-01-23 08:51:11 
999  228  156  60  1013  2019-01-23 08:51:26 
1000  225  146  57  1013  2019-01-23 08:51:44 
1001  222  140  56  1011  2019-01-21 03:01:23 
1002  221  140  56  1011  2019-01-23 08:59:11 
1003  215  126  56  1011  2019-01-21 05:01:25 
1004  211  120  56  1013  2019-01-21 06:01:23 
1005  211  140  57  1013  2019-01-21 07:01:24 
1006  216  179  61  1013  2019-01-23 08:50:14 
1007  226  250  63  1014  2019-01-23 08:50:38 
1008  236  276  64  1015  2019-01-21 11:01:25 
1009  241  295  62  1014  2019-01-21 12:01:22 
1010  242  302  53  1014  2019-01-21 13:01:24 
1011  248  296  52  1012  2019-01-21 14:01:26 
1012  255  312  52  1013  2019-01-21 15:01:23 
1013  252  268  51  1013  2019-01-21 16:01:24 
1014  257  273  51  1013  2019-01-21 17:01:26 
1015  258  265  50  1013  2019-01-21 18:01:24 
1016  258  245  51  1013  2019-01-21 19:01:25 
1017  252  228  53  1014  2019-01-21 20:01:22 
1018  250  221  55  1015  2019-01-21 21:01:24 
1019  247  216  57  1015  2019-01-21 22:01:25 
1020  246  216  60  1017  2019-01-21 23:01:23 
1021  246  216  61  1016  2019-01-22 00:01:24 
1022  244  211  63  1015  2019-01-22 01:01:25 
1023  244  211  62  1015  2019-01-22 02:01:23 
1024  244  205  62  1015  2019-01-22 03:01:24 
1025  241  186  63  1015  2019-01-22 04:01:25 
1026  238  181  62  1015  2019-01-22 05:01:23 
1027  239  185  62  1016  2019-01-22 06:01:24 
1028  237  191  62  1016  2019-01-22 07:01:26 
1029  236  196  61  1017  2019-01-23 09:02:39 
1030  241  211  61  1016  2019-01-23 09:03:18 
1031  241  229  61  1016  2019-01-23 09:04:02 
1032  242  216  60  1016  2019-01-22 10:01:23 
1033  251  249  57  1016  2019-01-22 11:01:25 
1034  254  256  57  1016  2019-01-22 12:01:26 
1035  261  251  55  1016  2019-01-22 13:01:23 
1036  266  276  53  1015  2019-01-22 14:01:25 
1037  274  272  52  1015  2019-01-22 15:01:22 
1038  280  273  46  1014  2019-01-22 16:01:24 
1039  281  264  44  1014  2019-01-22 17:01:25 
1040  271  236  42  1014  2019-01-22 18:01:22 
1041  266  211  45  1015  2019-01-22 19:01:24 
1042  259  196  46  1017  2019-01-22 20:01:25 
1043  259  191  50  1017  2019-01-22 21:01:23 
1044  255  186  51  1017  2019-01-22 22:01:24 
1045  251  181  51  1017  2019-01-22 23:01:26 
1046  247  181  54  1017  2019-01-23 00:01:23 
1047  244  181  54  1017  2019-01-23 01:01:25 
1048  241  167  54  1017  2019-01-23 02:01:22 
1049  236  161  54  1016  2019-01-23 03:01:24 
1050  236  160  55  1016  2019-01-23 04:01:26 
1051  231  161  56  1016  2019-01-23 05:01:23 
1052  228  168  57  1017  2019-01-23 06:01:24 
1053  230  171  60  1017  2019-01-23 07:01:25 
1054  231  186  63  1018  2019-01-23 08:01:22 
1055  234  203  61  1018  2019-01-23 09:01:24 
1056  241  221  56  1018  2019-01-23 10:01:26 
1057  244  212  56  1019  2019-01-23 11:01:24 
1058  251  251  55  1019  2019-01-23 12:01:25 
1059  256  212  55  1019  2019-01-23 13:01:23 
1060  259  239  53  1019  2019-01-23 14:01:25 
1061  260  216  52  1019  2019-01-23 15:01:26 
1062  265  236  51  1019  2019-01-23 16:01:23 
1063  266  211  50  1019  2019-01-23 17:01:25 
1064  261  200  50  1019  2019-01-23 18:01:22 
1065  261  191  50  1020  2019-01-23 19:01:24 
1066  256  182  50  1021  2019-01-23 20:01:25 
1067  253  181  50  1020  2019-01-23 21:01:22 
1068  251  181  50  1021  2019-01-23 22:01:24 
1069  245  176  51  1022  2019-01-23 23:01:25 
1070  241  176  52  1021  2019-01-24 00:01:23 
1071  236  175  53  1020  2019-01-24 01:01:24 
1072  235  174  53  1019  2019-01-24 02:01:26 
1073  231  171  53  1018  2019-01-24 03:01:23 
1074  229  171  54  1019  2019-01-24 04:01:24 
1075  226  171  55  1019  2019-01-24 05:01:26 
1076  225  176  56  1018  2019-01-24 06:01:23 
1077  225  181  56  1019  2019-01-24 07:01:25 
1078  223  187  56  1019  2019-01-24 08:01:26 
1079  226  206  56  1019  2019-01-24 09:01:23 
1080  231  221  55  1019  2019-01-24 10:01:25 
1081  236  227  56  1018  2019-01-24 11:01:22 
1082  241  227  57  1019  2019-01-24 12:01:24 
1083  245  226  56  1018  2019-01-24 13:01:25 
1084  251  226  55  1018  2019-01-24 14:01:23 
1085  256  226  54  1018  2019-01-24 15:01:24 
1086  259  229  53  1018  2019-01-24 16:01:26 
1087  260  211  53  1018  2019-01-24 17:01:23 
1088  254  201  53  1018  2019-01-24 18:01:24 
1089  253  191  54  1018  2019-01-24 19:01:26 
1090  251  181  53  1017  2019-01-24 20:01:24 
1091  246  177  53  1018  2019-01-24 21:01:25 
1092  241  176  53  1018  2019-01-24 22:01:23 
1093  236  176  54  1018  2019-01-24 23:01:24 
1094  233  172  54  1018  2019-01-25 00:01:26 
1095  229  171  54  1017  2019-01-25 01:01:23 
1096  228  171  55  1016  2019-01-25 02:01:25 
1097  226  171  55  1017  2019-01-25 03:01:26 
1098  224  166  56  1017  2019-01-25 04:01:24 
1099  222  169  56  1017  2019-01-25 05:01:25 
1100  221  167  56  1017  2019-01-25 06:01:26 
1101  221  176  57  1018  2019-01-25 07:01:23 
1102  221  186  57  1017  2019-01-25 08:01:25 
1103  226  206  56  1017  2019-01-25 09:01:26 
1104  229  221  56  1018  2019-01-25 10:01:23 
1105  237  235  57  1017  2019-01-25 11:01:25 
1106  242  226  57  1017  2019-01-25 12:01:26 
1107  246  232  60  1018  2019-01-25 13:01:23 
1108  251  221  60  1017  2019-01-25 14:01:25 
1109  256  226  57  1017  2019-01-25 15:01:22 
1110  261  223  56  1017  2019-01-25 16:01:23 
1111  263  212  56  1018  2019-01-25 17:01:25 
1112  261  206  57  1017  2019-01-25 18:01:26 
1113  260  195  61  1018  2019-01-25 19:01:23 
1114  256  187  63  1018  2019-01-25 20:01:25 
1115  249  186  64  1018  2019-01-25 21:01:22 
1116  246  186  65  1017  2019-01-25 22:01:24 
1117  241  181  65  1018  2019-01-25 23:01:22 
1118  238  181  64  1017  2019-01-26 00:01:24 
1119  236  180  64  1018  2019-01-26 01:01:26 
1120  233  179  64  1017  2019-01-26 02:01:23 
1121  232  176  64  1016  2019-01-26 03:01:25 
1122  231  178  64  1016  2019-01-26 04:01:26 
1123  226  187  63  1016  2019-01-26 05:01:23 
1124  226  188  62  1016  2019-01-26 06:01:24 
1125  224  185  63  1015  2019-01-26 07:01:26 
1126  231  208  64  1016  2019-01-26 08:01:23 
1127  233  231  63  1017  2019-01-26 09:01:24 
1128  236  256  62  1017  2019-01-26 10:01:26 
1129  245  285  57  1017  2019-01-26 11:01:23 
1130  245  305  53  1016  2019-01-26 12:01:25 
1131  256  301  51  1015  2019-01-26 13:01:23 
1132  253  289  60  1016  2019-01-26 14:01:24 
1133  246  272  61  1016  2019-01-26 15:01:26 
1134  248  268  60  1016  2019-01-26 16:01:23 
1135  251  261  57  1015  2019-01-26 17:01:25 
1136  253  251  60  1014  2019-01-26 18:01:24 
1137  253  244  60  1015  2019-01-26 19:01:25 
1138  253  232  60  1015  2019-01-26 20:01:23 
1139  252  222  60  1016  2019-01-26 21:01:24 
1140  251  211  60  1016  2019-01-26 22:01:26 
1141  251  206  61  1016  2019-01-26 23:01:24 
1142  250  198  62  1016  2019-01-27 00:01:25 
1143  247  197  62  1016  2019-01-27 01:01:26 
1144  246  195  62  1015  2019-01-27 02:01:24 
1145  246  191  62  1015  2019-01-27 03:01:25 
1146  246  191  63  1015  2019-01-27 04:01:23 
1147  241  191  63  1015  2019-01-27 05:01:24 
1148  241  186  64  1016  2019-01-27 06:01:26 
1149  238  195  64  1016  2019-01-27 07:01:23 
1150  239  205  67  1016  2019-01-27 08:01:25 
1151  240  225  66  1016  2019-01-27 09:01:22 
1152  241  241  65  1016  2019-01-27 10:01:24 
1153  243  251  64  1016  2019-01-27 11:01:25 
1154  242  249  65  1016  2019-01-27 12:01:23 
1155  246  251  65  1014  2019-01-27 13:01:24 
1156  246  253  64  1015  2019-01-27 14:01:26 
1157  247  246  64  1014  2019-01-27 15:01:24 
1158  249  238  64  1014  2019-01-27 16:01:25 
1159  252  224  64  1015  2019-01-27 17:01:23 
1160  252  216  64  1014  2019-01-27 18:01:24 
1161  252  206  65  1014  2019-01-27 19:01:26 
1162  251  200  64  1015  2019-01-27 20:01:23 
1163  242  199  65  1015  2019-01-27 21:01:25 
1164  247  211  64  1015  2019-01-27 22:01:26 
1165  246  221  63  1015  2019-01-27 23:01:24 
1166  246  221  62  1014  2019-01-28 00:01:25 
1167  245  225  62  1013  2019-01-28 01:01:23 
1168  242  214  62  1012  2019-01-28 02:01:24 
1169  246  214  62  1012  2019-01-28 03:01:26 
1170  241  212  62  1011  2019-01-28 04:01:23 
1171  241  216  62  1010  2019-01-28 05:01:25 
1172  240  210  61  1010  2019-01-28 06:01:22 
1173  241  206  62  1010  2019-01-28 07:01:24 
1174  241  232  62  1010  2019-01-28 08:01:25 
1175  246  256  62  1009  2019-01-28 09:01:23 
1176  243  286  60  1010  2019-01-28 10:01:24 
1177  248  317  56  1009  2019-01-28 11:01:26 
1178  248  335  54  1009  2019-01-28 12:01:24 
1179  252  320  56  1007  2019-01-28 13:01:25 
1180  256  316  56  1008  2019-01-28 13:07:20 
1181  253  300  55  1007  2019-01-28 14:01:24 
1182  257  291  54  1007  2019-01-28 15:01:25 
1183  261  286  53  1007  2019-01-28 16:01:23 
1184  281  285  52  1006  2019-01-28 17:01:24 
1185  279  269  54  1004  2019-01-28 18:01:26 
1186  269  262  56  1005  2019-01-28 19:01:23 
1187  268  254  56  1005  2019-01-28 20:01:25 
1188  266  241  57  1004  2019-01-28 21:01:22 
1189  264  235  60  1006  2019-01-28 22:01:24 
1190  261  223  57  1006  2019-01-28 23:01:25 
1191  264  217  57  1005  2019-01-29 00:01:22 
1192  260  210  60  1006  2019-01-29 01:01:24 
1193  261  200  61  1006  2019-01-29 02:01:25 
1194  256  187  61  1006  2019-01-29 03:01:23 
1195  256  184  61  1007  2019-01-29 04:01:24 
1196  251  187  60  1008  2019-01-29 05:01:25 
1197  251  181  60  1008  2019-01-29 06:01:23 
1198  251  186  61  1008  2019-01-29 07:01:24 
1199  242  201  63  1009  2019-01-29 08:01:25 
1200  246  228  62  1010  2019-01-29 09:01:23 
1201  249  258  61  1010  2019-01-29 10:01:24 
1202  251  276  61  1011  2019-01-29 11:01:26 
1203  256  286  61  1011  2019-01-29 12:01:23 
1204  258  302  55  1011  2019-01-29 13:01:24 
1205  261  315  56  1011  2019-01-29 14:01:26 
1206  261  320  55  1011  2019-01-29 15:01:24 
1207  281  329  54  1010  2019-01-29 16:01:26 
1208  275  297  54  1009  2019-01-29 17:01:24 
1209  277  281  55  1009  2019-01-29 18:01:25 
1210  281  256  56  1011  2019-01-29 19:01:23 
1211  275  227  61  1012  2019-01-29 20:01:24 
1212  266  221  61  1013  2019-01-29 21:01:26 
1213  258  216  62  1013  2019-01-29 22:01:23 
1214  261  208  61  1014  2019-01-29 23:01:24 
1215  263  211  62  1014  2019-01-30 00:01:26 
1216  261  211  62  1014  2019-01-30 01:01:23 
1217  261  206  62  1013  2019-01-30 02:01:25 
1218  258  201  62  1013  2019-01-30 03:01:26 
1219  256  191  62  1013  2019-01-30 04:01:24 
1220  251  196  62  1012  2019-01-30 05:01:25 
1221  251  186  62  1014  2019-01-30 06:01:22 
1222  251  196  63  1014  2019-01-30 07:01:24 
1223  241  206  66  1014  2019-01-30 08:01:25 
1224  246  216  70  1014  2019-01-30 09:01:23 
1225  254  256  65  1015  2019-01-30 10:01:24 
1226  262  278  70  1015  2019-01-30 11:01:25 
1227  266  281  70  1014  2019-01-30 12:01:23 
1228  270  276  67  1014  2019-01-30 13:01:24 
1229  274  281  65  1014  2019-01-30 14:01:26 
1230  281  269  63  1014  2019-01-30 15:01:23 
1231  281  266  62  1014  2019-01-30 16:01:25 
1232  281  253  63  1013  2019-01-30 17:01:22 
1233  264  226  65  1014  2019-01-30 19:01:26 
1234  260  219  70  1014  2019-01-30 20:01:23 
1235  264  211  70  1014  2019-01-30 21:01:25 
1236  259  211  67  1015  2019-01-30 22:01:22 
1237  261  204  67  1014  2019-01-30 23:01:24 
1238  256  201  66  1015  2019-01-31 00:01:26 
1239  256  199  66  1015  2019-01-31 01:01:23 
1240  251  196  66  1014  2019-01-31 02:01:25 
1241  251  192  66  1014  2019-01-31 03:01:26 
1242  247  191  66  1013  2019-01-31 04:01:23 
1243  246  189  67  1014  2019-01-31 05:01:24 
1244  246  187  67  1015  2019-01-31 06:01:26 
1245  246  191  67  1015  2019-01-31 07:01:23 
1246  246  206  71  1016  2019-01-31 08:01:25 
1247  241  216  71  1016  2019-01-31 09:01:22 
1248  246  241  70  1016  2019-01-31 10:01:24 
1249  256  256  67  1015  2019-01-31 11:01:26 
1250  251  252  65  1016  2019-01-31 12:01:23 
1251  253  248  64  1015  2019-01-31 13:01:24 
1252  252  256  64  1015  2019-01-31 14:01:26 
1253  255  250  63  1015  2019-01-31 15:01:23 
1254  255  241  61  1014  2019-01-31 16:01:25 
1255  256  240  62  1014  2019-01-31 17:01:27 
1256  261  231  62  1015  2019-01-31 18:01:24 
1257  260  216  62  1014  2019-01-31 19:01:26 
1258  259  209  64  1014  2019-01-31 20:01:23 
1259  252  206  64  1014  2019-01-31 21:01:25 
1260  255  203  64  1015  2019-01-31 22:01:26 
1261  251  206  64  1015  2019-01-31 23:01:24 
1262  250  216  63  1014  2019-02-01 00:01:25 
1263  249  210  63  1014  2019-02-01 01:01:26 
1264  247  212  62  1013  2019-02-01 02:01:23 
1265  247  208  62  1014  2019-02-01 03:01:25 
1266  246  201  63  1014  2019-02-01 04:01:23 
1267  244  201  64  1014  2019-02-01 05:01:24 
1268  241  196  64  1015  2019-02-01 06:01:25 
1269  246  206  64  1015  2019-02-01 07:01:23 
1270  246  216  65  1016  2019-02-01 08:01:24 
1271  246  256  63  1015  2019-02-01 10:01:23 
1272  246  271  63  1014  2019-02-01 11:01:24 
1273  250  286  62  1014  2019-02-01 12:01:26 
1274  251  295  62  1013  2019-02-01 13:01:23 
1275  253  291  61  1013  2019-02-01 14:01:25 
1276  257  266  60  1012  2019-02-01 15:01:26 
1277  258  266  57  1011  2019-02-01 16:01:24 
1278  261  267  56  1011  2019-02-01 17:01:25 
1279  261  251  55  1010  2019-02-01 18:01:23 
1280  261  236  56  1010  2019-02-01 19:01:24 
1281  261  231  57  1011  2019-02-01 20:01:26 
1282  263  222  57  1013  2019-02-01 21:01:23 
1283  264  219  60  1012  2019-02-01 22:01:24 
1284  261  221  60  1012  2019-02-01 23:01:26 
1285  261  213  61  1011  2019-02-02 00:01:24 
1286  260  212  62  1010  2019-02-02 02:01:26 
1287  256  211  63  1010  2019-02-02 03:01:23 
1288  256  211  63  1010  2019-02-02 04:01:25 
1289  256  207  63  1009  2019-02-02 05:01:26 
1290  256  206  64  1010  2019-02-02 06:01:23 
1291  256  204  64  1010  2019-02-02 07:01:24 
1292  255  206  65  1011  2019-02-02 08:01:26 
1293  253  222  65  1011  2019-02-02 09:01:23 
1294  251  241  66  1011  2019-02-02 10:01:24 
1295  256  276  65  1012  2019-02-02 11:01:26 
1296  262  266  63  1012  2019-02-02 13:01:25 
1297  259  242  62  1010  2019-02-02 14:01:23 
1298  258  242  62  1010  2019-02-02 15:01:26 
1299  261  248  62  1009  2019-02-02 16:01:25 
1300  261  218  63  1011  2019-02-02 17:01:23 
1301  261  223  64  1011  2019-02-02 18:01:26 
1302  261  221  64  1012  2019-02-02 18:11:55 
1303  261  213  65  1012  2019-02-02 19:01:23 
1304  261  201  65  1012  2019-02-02 20:01:25 
1305  257  201  65  1012  2019-02-02 21:01:27 
1306  256  203  65  1013  2019-02-02 22:01:24 
1307  254  206  65  1013  2019-02-02 23:01:26 
1308  256  201  65  1012  2019-02-03 00:01:23 
1309  253  206  65  1012  2019-02-03 01:01:24 
1310  251  198  66  1012  2019-02-03 02:01:26 
1311  251  191  66  1011  2019-02-03 03:01:23 
1312  251  196  66  1012  2019-02-03 04:01:25 
1313  249  197  67  1012  2019-02-03 05:01:27 
1314  246  196  67  1012  2019-02-03 06:01:24 
1315  248  201  70  1012  2019-02-03 07:01:26 
1316  248  211  70  1012  2019-02-03 08:01:23 
1317  246  211  72  1012  2019-02-03 09:01:25 
1318  246  208  72  1014  2019-02-03 10:01:26 
1319  246  226  71  1014  2019-02-03 11:01:24 
1320  246  216  71  1014  2019-02-03 12:01:26 
1321  246  217  70  1015  2019-02-03 13:01:23 
1322  246  241  67  1015  2019-02-03 14:01:25 
1323  246  260  66  1014  2019-02-03 15:01:26 
1324  247  246  65  1014  2019-02-03 16:01:24 
1325  246  247  64  1015  2019-02-03 17:01:25 
1326  249  231  64  1014  2019-02-03 18:01:23 
1327  253  221  64  1016  2019-02-03 19:01:24 
1328  255  216  64  1016  2019-02-03 20:01:26 
1329  251  201  64  1017  2019-02-03 21:01:23 
1330  251  201  64  1017  2019-02-03 22:01:25 
1331  248  196  64  1018  2019-02-03 23:01:27 
1332  246  191  64  1018  2019-02-04 00:01:25 
1333  246  186  65  1017  2019-02-04 01:01:26 
1334  244  176  65  1017  2019-02-04 02:01:24 
1335  241  171  65  1016  2019-02-04 03:01:25 
1336  238  166  65  1016  2019-02-04 04:01:27 
1337  236  171  66  1016  2019-02-04 05:01:24 
1338  236  176  66  1017  2019-02-04 06:01:26 
1339  236  177  67  1018  2019-02-04 07:01:23 
1340  236  196  71  1018  2019-02-04 08:01:24 
1341  236  219  71  1018  2019-02-04 09:01:26 
1342  239  231  67  1019  2019-02-04 10:01:25 
1343  236  249  67  1019  2019-02-04 11:01:23 
1344  238  258  66  1019  2019-02-04 12:01:25 
1345  238  260  65  1018  2019-02-04 13:01:23 
1346  241  260  63  1018  2019-02-04 14:01:25 
1347  246  256  62  1017  2019-02-04 15:01:24 
1348  246  251  61  1017  2019-02-04 16:01:26 
1349  249  237  61  1017  2019-02-04 17:01:24 
1350  251  228  60  1017  2019-02-04 18:01:26 
1351  251  216  60  1017  2019-02-04 19:01:25 
1352  252  206  61  1018  2019-02-04 20:01:23 
1353  251  201  62  1019  2019-02-04 21:01:26 
1354  252  196  62  1019  2019-02-04 22:01:24 
1355  248  195  62  1018  2019-02-04 23:01:26 
1356  248  191  63  1018  2019-02-05 00:01:24 
1357  246  197  63  1018  2019-02-05 01:01:26 
1358  245  196  64  1017  2019-02-05 02:01:23 
1359  241  191  64  1017  2019-02-05 03:01:25 
1360  241  190  64  1017  2019-02-05 04:01:26 
1361  242  189  64  1016  2019-02-05 05:01:24 
1362  241  186  65  1016  2019-02-05 06:01:25 
1363  239  191  65  1016  2019-02-05 07:01:27 
1364  240  201  66  1015  2019-02-05 08:01:24 
1365  240  211  70  1016  2019-02-05 09:01:26 
1366  239  226  67  1017  2019-02-05 10:01:24 
1367  241  242  65  1016  2019-02-05 11:01:25 
1368  241  250  64  1017  2019-02-05 12:01:23 
1369  241  251  64  1017  2019-02-05 13:01:24 
1370  243  256  64  1017  2019-02-05 14:01:26 
1371  246  257  63  1015  2019-02-05 15:01:23 
1372  247  255  63  1015  2019-02-05 16:01:25 
1373  251  236  63  1015  2019-02-05 17:01:27 
1374  251  230  63  1015  2019-02-05 18:01:24 
1375  251  216  64  1015  2019-02-05 19:01:26 
1376  258  211  65  1017  2019-02-05 20:01:23 
1377  256  204  66  1016  2019-02-05 21:01:25 
1378  260  197  67  1016  2019-02-05 22:01:27 
1379  253  196  66  1016  2019-02-05 23:01:24 
1380  250  196  66  1016  2019-02-06 00:01:25 
1381  246  195  66  1016  2019-02-06 01:01:27 
1382  246  196  66  1015  2019-02-06 02:01:24 
1383  246  191  66  1014  2019-02-06 03:01:26 
1384  241  193  65  1014  2019-02-06 04:01:24 
1385  240  186  65  1012  2019-02-06 05:01:25 
1386  237  186  66  1013  2019-02-06 06:01:27 
1387  236  191  66  1012  2019-02-06 07:01:24 
1388  237  196  67  1013  2019-02-06 08:01:25 
1389  239  216  70  1014  2019-02-06 09:01:23 
1390  240  226  67  1013  2019-02-06 10:01:25 
1391  240  239  65  1014  2019-02-06 11:01:26 
1392  241  252  66  1014  2019-02-06 12:01:24 
1393  241  241  66  1014  2019-02-06 13:01:25 
1394  244  245  65  1013  2019-02-06 14:01:27 
1395  246  240  64  1012  2019-02-06 16:01:26 
1396  249  227  63  1011  2019-02-06 17:01:23 
1397  251  220  63  1011  2019-02-06 18:01:25 
1398  251  206  63  1011  2019-02-06 19:01:26 
1399  250  196  65  1011  2019-02-06 20:01:24 
1400  247  196  63  1010  2019-02-06 21:01:25 
1401  246  201  63  1011  2019-02-06 22:01:27 
1402  246  191  64  1011  2019-02-06 23:01:24 
1403  246  206  64  1011  2019-02-07 00:01:26 
1404  246  215  65  1010  2019-02-07 01:01:23 
1405  245  208  65  1009  2019-02-07 02:01:25 
1406  241  213  65  1009  2019-02-07 03:01:26 
1407  241  208  65  1008  2019-02-07 04:01:24 
1408  241  196  65  1007  2019-02-07 05:01:25 
1409  241  181  65  1007  2019-02-07 06:01:26 
1410  241  186  67  1007  2019-02-07 07:01:24 
1411  241  211  67  1006  2019-02-07 08:01:25 
1412  241  241  67  1008  2019-02-07 09:01:27 
1413  241  267  66  1008  2019-02-07 10:01:24 
1414  241  281  65  1007  2019-02-07 11:01:27 
1415  245  289  64  1006  2019-02-07 12:01:24 
1416  246  303  63  1008  2019-02-07 13:01:25 
1417  251  312  62  1007  2019-02-07 14:01:27 
1418  253  313  56  1007  2019-02-07 15:01:24 
1419  257  317  55  1005  2019-02-07 16:01:26 
1420  261  313  54  1006  2019-02-07 17:01:24 
1421  263  312  54  1005  2019-02-07 18:01:26 
1422  266  276  53  1006  2019-02-07 19:01:23 
1423  271  247  54  1007  2019-02-07 20:01:25 
1424  268  236  55  1007  2019-02-07 21:01:27 
1425  266  207  60  1007  2019-02-07 22:01:24 
1426  264  201  60  1007  2019-02-07 23:01:26 
1427  264  196  60  1008  2019-02-08 00:01:24 
1428  263  186  60  1009  2019-02-08 01:01:26 
1429  261  182  61  1008  2019-02-08 02:01:23 
1430  261  186  61  1009  2019-02-08 03:01:25 
1431  259  176  61  1010  2019-02-08 04:01:27 
1432  256  187  62  1010  2019-02-08 05:01:24 
1433  256  191  62  1011  2019-02-08 06:01:25 
1434  256  194  63  1012  2019-02-08 07:01:27 
1435  254  205  64  1013  2019-02-08 08:01:24 
1436  251  216  65  1013  2019-02-08 09:01:26 
1437  248  227  64  1014  2019-02-08 10:01:27 
1438  251  246  63  1015  2019-02-08 11:01:24 
1439  251  266  62  1013  2019-02-08 12:01:26 
1440  251  284  61  1014  2019-02-08 13:01:27 
1441  256  281  61  1014  2019-02-08 14:01:25 
1442  268  267  60  1014  2019-02-08 15:01:26 
1443  266  271  57  1013  2019-02-08 16:01:24 
1444  264  251  56  1011  2019-02-08 17:01:25 
1445  261  237  56  1013  2019-02-08 18:01:27 
1446  266  220  57  1014  2019-02-08 19:01:25 
1447  261  211  57  1014  2019-02-08 20:01:26 
1448  256  206  60  1013  2019-02-08 21:01:27 
1449  256  201  62  1013  2019-02-08 22:01:25 
1450  260  200  62  1014  2019-02-08 23:01:26 
1451  256  192  62  1014  2019-02-09 00:01:24 
1452  255  191  62  1014  2019-02-09 01:01:25 
1453  251  187  62  1012  2019-02-09 02:01:26 
1454  251  190  62  1013  2019-02-09 03:01:24 
1455  246  187  63  1012  2019-02-09 04:01:25 
1456  246  186  63  1012  2019-02-09 05:01:27 
1457  246  184  64  1011  2019-02-09 06:01:24 
1458  245  186  65  1011  2019-02-09 07:01:26 
1459  244  200  66  1011  2019-02-09 08:01:23 
1460  242  211  70  1012  2019-02-09 09:01:25 
1461  241  221  70  1012  2019-02-09 10:01:27 
1462  243  237  67  1013  2019-02-09 11:01:24 
1463  246  242  67  1012  2019-02-09 12:01:26 
1464  246  250  66  1013  2019-02-09 13:01:27 
1465  246  252  65  1012  2019-02-09 14:01:25 
1466  251  241  65  1012  2019-02-09 15:01:26 
1467  247  240  63  1011  2019-02-09 16:01:24 
1468  251  238  64  1011  2019-02-09 17:01:25 
1469  251  216  64  1012  2019-02-09 18:01:27 
1470  253  203  63  1011  2019-02-09 19:01:24 
1471  256  201  64  1011  2019-02-09 20:01:26 
1472  251  201  64  1011  2019-02-09 21:01:27 
1473  251  196  65  1011  2019-02-09 22:01:25 
1474  251  196  65  1011  2019-02-09 23:01:26 
1475  249  196  64  1011  2019-02-10 00:01:23 
1476  247  201  65  1013  2019-02-10 01:01:25 
1477  246  204  65  1012  2019-02-10 02:01:27 
1478  248  202  65  1012  2019-02-10 03:01:24 
1479  246  196  66  1012  2019-02-10 04:01:26 
1480  241  191  67  1012  2019-02-10 05:01:27 
1481  242  186  67  1012  2019-02-10 06:01:25 
1482  242  196  70  1012  2019-02-10 07:01:26 
1483  241  194  71  1013  2019-02-10 08:01:24 
1484  240  196  72  1013  2019-02-10 09:01:25 
1485  241  207  72  1013  2019-02-10 10:01:27 
1486  241  221  67  1014  2019-02-10 11:01:24 
1487  241  230  65  1015  2019-02-10 12:01:26 
1488  251  218  65  1014  2019-02-10 13:01:27 
1489  249  226  64  1014  2019-02-10 14:01:25 
1490  246  217  64  1013  2019-02-10 15:01:26 
1491  243  211  63  1014  2019-02-10 16:01:27 
1492  241  201  63  1014  2019-02-10 17:01:25 
1493  241  194  63  1013  2019-02-10 18:01:26 
1494  241  188  64  1013  2019-02-10 19:01:24 
1495  241  186  64  1013  2019-02-10 20:01:25 
1496  240  176  64  1014  2019-02-10 21:01:27 
1497  240  180  64  1014  2019-02-10 22:01:25 
1498  236  176  64  1014  2019-02-10 23:01:25 
1499  236  176  64  1014  2019-02-11 00:01:27 
1500  233  176  65  1014  2019-02-11 01:01:24 
1501  231  179  65  1013  2019-02-11 02:01:26 
1502  230  176  65  1013  2019-02-11 03:01:23 
1503  230  176  66  1012  2019-02-11 04:01:25 
1504  226  176  67  1012  2019-02-11 05:01:26 
1505  228  171  70  1012  2019-02-11 06:01:24 
1506  226  176  71  1013  2019-02-11 07:01:25 
1507  222  189  73  1013  2019-02-11 08:01:27 
1508  226  206  73  1013  2019-02-11 09:01:24 
1509  226  225  71  1013  2019-02-11 10:01:26 
1510  226  236  71  1014  2019-02-11 11:01:27 
1511  229  246  70  1013  2019-02-11 12:01:25 
1512  231  247  67  1013  2019-02-11 13:01:26 
1513  231  245  65  1012  2019-02-11 14:01:24 
1514  235  241  65  1012  2019-02-11 15:01:25 
1515  238  231  64  1012  2019-02-11 16:01:27 
1516  241  200  64  1012  2019-02-11 19:01:26 
1517  241  191  65  1013  2019-02-11 20:01:27 
1518  241  189  67  1012  2019-02-11 21:01:25 
1519  240  186  67  1012  2019-02-11 22:01:26 
1520  236  184  67  1012  2019-02-11 23:01:24 
1521  236  181  67  1011  2019-02-12 00:01:25 
1522  236  181  70  1012  2019-02-12 01:01:27 
1523  236  176  70  1011  2019-02-12 02:01:24 
1524  234  176  71  1011  2019-02-12 03:01:26 
1525  231  176  71  1011  2019-02-12 04:01:27 
1526  231  176  71  1011  2019-02-12 05:01:25 
1527  230  179  72  1011  2019-02-12 06:01:26 
1528  228  179  72  1010  2019-02-12 07:01:25 
1529  226  186  72  1011  2019-02-12 08:01:26 
1530  227  236  72  1011  2019-02-12 11:01:27 
1531  231  242  72  1012  2019-02-12 12:01:24 
1532  231  247  70  1012  2019-02-12 13:01:26 
1533  232  246  66  1012  2019-02-12 14:01:24 
1534  236  241  65  1012  2019-02-12 15:01:25 
1535  236  241  63  1012  2019-02-12 16:01:27 
1536  241  201  63  1012  2019-02-12 19:01:26 
1537  241  189  64  1013  2019-02-12 20:01:27 
1538  238  193  64  1013  2019-02-12 21:01:25 
1539  236  188  64  1014  2019-02-12 22:01:26 
1540  236  186  65  1015  2019-02-12 23:01:24 
1541  236  186  65  1013  2019-02-13 00:01:25 
1542  231  186  66  1016  2019-02-13 01:01:27 
1543  231  184  67  1015  2019-02-13 02:01:24 
1544  231  176  67  1015  2019-02-13 03:01:26 
1545  230  176  70  1014  2019-02-13 04:01:28 
1546  229  176  70  1015  2019-02-13 05:01:25 
1547  226  176  70  1016  2019-02-13 06:01:26 
1548  225  181  70  1016  2019-02-13 07:01:24 
1549  226  189  70  1017  2019-02-13 08:01:25 
1550  226  219  70  1017  2019-02-13 10:01:25 
1551  227  234  67  1017  2019-02-13 11:01:27 
1552  231  241  65  1016  2019-02-13 12:01:24 
1553  231  241  65  1016  2019-02-13 13:01:26 
1554  241  241  66  1016  2019-02-13 14:01:27 
1555  245  216  67  1016  2019-02-13 18:01:27 
1556  246  199  67  1016  2019-02-13 19:01:25 
1557  251  191  67  1015  2019-02-13 20:01:26 
1558  244  186  67  1016  2019-02-13 21:01:24 
1559  245  186  66  1016  2019-02-13 22:01:25 
1560  239  181  67  1016  2019-02-13 23:01:28 
1561  236  181  67  1017  2019-02-14 00:01:25 
1562  236  181  67  1016  2019-02-14 01:01:26 
1563  232  181  67  1016  2019-02-14 02:01:24 
1564  231  176  67  1016  2019-02-14 03:01:25 
1565  227  173  67  1015  2019-02-14 04:01:27 
1566  227  180  66  1013  2019-02-14 05:01:24 
1567  226  186  66  1014  2019-02-14 06:01:25 
1568  226  191  66  1014  2019-02-14 07:01:27 
1569  226  202  64  1014  2019-02-14 08:01:24 
1570  226  237  63  1013  2019-02-14 09:01:26 
1571  228  256  60  1013  2019-02-14 10:01:27 
1572  230  276  56  1013  2019-02-14 11:01:24 
1573  235  301  56  1013  2019-02-14 12:01:26 
1574  239  317  54  1013  2019-02-14 13:01:25 
1575  241  309  56  1011  2019-02-14 14:01:27 
1576  241  295  53  1010  2019-02-14 15:01:25 
1577  247  297  54  1010  2019-02-14 16:01:24 
1578  250  281  52  1010  2019-02-14 17:01:26 
1579  251  275  53  1009  2019-02-14 18:01:24 
1580  254  256  54  1010  2019-02-14 19:01:27 
1581  261  241  55  1010  2019-02-14 20:01:25 
1582  261  227  55  1010  2019-02-14 21:01:27 
1583  258  221  56  1009  2019-02-14 22:01:26 
1584  253  211  57  1010  2019-02-14 23:01:28 
1585  253  201  57  1008  2019-02-15 00:01:26 
1586  251  196  57  1010  2019-02-15 01:01:27 
1587  251  191  60  1008  2019-02-15 02:01:25 
1588  248  182  60  1008  2019-02-15 03:01:26 
1589  246  180  60  1008  2019-02-15 04:01:27 
1590  243  173  60  1008  2019-02-15 05:01:25 
1591  241  171  61  1008  2019-02-15 06:01:26 
1592  241  178  62  1010  2019-02-15 07:01:27 
1593  241  196  62  1011  2019-02-15 08:01:25 
1594  241  222  64  1011  2019-02-15 09:01:26 
1595  241  242  62  1010  2019-02-15 10:01:24 
1596  246  271  61  1012  2019-02-15 11:01:25 
1597  246  280  60  1012  2019-02-15 12:01:27 
1598  250  289  60  1013  2019-02-15 13:01:24 
1599  254  306  57  1011  2019-02-15 14:01:26 
1600  256  286  55  1011  2019-02-15 15:01:28 
1601  259  277  54  1011  2019-02-15 16:01:26 
1602  257  253  56  1011  2019-02-15 17:01:28 
1603  259  246  57  1011  2019-02-15 18:01:25 
1604  259  231  62  1011  2019-02-15 19:01:27 
1605  260  221  62  1012  2019-02-15 20:01:26 
1606  260  218  62  1011  2019-02-15 21:01:27 
1607  260  211  63  1013  2019-02-15 22:01:25 
1608  257  204  64  1013  2019-02-15 23:01:27 
1609  258  199  63  1013  2019-02-16 00:01:25 
1610  256  193  63  1013  2019-02-16 01:01:26 
1611  252  191  63  1013  2019-02-16 02:01:28 
1612  251  184  62  1012  2019-02-16 03:01:25 
1613  251  183  63  1013  2019-02-16 04:01:27 
1614  251  187  63  1014  2019-02-16 05:01:24 
1615  248  186  63  1014  2019-02-16 06:01:26 
1616  246  189  64  1014  2019-02-16 07:01:27 
1617  246  196  65  1016  2019-02-16 08:01:24 
1618  246  206  66  1016  2019-02-16 09:01:27 
1619  246  241  66  1016  2019-02-16 10:01:24 
1620  247  249  65  1016  2019-02-16 12:01:27 
1621  247  259  65  1016  2019-02-16 13:01:25 
1622  249  251  64  1016  2019-02-16 14:01:26 
1623  252  260  62  1016  2019-02-16 16:01:25 
1624  255  241  63  1016  2019-02-16 17:01:28 
1625  252  231  61  1016  2019-02-16 18:01:25 
1626  254  213  61  1016  2019-02-16 19:01:26 
1627  251  201  62  1018  2019-02-16 20:01:28 
1628  250  201  62  1017  2019-02-16 21:01:25 
1629  251  196  63  1019  2019-02-16 22:01:27 
1630  251  196  62  1018  2019-02-16 23:01:24 
1631  246  195  62  1018  2019-02-17 00:01:26 
1632  246  191  63  1018  2019-02-17 01:01:27 
1633  244  191  63  1016  2019-02-17 02:01:24 
1634  241  187  63  1017  2019-02-17 03:01:25 
1635  241  186  64  1016  2019-02-17 04:01:27 
1636  236  183  64  1016  2019-02-17 05:01:24 
1637  236  181  64  1016  2019-02-17 06:01:26 
1638  236  181  65  1017  2019-02-17 07:01:27 
1639  236  193  65  1018  2019-02-17 08:01:25 
1640  236  211  65  1017  2019-02-17 09:01:26 
1641  236  231  65  1017  2019-02-17 10:01:28 
1642  239  241  64  1018  2019-02-17 11:01:25 
1643  239  252  64  1017  2019-02-17 12:01:27 
1644  241  259  62  1017  2019-02-17 13:01:28 
1645  244  250  63  1017  2019-02-17 14:01:25 
1646  243  254  64  1016  2019-02-17 15:01:27 
1647  248  249  64  1015  2019-02-17 16:01:25 
1648  246  241  63  1015  2019-02-17 17:01:26 
1649  247  227  63  1015  2019-02-17 18:01:28 
1650  246  212  65  1015  2019-02-17 19:01:26 
1651  246  213  64  1014  2019-02-17 20:01:28 
1652  246  212  64  1016  2019-02-17 21:01:25 
1653  246  211  64  1015  2019-02-17 22:01:27 
1654  246  197  64  1015  2019-02-17 23:01:28 
1655  246  199  64  1015  2019-02-18 00:01:25 
1656  246  192  64  1015  2019-02-18 01:01:27 
1657  241  191  64  1014  2019-02-18 02:01:28 
1658  241  193  64  1014  2019-02-18 03:01:25 
1659  241  181  64  1014  2019-02-18 04:01:27 
1660  238  170  64  1013  2019-02-18 05:01:24 
1661  236  166  64  1014  2019-02-18 06:01:26 
1662  234  171  65  1014  2019-02-18 07:01:27 
1663  233  195  65  1014  2019-02-18 08:01:25 
1664  236  231  65  1014  2019-02-18 09:01:26 
1665  236  241  64  1015  2019-02-18 10:01:29 
1666  236  260  64  1014  2019-02-18 11:01:26 
1667  241  265  63  1015  2019-02-18 12:01:27 
1668  241  266  63  1014  2019-02-18 13:01:26 
1669  245  251  63  1014  2019-02-18 14:01:28 
1670  246  261  62  1014  2019-02-18 15:01:25 
1671  246  246  62  1014  2019-02-18 16:01:27 
1672  250  231  63  1013  2019-02-18 17:01:25 
1673  246  221  63  1013  2019-02-18 18:01:26 
1674  249  200  63  1013  2019-02-18 19:01:28 
1675  250  194  63  1013  2019-02-18 20:01:25 
1676  246  191  63  1013  2019-02-18 21:01:27 
1677  244  190  63  1014  2019-02-18 22:01:28 
1678  244  186  63  1014  2019-02-18 23:01:26 
1679  241  186  63  1013  2019-02-19 00:01:27 
1680  241  181  64  1012  2019-02-19 01:01:28 
1681  239  181  64  1012  2019-02-19 02:01:26 
1682  237  173  64  1011  2019-02-19 03:01:27 
1683  236  185  65  1010  2019-02-19 04:01:25 
1684  235  186  65  1010  2019-02-19 05:01:26 
1685  233  181  65  1010  2019-02-19 06:01:28 
1686  234  187  66  1010  2019-02-19 07:01:25 
1687  233  196  67  1010  2019-02-19 08:01:26 
1688  235  231  67  1010  2019-02-19 09:01:28 
1689  236  256  66  1009  2019-02-19 10:01:26 
1690  236  276  65  1010  2019-02-19 11:01:27 
1691  239  273  65  1010  2019-02-19 12:01:24 
1692  241  293  64  1008  2019-02-19 13:01:26 
1693  242  295  64  1008  2019-02-19 14:01:28 
1694  246  286  63  1007  2019-02-19 15:01:25 
1695  247  271  61  1009  2019-02-19 16:01:27 
1696  251  256  62  1008  2019-02-19 17:01:28 
1697  253  239  62  1007  2019-02-19 18:01:26 
1698  251  211  65  1009  2019-02-19 19:01:27 
1699  249  212  67  1009  2019-02-19 20:01:25 
1700  251  211  67  1009  2019-02-19 21:01:26 
1701  253  211  67  1011  2019-02-19 22:01:28 
1702  256  211  67  1010  2019-02-19 23:01:25 
1703  254  211  70  1010  2019-02-20 00:01:27 
1704  253  211  70  1010  2019-02-20 01:01:24 
1705  251  207  71  1011  2019-02-20 02:01:26 
1706  249  207  71  1010  2019-02-20 03:01:27 
1707  250  213  72  1011  2019-02-20 04:01:25 
1708  249  211  72  1011  2019-02-20 05:01:26 
1709  248  207  73  1012  2019-02-20 06:01:28 
1710  246  206  74  1012  2019-02-20 07:01:25 
1711  245  226  74  1013  2019-02-20 08:01:27 
1712  244  235  75  1014  2019-02-20 09:01:25 
1713  246  246  73  1015  2019-02-20 10:01:26 
1714  246  261  72  1015  2019-02-20 11:01:28 
1715  249  270  67  1015  2019-02-20 12:01:25 
1716  251  272  65  1014  2019-02-20 13:01:27 
1717  251  276  65  1016  2019-02-20 14:01:28 
1718  271  281  63  1015  2019-02-20 15:01:26 
1719  268  262  64  1015  2019-02-20 16:01:27 
1720  262  246  66  1016  2019-02-20 17:01:25 
1721  259  236  71  1016  2019-02-20 18:01:27 
1722  256  221  72  1016  2019-02-20 19:01:28 
1723  246  210  72  1018  2019-02-20 20:01:25 
1724  238  201  67  1018  2019-02-20 21:01:27 
1725  246  205  65  1019  2019-02-20 22:01:28 
1726  247  203  65  1018  2019-02-20 23:01:25 
1727  247  201  65  1018  2019-02-21 00:01:27 
1728  246  200  66  1018  2019-02-21 01:01:28 
1729  246  191  66  1018  2019-02-21 02:01:26 
1730  246  190  66  1019  2019-02-21 03:01:27 
1731  242  186  66  1018  2019-02-21 04:01:29 
1732  241  183  65  1018  2019-02-21 05:01:26 
1733  241  177  66  1018  2019-02-21 06:01:28 
1734  236  176  66  1018  2019-02-21 07:01:25 
1735  239  186  66  1019  2019-02-21 08:01:27 
1736  240  200  66  1020  2019-02-21 09:01:28 
1737  241  211  65  1019  2019-02-21 10:01:26 
1738  240  218  64  1019  2019-02-21 11:01:27 
1739  241  231  64  1019  2019-02-21 12:01:25 
1740  241  229  63  1019  2019-02-21 13:01:26 
1741  241  232  62  1018  2019-02-21 14:01:28 
1742  243  232  62  1018  2019-02-21 15:01:25 
1743  246  233  62  1016  2019-02-21 16:01:27 
1744  246  221  62  1016  2019-02-21 17:01:28 
1745  246  215  62  1016  2019-02-21 18:01:26 
1746  246  199  63  1016  2019-02-21 19:01:27 
1747  246  193  63  1016  2019-02-21 20:01:24 
1748  248  188  64  1015  2019-02-21 21:01:26 
1749  246  191  64  1015  2019-02-21 22:01:27 
1750  246  187  64  1015  2019-02-21 23:01:25 
1751  243  192  64  1015  2019-02-22 00:01:27 
1752  242  208  64  1014  2019-02-22 01:01:28 
1753  241  196  65  1014  2019-02-22 02:01:26 
1754  240  186  65  1013  2019-02-22 03:01:27 
1755  236  181  65  1013  2019-02-22 04:01:26 
1756  236  176  65  1012  2019-02-22 05:01:27 
1757  232  176  65  1012  2019-02-22 06:01:29 
1758  232  171  67  1012  2019-02-22 07:01:26 
1759  231  193  70  1011  2019-02-22 08:01:27 
1760  233  230  70  1013  2019-02-22 09:01:25 
1761  236  251  67  1012  2019-02-22 10:01:27 
1762  236  276  67  1011  2019-02-22 11:01:28 
1763  241  277  66  1012  2019-02-22 12:01:26 
1764  241  262  65  1013  2019-02-22 13:01:27 
1765  259  277  63  1011  2019-02-22 14:01:25 
1766  261  268  62  1011  2019-02-22 15:01:26 
1767  257  278  62  1010  2019-02-22 16:01:28 
1768  262  266  62  1011  2019-02-22 17:01:25 
1769  262  246  63  1010  2019-02-22 18:01:27 
1770  256  231  64  1011  2019-02-22 19:01:28 
1771  246  211  66  1011  2019-02-22 20:01:26 
1772  240  206  73  1012  2019-02-22 21:01:27 
1773  237  201  76  1012  2019-02-22 22:01:25 
1774  236  201  100  1013  2019-02-22 23:01:26 
1775  236  202  101  1013  2019-02-23 00:01:28 
1776  235  196  101  1014  2019-02-23 01:01:25 
1777  226  191  101  1013  2019-02-23 02:01:27 
1778  229  194  102  1012  2019-02-23 03:01:25 
1779  231  193  100  1012  2019-02-23 04:01:26 
1780  221  175  75  1011  2019-02-23 05:01:28 
1781  221  172  74  1012  2019-02-23 06:01:25 
1782  218  177  75  1012  2019-02-23 07:01:26 
1783  221  187  76  1014  2019-02-23 08:01:28 
1784  224  196  100  1015  2019-02-23 09:01:25 
1785  241  258  76  1014  2019-02-23 11:01:28 
1786  251  271  72  1014  2019-02-23 12:01:25 
1787  261  271  70  1014  2019-02-23 13:01:27 
1788  265  283  70  1013  2019-02-23 14:01:28 
1789  261  266  70  1013  2019-02-23 15:01:26 
1790  261  268  72  1013  2019-02-23 16:01:27 
1791  261  262  74  1013  2019-02-23 17:01:28 
1792  256  246  75  1013  2019-02-23 18:01:25 
1793  248  231  100  1012  2019-02-23 19:01:27 
1794  248  230  77  1014  2019-02-23 20:01:28 
1795  250  226  76  1014  2019-02-23 21:01:26 
1796  249  216  75  1015  2019-02-23 22:01:27 
1797  247  215  74  1014  2019-02-23 23:01:25 
1798  249  211  73  1014  2019-02-24 00:01:26 
1799  246  211  73  1014  2019-02-24 01:01:28 
1800  245  208  72  1014  2019-02-24 02:01:25 
1801  243  206  72  1013  2019-02-24 03:01:26 
1802  241  201  72  1014  2019-02-24 04:01:28 
1803  241  199  72  1014  2019-02-24 05:01:25 
1804  241  199  72  1014  2019-02-24 06:01:27 
1805  241  201  72  1014  2019-02-24 07:01:28 
1806  241  206  73  1014  2019-02-24 08:01:25 
1807  241  212  73  1014  2019-02-24 09:01:27 
1808  242  236  72  1015  2019-02-24 10:01:28 
1809  241  251  71  1016  2019-02-24 11:01:26 
1810  246  265  70  1015  2019-02-24 12:01:27 
1811  246  261  66  1014  2019-02-24 13:01:29 
1812  247  266  65  1014  2019-02-24 14:01:26 
1813  256  270  55  1014  2019-02-24 15:01:28 
1814  252  276  55  1012  2019-02-24 16:01:25 
1815  255  266  60  1013  2019-02-24 17:01:26 
1816  253  251  62  1013  2019-02-24 18:01:28 
1817  251  236  64  1013  2019-02-24 19:01:25 
1818  246  217  66  1014  2019-02-24 20:01:27 
1819  246  216  67  1014  2019-02-24 21:01:28 
1820  246  211  70  1015  2019-02-24 22:01:26 
1821  246  211  67  1015  2019-02-24 23:01:27 
1822  241  201  70  1014  2019-02-25 00:01:28 
1823  241  201  70  1014  2019-02-25 01:01:26 
1824  236  196  67  1013  2019-02-25 02:01:27 
1825  231  189  66  1013  2019-02-25 03:01:29 
1826  231  193  66  1012  2019-02-25 04:01:26 
1827  231  195  70  1012  2019-02-25 05:01:28 
1828  228  191  72  1012  2019-02-25 06:01:25 
1829  228  191  72  1012  2019-02-25 07:01:27 
1830  231  201  73  1012  2019-02-25 08:01:28 
1831  233  211  74  1012  2019-02-25 09:01:25 
1832  236  236  73  1011  2019-02-25 10:01:28 
1833  238  256  71  1011  2019-02-25 11:01:25 
1834  241  275  67  1011  2019-02-25 12:01:27 
1835  246  285  65  1009  2019-02-25 13:01:28 
1836  257  295  62  1009  2019-02-25 14:01:26 
1837  259  289  61  1010  2019-02-25 14:28:46 
1838  263  303  53  1010  2019-02-25 15:01:28 
1839  261  299  56  1009  2019-02-25 16:01:26 
1840  268  294  52  1009  2019-02-25 17:01:29 
1841  261  267  56  1009  2019-02-25 18:01:27 
1842  257  253  57  1009  2019-02-25 19:01:29 
1843  256  241  63  1011  2019-02-25 20:01:27 
1844  256  234  63  1010  2019-02-25 21:01:25 
1845  256  231  64  1010  2019-02-25 22:01:28 
1846  256  227  64  1010  2019-02-25 23:01:26 
1847  252  226  64  1010  2019-02-26 00:01:28 
1848  251  221  66  1011  2019-02-26 01:01:25 
1849  251  216  67  1011  2019-02-26 02:01:27 
1850  251  215  70  1011  2019-02-26 03:01:29 
1851  251  215  70  1010  2019-02-26 04:01:27 
1852  251  213  70  1010  2019-02-26 05:01:25 
1853  247  210  71  1011  2019-02-26 06:01:28 
1854  247  211  72  1011  2019-02-26 07:01:26 
1855  243  209  72  1012  2019-02-26 08:29:09 
1856  245  211  72  1012  2019-02-26 08:32:40 
1857  246  224  70  1012  2019-02-26 09:01:26 
1858  241  206  67  1014  2019-02-26 10:01:29 
1859  234  201  66  1014  2019-02-26 11:01:27 
1860  234  206  62  1014  2019-02-26 12:01:29 
1861  233  209  60  1014  2019-02-26 13:01:27 
1862  236  221  57  1014  2019-02-26 14:01:29 
1863  241  236  52  1014  2019-02-26 16:01:26 
1864  240  227  53  1014  2019-02-26 17:01:29 
1865  231  196  55  1015  2019-02-26 19:01:30 
1866  233  191  56  1015  2019-02-26 20:01:28 
1867  239  186  57  1015  2019-02-26 21:01:26 
1868  238  179  60  1016  2019-02-26 22:01:27 
1869  236  172  60  1017  2019-02-26 23:01:26 
1870  235  166  60  1016  2019-02-27 00:01:28 
1871  231  156  60  1016  2019-02-27 01:01:29 
1872  227  151  61  1015  2019-02-27 02:01:26 
1873  225  151  61  1016  2019-02-27 03:01:28 
1874  221  142  61  1015  2019-02-27 04:01:29 
1875  221  145  62  1016  2019-02-27 05:01:26 
1876  216  145  62  1016  2019-02-27 06:01:28 
1877  216  140  63  1017  2019-02-27 07:01:29 
1878  216  156  64  1017  2019-02-27 08:01:26 
1879  221  211  60  1018  2019-02-27 12:01:29 
1880  221  226  57  1017  2019-02-27 13:01:26 
1881  226  241  52  1016  2019-02-27 14:01:28 
1882  226  246  51  1016  2019-02-27 15:01:29 
1883  230  251  52  1016  2019-02-27 16:01:27 
1884  231  242  53  1016  2019-02-27 17:01:30 
1885  231  226  53  1016  2019-02-27 18:01:27 
1886  231  211  54  1016  2019-02-27 19:01:29 
1887  233  206  56  1016  2019-02-27 20:01:27 
1888  235  201  57  1017  2019-02-27 21:01:28 
1889  233  201  57  1018  2019-02-27 22:01:25 
1890  232  196  60  1018  2019-02-27 23:01:27 
1891  233  196  60  1017  2019-02-28 00:01:28 
1892  231  194  61  1018  2019-02-28 01:01:26 
1893  231  191  61  1017  2019-02-28 02:01:27 
1894  231  193  62  1017  2019-02-28 03:01:29 
1895  230  191  63  1016  2019-02-28 04:01:26 
1896  226  187  63  1016  2019-02-28 05:01:27 
1897  226  186  63  1016  2019-02-28 06:01:29 
1898  226  186  64  1015  2019-02-28 07:01:26 
1899  226  192  64  1016  2019-02-28 08:01:28 
1900  226  211  65  1016  2019-02-28 09:01:29 
1901  226  216  65  1017  2019-02-28 10:01:27 
1902  231  230  65  1017  2019-02-28 11:01:28 
1903  231  238  64  1016  2019-02-28 12:01:25 
1904  234  240  64  1016  2019-02-28 13:01:28 
1905  234  254  64  1017  2019-02-28 14:01:29 
1906  238  252  63  1016  2019-02-28 15:01:26 
1907  240  244  63  1016  2019-02-28 16:01:28 
1908  241  242  65  1016  2019-02-28 17:01:29 
1909  241  236  66  1017  2019-02-28 18:01:27 
1910  241  231  66  1016  2019-02-28 19:01:28 
1911  241  224  67  1017  2019-02-28 20:01:25 
1912  242  218  70  1018  2019-02-28 21:01:27 
1913  241  216  70  1018  2019-02-28 22:01:28 
1914  241  211  70  1018  2019-02-28 23:01:26 
1915  241  212  71  1018  2019-03-01 00:01:28 
1916  239  209  72  1016  2019-03-01 01:01:25 
1917  241  204  72  1016  2019-03-01 02:01:27 
1918  241  203  72  1016  2019-03-01 03:01:29 
1919  239  196  73  1017  2019-03-01 04:01:26 
1920  236  193  72  1016  2019-03-01 05:01:28 
1921  236  188  72  1015  2019-03-01 06:01:26 
1922  236  190  73  1017  2019-03-01 07:01:28 
1923  234  196  73  1018  2019-03-01 08:01:26 
1924  236  205  74  1017  2019-03-01 09:01:28 
1925  236  224  72  1017  2019-03-01 10:01:25 
1926  236  241  70  1017  2019-03-01 11:01:27 
1927  238  256  65  1018  2019-03-01 12:01:29 
1928  240  258  64  1017  2019-03-01 13:01:27 
1929  241  266  62  1016  2019-03-01 14:01:29 
1930  243  272  57  1016  2019-03-01 15:01:27 
1931  246  266  56  1016  2019-03-01 16:01:29 
1932  246  260  56  1016  2019-03-01 17:01:27 
1933  246  241  56  1016  2019-03-01 18:01:29 
1934  246  226  61  1015  2019-03-01 19:01:28 
1935  246  215  62  1016  2019-03-01 20:01:25 
1936  246  211  63  1017  2019-03-01 21:01:28 
1937  246  206  63  1017  2019-03-01 22:01:26 
1938  246  201  63  1016  2019-03-01 23:01:28 
1939  244  201  64  1017  2019-03-02 00:01:26 
1940  241  201  64  1016  2019-03-02 01:01:27 
1941  243  196  65  1015  2019-03-02 02:01:29 
1942  241  196  65  1015  2019-03-02 03:01:26 
1943  241  196  66  1014  2019-03-02 04:01:28 
1944  238  196  66  1014  2019-03-02 05:01:25 
1945  238  196  66  1015  2019-03-02 06:01:27 
1946  236  196  67  1016  2019-03-02 07:01:29 
1947  236  204  70  1015  2019-03-02 08:01:26 
1948  241  219  73  1015  2019-03-02 09:01:27 
1949  241  231  74  1016  2019-03-02 10:01:29 
1950  241  234  74  1016  2019-03-02 11:01:27 
1951  246  261  72  1015  2019-03-02 12:01:28 
1952  248  270  70  1015  2019-03-02 13:01:26 
1953  250  275  67  1015  2019-03-02 14:01:27 
1954  251  286  67  1016  2019-03-02 15:01:29 
1955  251  258  65  1016  2019-03-02 16:01:27 
1956  255  261  64  1015  2019-03-02 17:01:28 
1957  256  251  64  1016  2019-03-02 18:01:26 
1958  251  231  65  1016  2019-03-02 19:01:27 
1959  247  216  67  1016  2019-03-02 20:01:29 
1960  251  215  67  1015  2019-03-02 21:01:27 
1961  251  211  66  1017  2019-03-02 22:01:28 
1962  251  206  67  1017  2019-03-02 23:01:26 
1963  250  201  70  1017  2019-03-03 00:01:27 
1964  247  198  70  1016  2019-03-03 01:01:29 
1965  246  196  70  1016  2019-03-03 02:01:26 
1966  244  196  70  1015  2019-03-03 03:01:28 
1967  243  192  70  1016  2019-03-03 04:01:26 
1968  241  191  71  1014  2019-03-03 05:01:27 
1969  241  189  71  1014  2019-03-03 06:01:29 
1970  238  178  71  1014  2019-03-03 07:01:27 
1971  237  196  71  1015  2019-03-03 08:01:28 
1972  239  211  72  1015  2019-03-03 09:01:26 
1973  241  236  72  1015  2019-03-03 10:01:27 
1974  241  256  71  1016  2019-03-03 11:01:29 
1975  241  262  70  1015  2019-03-03 12:01:26 
1976  244  266  67  1014  2019-03-03 13:01:28 
1977  252  271  64  1013  2019-03-03 14:01:29 
1978  266  271  60  1013  2019-03-03 15:01:27 
1979  271  282  61  1013  2019-03-03 16:01:28 
1980  266  271  57  1013  2019-03-03 17:01:26 
1981  264  256  60  1013  2019-03-03 18:01:27 
1982  254  247  56  1015  2019-03-03 19:01:29 
1983  250  237  64  1015  2019-03-03 20:01:26 
1984  248  231  66  1016  2019-03-03 21:01:27 
1985  245  214  66  1016  2019-03-03 22:01:29 
1986  241  213  65  1015  2019-03-03 23:01:26 
1987  236  201  65  1015  2019-03-04 00:01:28 
1988  236  196  65  1016  2019-03-04 01:01:30 
1989  236  196  66  1014  2019-03-04 02:01:27 
1990  235  196  67  1014  2019-03-04 03:01:29 
1991  235  196  70  1014  2019-03-04 04:01:26 
1992  235  196  70  1014  2019-03-04 05:01:28 
1993  231  201  71  1014  2019-03-04 06:01:29 
1994  236  201  72  1013  2019-03-04 07:01:27 
1995  236  204  73  1014  2019-03-04 08:01:28 
1996  232  211  76  1015  2019-03-04 09:01:26 
1997  237  206  75  1015  2019-03-04 10:01:28 
1998  240  201  76  1017  2019-03-04 11:01:26 
1999  239  221  74  1016  2019-03-04 12:01:29 
2000  241  231  72  1016  2019-03-04 13:01:27 
2001  240  228  71  1016  2019-03-04 14:01:26 
2002  238  221  70  1016  2019-03-04 15:01:29 
2003  238  221  71  1016  2019-03-04 16:01:27 
2004  241  216  67  1016  2019-03-04 17:01:26 
2005  244  210  67  1017  2019-03-04 18:01:28 
2006  239  199  70  1017  2019-03-04 19:01:27 
2007  241  196  70  1017  2019-03-04 20:01:26 
2008  241  188  67  1017  2019-03-04 21:01:28 
2009  236  181  67  1019  2019-03-04 22:01:27 
2010  236  179  67  1018  2019-03-04 23:01:30 
2011  231  176  67  1018  2019-03-05 00:01:29 
2012  231  171  67  1018  2019-03-05 01:01:27 
2013  228  171  67  1017  2019-03-05 02:01:28 
2014  224  167  67  1016  2019-03-05 03:01:30 
2015  222  166  70  1015  2019-03-05 04:01:27 
2016  221  166  70  1015  2019-03-05 05:01:29 
2017  221  166  70  1015  2019-03-05 06:01:26 
2018  219  165  71  1015  2019-03-05 07:01:27 
2019  221  173  71  1016  2019-03-05 08:01:29 
2020  221  188  71  1015  2019-03-05 09:01:26 
2021  223  201  71  1016  2019-03-05 10:01:28 
2022  225  221  70  1016  2019-03-05 11:01:29 
2023  223  236  70  1014  2019-03-05 12:01:27 
2024  226  246  70  1014  2019-03-05 13:01:28 
2025  228  236  70  1014  2019-03-05 14:01:26 
2026  231  236  66  1013  2019-03-05 15:01:27 
2027  230  241  65  1013  2019-03-05 16:01:29 
2028  232  236  65  1012  2019-03-05 17:01:27 
2029  236  217  65  1013  2019-03-05 18:01:28 
2030  236  208  66  1012  2019-03-05 19:01:30 
2031  236  207  67  1012  2019-03-05 20:01:27 
2032  236  201  67  1012  2019-03-05 21:01:29 
2033  235  202  67  1011  2019-03-05 22:01:26 
2034  236  190  67  1012  2019-03-05 23:01:28 
2035  233  191  70  1011  2019-03-06 00:01:29 
2036  231  196  70  1012  2019-03-06 01:01:27 
2037  231  181  70  1011  2019-03-06 02:01:29 
2038  226  176  70  1011  2019-03-06 03:01:26 
2039  226  173  71  1010  2019-03-06 04:01:28 
2040  224  171  71  1010  2019-03-06 05:01:29 
2041  223  176  71  1011  2019-03-06 06:01:27 
2042  221  166  72  1011  2019-03-06 07:01:28 
2043  221  179  73  1012  2019-03-06 08:01:30 
2044  227  197  74  1012  2019-03-06 09:01:27 
2045  226  226  74  1012  2019-03-06 10:01:29 
2046  226  241  73  1013  2019-03-06 11:01:26 
2047  231  271  73  1012  2019-03-06 12:01:28 
2048  236  288  70  1012  2019-03-06 13:01:29 
2049  261  291  70  1013  2019-03-06 14:01:27 
2050  262  291  67  1013  2019-03-06 15:01:29 
2051  254  299  65  1013  2019-03-06 16:01:26 
2052  251  302  65  1013  2019-03-06 17:01:28 
2053  252  266  62  1015  2019-03-06 18:01:29 
2054  247  231  62  1015  2019-03-06 19:01:27 
2055  243  212  61  1015  2019-03-06 20:01:28 
2056  236  201  62  1017  2019-03-06 21:01:30 
2057  231  191  62  1017  2019-03-06 22:01:27 
2058  226  181  63  1016  2019-03-06 23:01:29 
2059  226  184  64  1016  2019-03-07 00:01:26 
2060  223  180  64  1017  2019-03-07 01:01:27 
2061  219  181  65  1016  2019-03-07 02:01:29 
2062  219  181  66  1016  2019-03-07 03:01:26 
2063  224  186  67  1017  2019-03-07 04:01:28 
2064  226  191  70  1017  2019-03-07 05:01:29 
2065  221  187  71  1016  2019-03-07 06:01:27 
2066  221  190  73  1017  2019-03-07 07:01:28 
2067  226  196  73  1016  2019-03-07 08:01:30 
2068  227  204  75  1017  2019-03-07 09:01:27 
2069  225  181  101  1020  2019-03-07 10:01:29 
2070  226  176  100  1020  2019-03-07 11:01:28 
2071  227  171  75  1020  2019-03-07 12:01:26 
2072  227  171  74  1020  2019-03-07 13:01:29 
2073  228  177  72  1021  2019-03-07 14:01:27 
2074  226  176  70  1021  2019-03-07 15:01:30 
2075  224  176  67  1020  2019-03-07 16:01:28 
2076  221  172  67  1021  2019-03-07 17:01:26 
2077  221  171  67  1022  2019-03-07 18:01:29 
2078  221  171  65  1022  2019-03-07 19:01:27 
2079  217  171  64  1021  2019-03-07 20:01:29 
2080  216  166  63  1022  2019-03-07 21:01:27 
2081  212  164  62  1023  2019-03-07 22:01:30 
2082  211  161  61  1022  2019-03-07 23:01:28 
2083  207  157  62  1022  2019-03-08 00:01:26 
2084  207  161  62  1021  2019-03-08 01:01:27 
2085  203  161  63  1021  2019-03-08 02:01:29 
2086  204  158  63  1020  2019-03-08 03:01:30 
2087  205  156  64  1020  2019-03-08 04:01:27 
2088  201  161  64  1020  2019-03-08 05:01:28 
2089  201  161  66  1019  2019-03-08 06:01:29 
2090  201  161  66  1020  2019-03-08 07:01:27 
2091  201  166  66  1020  2019-03-08 08:01:28 
2092  205  182  67  1019  2019-03-08 09:01:30 
2093  206  192  70  1020  2019-03-08 10:01:27 
2094  206  206  67  1019  2019-03-08 11:00:54 
2095  207  207  67  1019  2019-03-08 11:01:30 
2096  208  196  66  1019  2019-03-08 12:01:28 
2097  209  215  65  1018  2019-03-08 13:01:30 
2098  212  215  66  1017  2019-03-08 14:01:28 
2099  215  215  65  1017  2019-03-08 15:01:30 
2100  211  211  66  1016  2019-03-08 16:01:28 
2101  214  206  66  1016  2019-03-08 17:01:30 
2102  213  196  71  1015  2019-03-08 18:01:28 
2103  213  186  73  1015  2019-03-08 19:01:30 
2104  216  181  73  1015  2019-03-08 20:01:28 
2105  216  176  72  1015  2019-03-08 21:01:30 
2106  215  171  72  1016  2019-03-08 22:01:28 
2107  213  171  72  1015  2019-03-08 23:01:30 
2108  212  166  73  1015  2019-03-09 00:01:28 
2109  211  168  73  1015  2019-03-09 01:01:30 
2110  210  169  73  1014  2019-03-09 02:01:28 
2111  206  166  73  1014  2019-03-09 03:01:30 
2112  206  166  73  1014  2019-03-09 04:01:28 
2113  205  166  74  1014  2019-03-09 05:01:30 
2114  205  166  74  1015  2019-03-09 06:01:28 
2115  206  171  74  1016  2019-03-09 07:01:30 
2116  206  186  77  1016  2019-03-09 08:01:28 
2117  208  201  77  1016  2019-03-09 09:01:30 
2118  209  206  77  1017  2019-03-09 10:01:28 
2119  209  206  76  1017  2019-03-09 11:01:30 
2120  211  204  76  1017  2019-03-09 12:01:28 
2121  211  213  75  1017  2019-03-09 13:01:30 
2122  211  217  75  1016  2019-03-09 14:01:28 
2123  211  216  74  1017  2019-03-09 15:01:30 
2124  211  212  75  1016  2019-03-09 16:01:27 
2125  213  209  75  1016  2019-03-09 17:01:29 
2126  212  197  75  1016  2019-03-09 18:01:27 
2127  215  191  76  1017  2019-03-09 19:01:29 
2128  216  186  76  1016  2019-03-09 20:01:27 
2129  217  186  76  1017  2019-03-09 21:01:29 
2130  216  186  75  1018  2019-03-09 22:01:27 
2131  214  176  75  1018  2019-03-09 23:01:29 
2132  211  176  75  1017  2019-03-10 00:01:27 
2133  211  175  75  1017  2019-03-10 01:01:29 
2134  211  176  75  1017  2019-03-10 02:01:27 
2135  210  171  75  1017  2019-03-10 03:01:29 
2136  206  171  75  1017  2019-03-10 04:01:27 
2137  206  166  75  1018  2019-03-10 05:01:28 
2138  205  168  76  1017  2019-03-10 06:01:26 
2139  204  167  76  1018  2019-03-10 07:01:28 
2140  206  175  77  1018  2019-03-10 08:01:30 
2141  206  183  100  1018  2019-03-10 09:01:28 
2142  206  201  100  1019  2019-03-10 10:01:30 
2143  208  221  100  1019  2019-03-10 11:01:28 
2144  210  231  77  1017  2019-03-10 12:01:30 
2145  211  240  77  1018  2019-03-10 13:01:27 
2146  215  246  76  1016  2019-03-10 14:01:29 
2147  216  233  75  1017  2019-03-10 15:01:27 
2148  216  226  73  1017  2019-03-10 16:01:29 
2149  216  201  75  1017  2019-03-10 17:01:27 
2150  221  186  74  1017  2019-03-10 18:01:29 
2151  217  178  74  1017  2019-03-10 19:01:27 
2152  219  171  75  1018  2019-03-10 20:01:29 
2153  219  170  74  1019  2019-03-10 21:01:27 
2154  216  166  73  1019  2019-03-10 22:01:30 
2155  212  166  73  1019  2019-03-10 23:01:27 
2156  211  161  73  1020  2019-03-11 00:01:29 
2157  210  161  73  1019  2019-03-11 01:01:27 
2158  209  161  73  1019  2019-03-11 02:01:29 
2159  204  158  73  1018  2019-03-11 03:01:27 
2160  204  156  74  1018  2019-03-11 04:01:29 
2161  206  161  75  1018  2019-03-11 05:01:27 
2162  203  161  77  1017  2019-03-11 06:02:19 
2163  203  161  77  1017  2019-03-11 06:02:30 
2164  203  161  77  1017  14  2019-03-11 07:01:26 
2165  202  161  101  1018  11  2019-03-11 08:01:29 
2166  204  161  102  1018  2019-03-11 09:01:27 
2167  206  161  101  1018  2019-03-11 09:16:32 
2168  202  166  101  1018  2019-03-11 10:01:29 
2169  204  169  101  1018  2019-03-11 11:01:28 
2170  206  171  101  1018  2019-03-11 12:01:26 
2171  202  171  101  1018  2019-03-11 13:01:29 
2172  206  181  101  1017  2019-03-11 14:01:27 
2173  206  186  103  1016  2019-03-11 15:01:30 
2174  206  194  102  1016  2019-03-11 16:01:29 
2175  205  186  101  1015  2019-03-11 17:01:27 
2176  206  182  101  1015  2019-03-11 18:01:30 
2177  208  180  103  1014  2019-03-11 19:01:29 
2178  206  171  102  1014  2019-03-11 20:01:28 
2179  206  176  102  1016  2019-03-11 21:01:26 
2180  206  170  102  1016  2019-03-11 22:01:29 
2181  204  166  101  1015  2019-03-11 23:01:28 
2182  202  161  101  1014  2019-03-12 00:01:26 
2183  202  161  101  1014  2019-03-12 01:01:29 
2184  203  157  101  1014  2019-03-12 02:01:27 
2185  200  158  101  1013  2019-03-12 03:01:29 
2186  197  156  101  1012  2019-03-12 04:01:28 
2187  198  161  101  1013  2019-03-12 05:01:30 
2188  197  161  101  1012  2019-03-12 06:01:28 
2189  196  161  101  1014  2019-03-12 07:01:26 
2190  196  166  102  1014  2019-03-12 08:01:29 
2191  196  171  102  1014  2019-03-12 09:01:27 
2192  196  186  103  1015  2019-03-12 10:01:29 
2193  199  201  103  1014  2019-03-12 11:01:27 
2194  201  192  103  1014  2019-03-12 12:01:31 
2195  201  211  103  1013  2019-03-12 13:01:29 
2196  204  236  100  1012  2019-03-12 14:01:27 
2197  204  206  77  1012  2019-03-12 15:01:29 
2198  206  216  76  1012  2019-03-12 16:01:28 
2199  206  201  75  1013  2019-03-12 17:01:30 
2200  207  201  75  1013  2019-03-12 18:01:28 
2201  210  191  75  1013  2019-03-12 19:01:27 
2202  208  183  75  1014  2019-03-12 20:01:29 
2203  206  176  76  1013  2019-03-12 21:01:27 
2204  206  171  76  1015  2019-03-12 22:01:30 
2205  207  171  76  1014  2019-03-12 23:01:28 
2206  206  171  76  1014  2019-03-13 00:01:30 
2207  206  169  77  1014  2019-03-13 01:01:28 
2208  206  163  77  1013  2019-03-13 02:01:27 
2209  201  160  77  1014  2019-03-13 03:01:29 
2210  200  156  77  1013  2019-03-13 04:01:27 
2211  199  152  77  1014  2019-03-13 05:01:29 
2212  196  151  77  1015  2019-03-13 06:01:28 
2213  194  151  77  1015  2019-03-13 07:01:30 
2214  196  157  100  1015  2019-03-13 08:01:28 
2215  197  171  101  1016  2019-03-13 09:01:26 
2216  199  186  101  1017  2019-03-13 10:01:29 
2217  201  201  101  1017  2019-03-13 11:01:27 
2218  206  216  102  1016  2019-03-13 12:01:29 
2219  206  233  100  1016  2019-03-13 13:01:28 
2220  211  241  76  1015  2019-03-13 14:01:30 
2221  211  241  75  1015  2019-03-13 15:01:28 
2222  216  241  74  1015  2019-03-13 16:01:27 
2223  218  236  73  1016  2019-03-13 17:01:30 
2224  221  221  73  1016  2019-03-13 18:01:28 
2225  221  214  75  1016  2019-03-13 19:01:26 
2226  221  202  76  1017  2019-03-13 20:01:29 
2227  221  200  76  1017  2019-03-13 21:01:27 
2228  223  201  100  1018  2019-03-13 22:01:30 
2229  221  196  77  1018  2019-03-13 23:01:28 
2230  221  196  100  1017  2019-03-14 00:01:26 
2231  221  196  100  1017  2019-03-14 01:01:29 
2232  221  196  100  1016  2019-03-14 02:01:27 
2233  221  191  100  1016  2019-03-14 03:01:30 
2234  216  187  100  1016  2019-03-14 04:01:28 
2235  221  186  101  1016  2019-03-14 05:01:26 
2236  217  181  101  1017  2019-03-14 06:01:29 
2237  217  181  101  1017  2019-03-14 07:01:27 
2238  219  187  102  1017  2019-03-14 08:01:30 
2239  225  191  104  1017  2019-03-14 08:31:47 
2240  221  196  100  1017  2019-03-14 09:00:39 
2241  221  193  100  1018  2019-03-14 09:01:27 
2242  224  201  77  1017  2019-03-14 10:01:30 
2243  225  206  77  1017  2019-03-14 11:01:28 
2244  226  211  77  1017  2019-03-14 12:01:27 
2245  231  224  77  1017  2019-03-14 13:01:29 
2246  231  229  77  1016  2019-03-14 14:01:28 
2247  232  229  77  1017  2019-03-14 15:01:30 
2248  236  225  76  1015  2019-03-14 16:01:29 
2249  235  216  75  1016  2019-03-14 17:01:27 
2250  236  204  74  1015  2019-03-14 18:01:30 
2251  234  194  74  1016  2019-03-14 19:01:28 
2252  231  186  74  1015  2019-03-14 20:01:27 
2253  232  186  74  1015  2019-03-14 21:01:29 
2254  231  186  74  1015  2019-03-14 22:01:28 
2255  222  186  75  1014  2019-03-14 23:02:17 
2256  222  186  75  1014  2019-03-14 23:02:28 
2257  226  194  74  1014  2019-03-15 00:01:29 
2258  226  191  74  1014  2019-03-15 01:01:27 
2259  225  191  73  1013  2019-03-15 02:01:30 
2260  223  186  73  1013  2019-03-15 03:01:28 
2261  221  181  73  1013  2019-03-15 04:01:31 
2262  220  179  73  1012  2019-03-15 05:01:29 
2263  216  173  73  1012  2019-03-15 06:01:27 
2264  216  175  73  1012  2019-03-15 07:01:29 
2265  219  181  74  1013  2019-03-15 08:01:28 
2266  224  197  75  1013  2019-03-15 09:01:30 
2267  227  216  76  1013  2019-03-15 10:01:29 
2268  234  225  76  1013  2019-03-15 11:01:27 
2269  236  239  75  1012  2019-03-15 12:01:30 
2270  239  248  75  1011  2019-03-15 13:01:28 
2271  244  261  73  1012  2019-03-15 14:01:27 
2272  250  267  71  1011  2019-03-15 15:01:29 
2273  254  264  71  1011  2019-03-15 16:01:28 
2274  256  256  70  1010  2019-03-15 17:01:30 
2275  256  241  70  1009  2019-03-15 18:01:29 
2276  256  232  71  1011  2019-03-15 19:01:27 
2277  251  223  72  1011  2019-03-15 20:01:29 
2278  247  216  71  1012  2019-03-15 21:01:28 
2279  247  210  71  1011  2019-03-15 22:01:30 
2280  246  206  71  1011  2019-03-15 23:01:28 
2281  245  201  72  1010  2019-03-16 00:01:27 
2282  242  201  71  1010  2019-03-16 01:01:29 
2283  241  196  71  1009  2019-03-16 02:01:28 
2284  239  195  71  1010  2019-03-16 03:01:30 
2285  237  191  71  1010  2019-03-16 04:01:29 
2286  237  186  71  1010  2019-03-16 05:01:27 
2287  235  186  71  1010  2019-03-16 06:01:29 
2288  233  182  71  1012  2019-03-16 07:01:28 
2289  225  186  72  1012  2019-03-16 08:01:30 
2290  228  196  73  1012  2019-03-16 09:01:29 
2291  234  211  73  1013  2019-03-16 10:01:27 
2292  239  216  73  1013  2019-03-16 11:01:30 
2293  246  231  72  1011  2019-03-16 12:01:28 
2294  251  243  72  1012  2019-03-16 13:01:31 
2295  251  256  72  1012  2019-03-16 14:01:29 
2296  252  260  72  1010  2019-03-16 16:11:31 
2297  256  251  70  1010  2019-03-16 17:01:29 
2298  256  241  70  1011  2019-03-16 18:01:27 
2299  247  225  70  1010  2019-03-16 19:01:30 
2300  256  211  70  1011  2019-03-16 20:01:28 
2301  251  211  70  1012  2019-03-16 21:01:31 
2302  251  206  70  1012  2019-03-16 22:01:29 
2303  243  201  71  1011  2019-03-17 00:16:55 
2304  241  195  67  1011  2019-03-17 01:01:27 
2305  241  196  67  1010  2019-03-17 02:01:30 
2306  237  194  67  1011  2019-03-17 03:01:28 
2307  240  191  67  1010  2019-03-17 04:01:27 
2308  231  176  71  1011  2019-03-17 06:13:02 
2309  230  176  67  1012  2019-03-17 07:01:30 
2310  231  184  67  1012  2019-03-17 08:01:28 
2311  226  196  67  1013  2019-03-17 09:01:31 
2312  236  211  67  1013  2019-03-17 10:01:29 
2313  236  221  70  1013  2019-03-17 11:01:28 
2314  236  231  67  1014  2019-03-17 12:01:30 
2315  236  263  71  1013  2019-03-17 14:26:31 
2316  237  261  70  1011  2019-03-17 15:01:28 
2317  241  256  70  1013  2019-03-17 16:01:31 
2318  243  250  71  1012  2019-03-17 17:01:29 
2319  246  236  72  1011  2019-03-17 18:01:28 
2320  241  221  72  1012  2019-03-17 19:01:30 
2321  241  216  72  1013  2019-03-17 20:01:29 
2322  236  209  73  1013  2019-03-17 22:23:48 
2323  238  206  72  1014  2019-03-17 23:01:30 
2324  236  201  72  1014  2019-03-18 00:01:28 
2325  234  196  72  1013  2019-03-18 01:01:30 
2326  231  194  72  1013  2019-03-18 02:01:29 
2327  231  191  72  1012  2019-03-18 03:01:27 
2328  230  191  72  1012  2019-03-18 04:01:30 
2329  226  189  72  1012  2019-03-18 05:01:28 
2330  226  186  72  1012  2019-03-18 06:01:31 
2331  226  186  73  1013  2019-03-18 07:01:29 
2332  226  192  73  1013  2019-03-18 08:01:27 
2333  230  201  74  1013  2019-03-18 09:01:30 
2334  232  211  74  1013  2019-03-18 10:01:28 
2335  236  216  75  1013  2019-03-18 11:01:31 
2336  236  223  76  1012  2019-03-18 12:01:29 
2337  241  241  100  1012  2019-03-18 14:22:02 
2338  246  251  77  1012  2019-03-18 15:01:31 
2339  250  246  76  1011  2019-03-18 16:01:29 
2340  249  241  76  1012  2019-03-18 17:01:27 
2341  246  231  76  1012  2019-03-18 18:01:30 
2342  245  219  77  1011  2019-03-18 19:01:28 
2343  248  212  76  1012  2019-03-18 20:01:31 
2344  243  210  76  1012  2019-03-18 22:14:54 
2345  241  208  74  1012  2019-03-18 23:01:30 
2346  241  202  74  1013  2019-03-19 00:01:29 
2347  238  201  74  1011  2019-03-19 01:01:27 
2348  238  196  74  1010  2019-03-19 02:01:30 
2349  236  191  74  1009  2019-03-19 03:01:29 
2350  226  181  74  1010  2019-03-19 06:07:42 
2351  223  181  74  1011  2019-03-19 07:01:30 
2352  226  186  73  1011  2019-03-19 08:01:29 
2353  231  196  73  1012  2019-03-19 09:01:27 
2354  231  220  74  1012  2019-03-19 10:01:30 
2355  232  226  75  1011  2019-03-19 11:01:29 
2356  238  241  77  1011  2019-03-19 12:01:27 
2357  246  263  77  1011  2019-03-19 14:45:32 
2358  246  266  76  1011  2019-03-19 15:01:29 
2359  251  261  72  1012  2019-03-19 16:01:28 
2360  247  248  74  1011  2019-03-19 17:01:30 
2361  246  238  74  1013  2019-03-19 18:01:29 
2362  245  225  73  1012  2019-03-19 19:01:31 
2363  250  217  75  1014  2019-03-19 20:01:30 
2364  241  211  75  1015  2019-03-19 22:46:29 
2365  241  207  74  1014  2019-03-19 23:01:29 
2366  241  202  73  1014  2019-03-20 00:01:32 
2367  239  201  73  1015  2019-03-20 01:01:30 
2368  236  196  73  1014  2019-03-20 02:01:29 
2369  232  191  72  1014  2019-03-20 03:01:27 
2370  231  191  72  1015  2019-03-20 04:01:30 
2371  229  187  72  1014  2019-03-20 05:01:28 
2372  228  184  72  1015  2019-03-20 06:01:31 
2373  226  181  72  1016  2019-03-20 07:01:29 
2374  223  186  71  1016  2019-03-20 08:01:31 
2375  224  191  72  1017  2019-03-20 09:01:30 
2376  221  197  72  1018  2019-03-20 10:01:28 
2377  226  211  72  1018  2019-03-20 11:01:30 
2378  229  226  72  1018  2019-03-20 12:01:29 
2379  230  226  70  1018  2019-03-20 14:13:39 
2380  231  228  65  1016  2019-03-20 15:01:29 
2381  229  224  65  1018  2019-03-20 16:01:27 
2382  227  216  65  1018  2019-03-20 17:01:30 
2383  231  201  62  1018  2019-03-20 18:01:29 
2384  227  189  63  1018  2019-03-20 19:01:31 
2385  226  181  64  1018  2019-03-20 20:01:29 
2386  216  171  65  1019  2019-03-20 22:25:36 
2387  216  166  64  1019  2019-03-20 23:01:31 
2388  213  161  64  1019  2019-03-21 00:01:29 
2389  211  161  64  1019  2019-03-21 01:01:31 
2390  211  158  64  1019  2019-03-21 02:01:29 
2391  201  151  65  1018  2019-03-21 04:11:56 
2392  201  149  64  1018  2019-03-21 05:01:29 
2393  200  146  64  1018  2019-03-21 06:01:31 
2394  197  145  64  1019  2019-03-21 07:01:29 
2395  197  151  64  1019  2019-03-21 08:01:31 
2396  201  166  65  1019  2019-03-21 09:01:30 
2397  201  180  65  1020  2019-03-21 10:01:28 
2398  211  206  67  1020  2019-03-21 12:20:32 
2399  212  211  65  1021  2019-03-21 13:01:30 
2400  217  222  65  1019  2019-03-21 14:01:29 
2401  221  229  65  1018  2019-03-21 15:01:31 
2402  225  223  64  1018  2019-03-21 16:01:30 
2403  226  226  65  1018  2019-03-21 17:01:28 
2404  226  205  66  1018  2019-03-21 18:01:30 
2405  223  186  71  1019  2019-03-21 20:14:51 
2406  222  181  70  1020  2019-03-21 21:01:31 
2407  221  177  70  1019  2019-03-21 22:01:30 
2408  216  176  70  1019  2019-03-21 23:01:28 
2409  215  176  70  1019  2019-03-22 00:01:31 
2410  214  175  70  1019  2019-03-22 01:01:29 
2411  211  171  70  1019  2019-03-22 02:01:31 
2412  211  171  70  1018  2019-03-22 03:01:30 
2413  211  171  67  1018  2019-03-22 04:01:28 
2414  207  171  70  1018  2019-03-22 05:01:30 
2415  207  166  70  1017  2019-03-22 06:01:29 
2416  206  166  70  1017  2019-03-22 07:01:31 
2417  208  171  71  1017  2019-03-22 08:01:29 
2418  211  186  71  1017  2019-03-22 09:01:28 
2419  211  199  71  1017  2019-03-22 10:01:30 
2420  216  216  73  1017  2019-03-22 12:13:54 
2421  218  215  73  1017  2019-03-22 13:01:28 
2422  221  220  72  1017  2019-03-22 14:01:30 
2423  222  222  71  1017  2019-03-22 15:01:28 
2424  226  221  71  1016  2019-03-22 16:01:31 
2425  230  208  70  1016  2019-03-22 17:01:29 
2426  222  198  70  1015  2019-03-22 18:01:28 
2427  224  187  71  1015  2019-03-22 19:01:30 
2428  226  182  71  1015  2019-03-22 20:01:28 
2429  224  181  71  1016  2019-03-22 21:01:31 
2430  221  176  71  1016  2019-03-22 22:01:30 
2431  216  174  70  1015  2019-03-22 23:01:28 
2432  216  171  70  1014  2019-03-23 00:01:31 
2433  211  171  70  1014  2019-03-23 01:01:29 
2434  211  171  70  1014  2019-03-23 02:01:32 
2435  203  166  71  1013  2019-03-23 04:08:12 
2436  206  164  67  1011  2019-03-23 05:01:31 
2437  201  161  67  1011  2019-03-23 06:01:29 
2438  201  161  67  1011  2019-03-23 07:01:31 
2439  202  163  70  1012  2019-03-23 08:01:30 
2440  206  179  71  1011  2019-03-23 09:01:28 
2441  206  196  71  1011  2019-03-23 10:01:30 
2442  216  206  72  1011  2019-03-23 11:01:29 
2443  227  219  73  1011  2019-03-23 12:01:31 
2444  226  235  73  1010  2019-03-23 13:01:29 
2445  231  245  72  1009  2019-03-23 14:01:28 
2446  232  248  74  1010  2019-03-23 15:01:30 
2447  235  251  72  1009  2019-03-23 16:01:29 
2448  235  241  71  1008  2019-03-23 17:01:31 
2449  236  231  72  1009  2019-03-23 18:01:30 
2450  236  216  74  1009  2019-03-23 20:05:36 
2451  237  211  74  1010  2019-03-23 21:01:28 
2452  236  206  74  1008  2019-03-23 22:01:30 
2453  231  205  73  1009  2019-03-23 23:01:29 
2454  231  201  73  1008  2019-03-24 00:01:31 
2455  231  198  73  1009  2019-03-24 01:01:29 
2456  230  196  73  1011  2019-03-24 02:01:28 
2457  226  191  73  1010  2019-03-24 03:01:31 
2458  227  191  73  1010  2019-03-24 04:01:29 
2459  227  196  73  1010  2019-03-24 05:01:31 
2460  227  198  74  1011  2019-03-24 06:01:30 
2461  226  199  74  1011  2019-03-24 07:01:28 
2462  226  208  75  1012  2019-03-24 08:01:31 
2463  231  216  76  1013  2019-03-24 09:01:29 
2464  231  231  100  1013  2019-03-24 10:01:32 
2465  236  232  100  1014  2019-03-24 11:01:30 
2466  236  244  100  1014  2019-03-24 12:01:29 
2467  236  241  100  1015  2019-03-24 13:01:31 
2468  239  246  77  1014  2019-03-24 14:01:30 
2469  241  246  77  1013  2019-03-24 15:01:28 
2470  241  241  76  1013  2019-03-24 16:01:31 
2471  240  226  75  1014  2019-03-24 17:01:29 
2472  241  216  75  1015  2019-03-24 18:01:32 
2473  238  206  74  1015  2019-03-24 19:01:30 
2474  238  201  74  1016  2019-03-24 20:01:29 
2475  238  198  73  1017  2019-03-24 21:01:31 
2476  236  194  73  1017  2019-03-24 22:01:29 
2477  231  191  73  1016  2019-03-24 23:01:32 
2478  231  191  73  1017  2019-03-25 00:01:30 
2479  228  191  73  1017  2019-03-25 01:01:28 
2480  226  191  73  1017  2019-03-25 02:01:31 
2481  227  188  73  1017  2019-03-25 03:01:29 
2482  226  185  73  1017  2019-03-25 04:01:31 
2483  224  184  73  1017  2019-03-25 05:01:30 
2484  223  180  73  1018  2019-03-25 06:01:28 
2485  221  176  74  1018  2019-03-25 07:01:30 
2486  221  176  74  1018  2019-03-25 08:01:29 
2487  222  178  74  1020  2019-03-25 09:01:31 
2488  221  181  74  1021  2019-03-25 10:01:29 
2489  221  181  73  1020  2019-03-25 11:01:32 
2490  226  198  72  1020  2019-03-25 12:01:30 
2491  226  209  70  1020  2019-03-25 13:01:28 
2492  226  215  67  1019  2019-03-25 14:01:31 
2493  229  218  66  1020  2019-03-25 15:01:30 
2494  229  207  66  1020  2019-03-25 16:01:32 
2495  223  191  66  1019  2019-03-25 17:01:30 
2496  226  186  67  1019  2019-03-25 18:01:28 
2497  223  181  67  1019  2019-03-25 19:01:31 
2498  226  176  67  1019  2019-03-25 20:01:29 
2499  221  171  67  1020  2019-03-25 21:01:32 
2500  218  171  67  1021  2019-03-25 22:01:30 
2501  216  171  67  1020  2019-03-25 23:01:28 
2502  216  171  67  1021  2019-03-26 00:01:30 
2503  214  166  67  1021  2019-03-26 01:01:29 
2504  211  165  66  1019  2019-03-26 02:01:31 
2505  207  165  66  1019  2019-03-26 03:01:29 
2506  206  161  66  1019  2019-03-26 04:01:31 
2507  206  161  66  1018  2019-03-26 05:01:29 
2508  202  161  67  1018  2019-03-26 06:01:32 
2509  203  161  67  1019  2019-03-26 07:01:30 
2510  206  162  67  1019  2019-03-26 08:01:32 
2511  206  171  70  1019  2019-03-26 09:01:30 
2512  209  184  70  1019  2019-03-26 10:01:29 
2513  211  201  67  1018  2019-03-26 11:01:31 
2514  216  206  70  1018  2019-03-26 12:01:29 
2515  219  216  70  1019  2019-03-26 13:01:31 
2516  221  224  70  1018  2019-03-26 14:01:30 
2517  224  226  67  1017  2019-03-26 15:01:32 
2518  224  211  66  1017  2019-03-26 16:01:30 
2519  222  206  66  1016  2019-03-26 17:01:29 
2520  222  201  66  1017  2019-03-26 18:01:31 
2521  221  191  67  1017  2019-03-26 19:01:29 
2522  223  188  70  1017  2019-03-26 20:01:32 
2523  221  186  67  1017  2019-03-26 21:01:30 
2524  222  186  67  1016  2019-03-26 22:01:28 
2525  218  181  67  1015  2019-03-26 23:01:31 
2526  216  176  67  1014  2019-03-27 00:01:29 
2527  216  171  67  1014  2019-03-27 01:01:31 
2528  211  166  67  1013  2019-03-27 02:01:30 
2529  207  161  67  1013  2019-03-27 03:01:32 
2530  206  156  67  1012  2019-03-27 04:01:30 
2531  205  151  67  1013  2019-03-27 05:01:28 
2532  201  145  66  1013  2019-03-27 06:01:30 
2533  199  145  66  1012  2019-03-27 07:01:29 
2534  199  151  66  1013  2019-03-27 08:01:31 
2535  205  166  67  1014  2019-03-27 09:01:29 
2536  206  178  67  1014  2019-03-27 10:01:32 
2537  211  188  66  1015  2019-03-27 11:01:30 
2538  221  218  60  1014  2019-03-27 12:01:28 
2539  231  241  61  1015  2019-03-27 13:01:31 
2540  231  260  60  1014  2019-03-27 14:01:29 
2541  230  261  56  1013  2019-03-27 15:01:31 
2542  235  256  63  1014  2019-03-27 16:01:30 
2543  238  241  65  1015  2019-03-27 17:01:32 
2544  239  231  66  1016  2019-03-27 18:01:30 
2545  236  213  67  1017  2019-03-27 19:01:29 
2546  240  204  70  1017  2019-03-27 20:01:32 
2547  229  200  70  1018  2019-03-27 21:01:30 
2548  231  193  70  1019  2019-03-27 22:01:32 
2549  230  191  67  1018  2019-03-27 23:01:31 
2550  229  186  67  1018  2019-03-28 00:01:29 
2551  226  181  67  1019  2019-03-28 01:01:31 
2552  226  175  66  1018  2019-03-28 02:01:30 
2553  221  171  66  1018  2019-03-28 03:01:32 
2554  220  171  66  1018  2019-03-28 04:01:30 
2555  216  166  66  1017  2019-03-28 05:01:28 
2556  216  166  66  1017  2019-03-28 06:01:31 
2557  212  161  66  1017  2019-03-28 07:01:30 
2558  212  166  66  1019  2019-03-28 08:01:32 
2559  211  176  66  1019  2019-03-28 09:01:30 
2560  214  191  67  1019  2019-03-28 10:01:32 
2561  220  196  67  1019  2019-03-28 11:01:31 
2562  221  222  71  1019  2019-03-28 12:01:29 
2563  226  241  71  1019  2019-03-28 13:01:31 
2564  229  246  73  1018  2019-03-28 14:01:30 
2565  234  263  74  1018  2019-03-28 15:01:32 
2566  233  248  74  1018  2019-03-28 16:01:30 
2567  236  251  74  1018  2019-03-28 17:01:29 
2568  238  234  74  1019  2019-03-28 18:01:31 
2569  237  226  73  1018  2019-03-28 19:01:30 
2570  235  214  73  1019  2019-03-28 20:01:32 
2571  236  211  74  1018  2019-03-28 21:01:31 
2572  236  206  73  1019  2019-03-28 22:01:30 
2573  232  205  72  1019  2019-03-28 23:01:32 
2574  231  200  72  1019  2019-03-29 00:01:30 
2575  231  196  72  1019  2019-03-29 01:01:29 
2576  229  191  72  1019  2019-03-29 02:01:31 
2577  230  190  72  1018  2019-03-29 03:01:29 
2578  227  191  72  1017  2019-03-29 04:01:32 
2579  226  191  72  1017  2019-03-29 05:01:30 
2580  226  191  72  1017  2019-03-29 06:01:32 
2581  225  191  73  1017  2019-03-29 07:01:31 
2582  224  186  73  1016  2019-03-29 08:01:29 
2583  230  217  74  1018  2019-03-29 10:01:30 
2584  231  221  75  1017  2019-03-29 11:01:29 
2585  234  236  75  1016  2019-03-29 12:01:31 
2586  237  240  74  1016  2019-03-29 13:01:30 
2587  241  251  72  1015  2019-03-29 14:01:32 
2588  251  242  65  1014  2019-03-29 17:01:32 
2589  246  226  64  1015  2019-03-29 18:01:31 
2590  238  209  66  1016  2019-03-29 19:01:29 
2591  236  206  66  1016  2019-03-29 20:01:32 
2592  236  197  67  1017  2019-03-29 21:01:30 
2593  238  196  67  1017  2019-03-29 22:01:32 
2594  236  195  67  1017  2019-03-29 23:01:31 
2595  235  196  67  1017  2019-03-30 00:01:29 
2596  235  193  67  1016  2019-03-30 01:01:32 
2597  231  192  67  1016  2019-03-30 02:01:30 
2598  231  190  67  1016  2019-03-30 03:01:32 
2599  230  191  67  1017  2019-03-30 04:01:31 
2600  231  191  67  1017  2019-03-30 05:01:29 
2601  226  186  70  1017  2019-03-30 06:01:31 
2602  225  182  70  1017  2019-03-30 07:01:30 
2603  226  186  70  1018  2019-03-30 08:01:32 
2604  226  204  72  1018  2019-03-30 09:01:31 
2605  226  221  73  1019  2019-03-30 10:01:29 
2606  232  216  73  1018  2019-03-30 11:01:31 
2607  236  238  70  1018  2019-03-30 12:01:30 
2608  236  242  71  1018  2019-03-30 13:01:32 
2609  238  251  72  1017  2019-03-30 14:01:30 
2610  242  256  70  1017  2019-03-30 15:01:33 
2611  241  252  67  1018  2019-03-30 16:01:31 
2612  246  241  67  1017  2019-03-30 17:01:30 
2613  245  231  65  1018  2019-03-30 18:01:32 
2614  236  211  70  1018  2019-03-30 19:01:31 
2615  236  201  70  1018  2019-03-30 20:01:29 
2616  236  196  70  1019  2019-03-30 21:01:32 
2617  236  191  67  1019  2019-03-30 22:01:30 
2618  233  191  67  1018  2019-03-30 23:01:33 
2619  231  187  67  1018  2019-03-31 00:01:31 
2620  231  186  66  1018  2019-03-31 01:01:29 
2621  227  188  66  1019  2019-03-31 02:01:32 
2622  226  185  66  1018  2019-03-31 03:01:30 
2623  226  181  65  1017  2019-03-31 04:01:32 
2624  221  181  65  1017  2019-03-31 05:01:31 
2625  223  178  64  1016  2019-03-31 06:01:29 
2626  219  171  64  1017  2019-03-31 07:01:31 
2627  216  176  64  1017  2019-03-31 08:01:29 
2628  216  186  63  1017  2019-03-31 09:01:32 
2629  221  201  63  1017  2019-03-31 10:01:30 
2630  221  216  63  1018  2019-03-31 11:01:32 
2631  221  215  60  1017  2019-03-31 12:01:30 
2632  225  222  61  1016  2019-03-31 13:01:32 
2633  226  222  57  1015  2019-03-31 14:01:31 
2634  230  231  55  1016  2019-03-31 15:01:29 
2635  231  216  57  1016  2019-03-31 16:01:31 
2636  221  204  57  1017  2019-03-31 17:01:29 
2637  226  201  61  1017  2019-03-31 18:01:32 
2638  228  196  61  1018  2019-03-31 19:01:30 
2639  228  181  62  1018  2019-03-31 20:01:32 
2640  226  171  63  1019  2019-03-31 21:01:30 
2641  221  165  63  1018  2019-03-31 22:01:33 
2642  221  163  63  1019  2019-03-31 23:01:31 
2643  217  160  63  1020  2019-04-01 00:01:29 
2644  216  159  63  1019  2019-04-01 01:01:32 
2645  212  156  62  1020  2019-04-01 02:01:30 
2646  211  157  62  1021  2019-04-01 03:01:32 
2647  206  156  61  1021  2019-04-01 04:01:30 
2648  206  151  61  1021  2019-04-01 05:01:32 
2649  201  151  60  1022  2019-04-01 06:01:30 
2650  201  151  60  1023  2019-04-01 07:01:32 
2651  201  151  60  1023  2019-04-01 08:01:30 
2652  201  159  61  1023  2019-04-01 09:01:32 
2653  206  176  56  1024  2019-04-01 10:01:31 
2654  201  186  56  1025  2019-04-01 11:01:33 
2655  203  181  57  1025  2019-04-01 12:01:31 
2656  205  196  56  1024  2019-04-01 13:01:29 
2657  208  195  56  1023  2019-04-01 14:01:31 
2658  211  198  54  1023  2019-04-01 15:01:30 
2659  207  191  53  1023  2019-04-01 16:01:33 
2660  211  186  54  1023  2019-04-01 17:01:30 
2661  210  175  54  1023  2019-04-01 18:01:33 
2662  207  166  55  1023  2019-04-01 19:01:31 
2663  206  161  55  1025  2019-04-01 20:01:33 
2664  203  158  56  1024  2019-04-01 21:01:31 
2665  206  156  57  1024  2019-04-01 22:01:29 
2666  204  151  57  1024  2019-04-01 23:01:32 
2667  198  151  57  1023  2019-04-02 00:01:30 
2668  196  151  60  1022  2019-04-02 01:01:32 
2669  196  148  60  1022  2019-04-02 02:01:30 
2670  196  145  60  1021  2019-04-02 03:01:33 
2671  191  145  60  1021  2019-04-02 04:01:31 
2672  191  149  60  1020  2019-04-02 05:01:33 
2673  186  147  60  1020  2019-04-02 06:01:31 
2674  188  145  60  1020  2019-04-02 07:01:29 
2675  191  151  60  1020  2019-04-02 08:01:31 
2676  191  161  61  1021  2019-04-02 09:01:29 
2677  194  173  61  1021  2019-04-02 10:01:32 
2678  196  184  62  1021  2019-04-02 11:01:30 
2679  201  196  61  1019  2019-04-02 12:01:32 
2680  201  208  61  1019  2019-04-02 13:01:30 
2681  206  212  62  1017  2019-04-02 14:01:32 
2682  211  218  62  1017  2019-04-02 15:01:43 
2683  213  216  63  1017  2019-04-02 16:01:33 
2684  211  202  64  1017  2019-04-02 17:01:31 
2685  211  191  65  1016  2019-04-02 18:01:33 
2686  213  181  65  1015  2019-04-02 19:01:31 
2687  216  176  65  1016  2019-04-02 20:01:30 
2688  215  171  65  1016  2019-04-02 21:01:32 
2689  211  166  64  1015  2019-04-02 22:01:30 
2690  206  160  63  1014  2019-04-02 23:01:32 
2691  201  151  63  1012  2019-04-03 00:01:33 
2692  201  145  63  1013  2019-04-03 01:01:33 
2693  196  140  63  1012  2019-04-03 02:01:37 
2694  194  136  62  1011  2019-04-03 03:01:33 
2695  191  133  62  1011  2019-04-03 04:01:31 
2696  191  130  62  1011  2019-04-03 05:01:33 
2697  186  127  62  1011  2019-04-03 06:01:31 
2698  181  125  61  1012  2019-04-03 07:01:33 
2699  176  130  62  1011  2019-04-03 08:01:31 
2700  187  143  63  1012  2019-04-03 09:01:33 
2701  191  161  63  1012  2019-04-03 10:01:31 
2702  196  171  62  1012  2019-04-03 11:01:33 
2703  204  196  62  1012  2019-04-03 12:01:31 
2704  211  201  57  1011  2019-04-03 13:01:33 
2705  216  228  62  1010  2019-04-03 14:01:31 
2706  221  231  62  1009  2019-04-03 15:01:29 
2707  216  231  61  1009  2019-04-03 16:01:32 
2708  221  223  60  1009  2019-04-03 17:01:30 
2709  221  214  60  1010  2019-04-03 18:01:32 
2710  217  197  65  1012  2019-04-03 19:01:30 
2711  216  190  66  1011  2019-04-03 20:01:33 
2712  221  181  64  1011  2019-04-03 21:01:31 
2713  216  171  63  1011  2019-04-03 22:01:33 
2714  216  166  63  1012  2019-04-03 23:01:31 
2715  211  162  63  1011  2019-04-04 00:01:30 
2716  210  161  63  1013  2019-04-04 01:01:32 
2717  207  156  63  1013  2019-04-04 02:01:30 
2718  206  156  63  1012  2019-04-04 03:01:32 
2719  204  154  63  1012  2019-04-04 04:01:30 
2720  201  156  63  1011  2019-04-04 05:01:32 
2721  201  156  63  1012  2019-04-04 06:01:30 
2722  201  161  65  1012  2019-04-04 07:01:32 
2723  201  166  66  1012  2019-04-04 08:01:30 
2724  201  166  67  1012  2019-04-04 09:01:33 
2725  201  166  71  1013  2019-04-04 10:01:31 
2726  202  166  72  1013  2019-04-04 11:01:33 
2727  203  170  73  1013  2019-04-04 12:01:31 
2728  205  166  72  1014  2019-04-04 13:01:30 
2729  205  176  72  1015  2019-04-04 14:01:32 
2730  206  191  73  1015  2019-04-04 15:01:30 
2731  206  196  72  1015  2019-04-04 16:01:32 
2732  206  186  72  1016  2019-04-04 17:01:31 
2733  206  177  71  1016  2019-04-04 18:01:33 
2734  206  176  72  1018  2019-04-04 19:01:31 
2735  205  166  72  1018  2019-04-04 20:01:33 
2736  206  161  73  1021  2019-04-04 21:01:31 
2737  206  161  72  1020  2019-04-04 22:01:30 
2738  201  161  71  1021  2019-04-04 23:01:32 
2739  200  158  70  1021  2019-04-05 00:01:30 
2740  196  158  67  1022  2019-04-05 01:01:32 
2741  194  155  66  1021  2019-04-05 02:01:31 
2742  191  145  66  1021  2019-04-05 03:01:33 
2743  189  145  66  1021  2019-04-05 04:01:31 
2744  186  145  65  1021  2019-04-05 05:01:33 
2745  186  145  66  1021  2019-04-05 06:01:31 
2746  186  145  66  1022  2019-04-05 07:01:33 
2747  186  151  66  1022  2019-04-05 08:01:31 
2748  191  156  66  1023  2019-04-05 09:01:33 
2749  191  166  67  1024  2019-04-05 10:01:31 
2750  191  171  67  1023  2019-04-05 11:01:29 
2751  196  176  70  1023  2019-04-05 12:01:32 
2752  201  185  70  1022  2019-04-05 13:01:30 
2753  201  186  71  1021  2019-04-05 14:01:32 
2754  201  191  67  1021  2019-04-05 15:01:30 
2755  205  189  66  1020  2019-04-05 16:01:32 
2756  206  181  64  1020  2019-04-05 17:01:30 
2757  203  171  64  1020  2019-04-05 18:01:33 
2758  201  164  65  1021  2019-04-05 19:01:31 
2759  201  161  65  1022  2019-04-05 20:01:33 
2760  201  159  65  1022  2019-04-05 21:01:31 
2761  201  156  65  1022  2019-04-05 22:01:33 
2762  201  152  65  1022  2019-04-05 23:01:32 
2763  196  145  65  1020  2019-04-06 00:01:30 
2764  195  145  65  1020  2019-04-06 01:01:32 
2765  191  140  65  1019  2019-04-06 02:01:30 
2766  188  135  64  1019  2019-04-06 03:01:32 
2767  186  135  64  1018  2019-04-06 04:01:33 
2768  186  135  64  1017  2019-04-06 05:01:32 
2769  181  130  64  1019  2019-04-06 06:01:30 
2770  179  126  64  1018  2019-04-06 07:01:32 
2771  176  130  65  1018  2019-04-06 08:01:30 
2772  181  145  66  1018  2019-04-06 09:01:32 
2773  185  156  67  1018  2019-04-06 10:01:30 
2774  191  172  66  1017  2019-04-06 11:01:32 
2775  196  181  70  1017  2019-04-06 12:01:30 
2776  196  192  71  1016  2019-04-06 13:01:32 
2777  201  202  71  1015  2019-04-06 14:01:31 
2778  206  206  70  1015  2019-04-06 15:01:33 
2779  211  206  67  1014  2019-04-06 16:01:31 
2780  210  196  67  1014  2019-04-06 17:01:33 
2781  211  186  70  1014  2019-04-06 18:01:32 
2782  211  179  71  1013  2019-04-06 19:01:30 
2783  211  176  71  1015  2019-04-06 20:01:32 
2784  211  171  71  1015  2019-04-06 21:01:30 
2785  210  171  70  1014  2019-04-06 22:01:33 
2786  208  169  70  1014  2019-04-06 23:01:31 
2787  203  166  67  1013  2019-04-07 00:01:33 
2788  203  166  67  1013  2019-04-07 01:01:31 
2789  202  161  67  1013  2019-04-07 02:01:34 
2790  201  156  67  1012  2019-04-07 03:01:32 
2791  196  151  67  1011  2019-04-07 04:01:30 
2792  196  151  67  1011  2019-04-07 05:01:32 
2793  196  156  67  1011  2019-04-07 06:01:30 
2794  196  156  67  1012  2019-04-07 07:01:32 
2795  196  164  67  1011  2019-04-07 08:01:30 
2796  196  171  70  1012  2019-04-07 09:01:32 
2797  200  182  70  1012  2019-04-07 10:01:30 
2798  202  194  70  1012  2019-04-07 11:01:33 
2799  206  198  72  1011  2019-04-07 12:01:31 
2800  210  207  75  1011  2019-04-07 13:01:33 
2801  213  216  77  1011  2019-04-07 14:01:31 
2802  216  216  76  1010  2019-04-07 15:01:34 
2803  219  216  75  1011  2019-04-07 16:01:32 
2804  221  206  74  1009  2019-04-07 17:01:30 
2805  222  201  75  1011  2019-04-07 18:01:32 
2806  221  189  75  1012  2019-04-07 19:01:31 
2807  221  184  75  1012  2019-04-07 20:01:33 
2808  221  181  75  1012  2019-04-07 21:01:31 
2809  216  176  74  1011  2019-04-07 22:01:30 
2810  216  171  73  1012  2019-04-07 23:01:32 
2811  211  166  72  1011  2019-04-08 00:01:30 
2812  211  166  72  1013  2019-04-08 01:01:32 
2813  206  164  72  1012  2019-04-08 02:01:30 
2814  206  161  71  1014  2019-04-08 03:01:33 
2815  204  156  71  1014  2019-04-08 04:01:31 
2816  201  154  71  1014  2019-04-08 05:01:33 
2817  197  147  70  1013  2019-04-08 06:01:31 
2818  197  145  71  1013  2019-04-08 07:01:33 
2819  196  151  70  1015  2019-04-08 08:01:31 
2820  201  161  71  1016  2019-04-08 09:01:34 
2821  204  171  72  1017  2019-04-08 10:01:32 
2822  206  185  72  1016  2019-04-08 11:01:30 
2823  207  201  74  1016  2019-04-08 12:01:32 
2824  214  231  75  1017  2019-04-08 13:01:30 
2825  214  236  74  1016  2019-04-08 14:01:33 
2826  219  241  75  1016  2019-04-08 15:01:32 
2827  217  231  75  1015  2019-04-08 16:01:30 
2828  221  222  75  1015  2019-04-08 17:01:32 
2829  221  215  100  1015  2019-04-08 18:01:31 
2830  223  206  102  1016  2019-04-08 19:01:33 
2831  223  205  103  1017  2019-04-08 20:01:32 
2832  226  201  103  1017  2019-04-08 21:01:30 
2833  221  201  101  1017  2019-04-08 22:01:32 
2834  220  196  100  1016  2019-04-08 23:01:32 
2835  217  191  100  1016  2019-04-09 00:01:31 
2836  221  190  77  1016  2019-04-09 01:01:33 
2837  218  186  77  1015  2019-04-09 02:01:31 
2838  216  186  76  1014  2019-04-09 03:01:33 
2839  216  183  76  1014  2019-04-09 04:01:32 
2840  214  181  76  1015  2019-04-09 05:01:30 
2841  212  181  76  1014  2019-04-09 06:01:32 
2842  211  179  76  1015  2019-04-09 07:01:30 
2843  211  181  77  1015  2019-04-09 08:01:33 
2844  214  189  77  1016  2019-04-09 09:01:32 
2845  216  198  77  1015  2019-04-09 10:01:30 
2846  220  209  100  1016  2019-04-09 11:01:32 
2847  221  218  100  1015  2019-04-09 12:01:31 
2848  225  226  101  1014  2019-04-09 12:43:16 
2849  226  255  101  1014  2019-04-09 14:01:31 
2850  231  251  77  1013  2019-04-09 15:01:30 
2851  231  245  76  1013  2019-04-09 16:01:33 
2852  236  236  75  1012  2019-04-09 17:01:31 
2853  235  226  74  1012  2019-04-09 18:01:34 
2854  231  217  74  1012  2019-04-09 19:01:32 
2855  230  211  74  1013  2019-04-09 20:01:30 
2856  229  206  74  1012  2019-04-09 21:01:33 
2857  229  201  74  1013  2019-04-09 22:01:32 
2858  226  197  74  1012  2019-04-09 23:01:30 
2859  225  191  73  1012  2019-04-10 00:01:32 
2860  221  187  73  1011  2019-04-10 01:01:31 
2861  221  186  73  1010  2019-04-10 02:01:33 
2862  221  181  73  1010  2019-04-10 03:01:32 
2863  217  181  73  1010  2019-04-10 04:01:35 
2864  216  176  72  1010  2019-04-10 05:01:33 
2865  215  171  72  1011  2019-04-10 06:01:31 
2866  211  166  72  1011  2019-04-10 07:01:34 
2867  202  166  72  1012  2019-04-10 08:01:32 
2868  211  179  73  1013  2019-04-10 09:01:30 
2869  216  196  74  1013  2019-04-10 10:01:33 
2870  221  220  73  1014  2019-04-10 11:01:31 
2871  222  231  74  1013  2019-04-10 12:01:34 
2872  226  245  76  1012  2019-04-10 13:01:32 
2873  231  261  74  1012  2019-04-10 14:01:31 
2874  234  272  73  1012  2019-04-10 15:01:33 
2875  242  282  72  1013  2019-04-10 16:01:32 
2876  244  271  66  1013  2019-04-10 17:01:30 
2877  241  246  70  1012  2019-04-10 18:01:33 
2878  239  229  70  1014  2019-04-10 19:01:31 
2879  236  221  71  1014  2019-04-10 20:01:34 
2880  230  201  70  1015  2019-04-10 21:01:32 
2881  228  192  70  1015  2019-04-10 22:01:31 
2882  229  187  70  1016  2019-04-10 23:01:33 
2883  229  181  70  1015  2019-04-11 00:01:32 
2884  225  176  70  1016  2019-04-11 01:01:30 
2885  221  171  67  1015  2019-04-11 02:01:33 
2886  221  168  67  1015  2019-04-11 03:01:31 
2887  217  166  67  1015  2019-04-11 04:01:34 
2888  216  169  67  1015  2019-04-11 05:01:32 
2889  216  175  67  1015  2019-04-11 06:01:30 
2890  217  171  70  1016  2019-04-11 07:01:33 
2891  216  173  71  1016  2019-04-11 08:01:31 
2892  215  186  72  1017  2019-04-11 09:01:33 
2893  221  206  72  1016  2019-04-11 10:01:32 
2894  221  212  72  1016  2019-04-11 11:01:30 
2895  226  226  73  1015  2019-04-11 12:01:33 
2896  226  236  73  1015  2019-04-11 13:01:31 
2897  228  236  73  1014  2019-04-11 14:01:33 
2898  231  235  71  1014  2019-04-11 15:01:32 
2899  235  229  71  1014  2019-04-11 16:01:30 
2900  236  217  71  1014  2019-04-11 17:01:33 
2901  233  206  71  1015  2019-04-11 18:01:31 
2902  231  199  71  1014  2019-04-11 19:01:33 
2903  231  196  72  1015  2019-04-11 20:01:32 
2904  232  196  72  1015  2019-04-11 21:01:30 
2905  231  193  72  1015  2019-04-11 22:01:33 
2906  230  192  72  1014  2019-04-11 23:01:31 
2907  226  191  71  1014  2019-04-12 00:01:33 
2908  226  191  71  1013  2019-04-12 01:01:32 
2909  226  191  72  1014  2019-04-12 02:01:30 
2910  222  187  72  1013  2019-04-12 03:01:33 
2911  221  186  72  1014  2019-04-12 04:01:31 
2912  221  186  72  1013  2019-04-12 05:01:33 
2913  221  186  72  1013  2019-04-12 06:01:32 
2914  221  187  72  1013  2019-04-12 07:01:34 
2915  216  186  73  1015  2019-04-12 08:01:32 
2916  221  190  73  1015  2019-04-12 09:01:30 
2917  214  191  74  1015  2019-04-12 10:01:33 
2918  214  197  74  1015  2019-04-12 11:01:31 
2919  219  211  74  1015  2019-04-12 12:01:34 
2920  220  216  74  1015  2019-04-12 13:01:32 
2921  223  232  75  1014  2019-04-12 14:01:30 
2922  229  237  75  1013  2019-04-12 15:01:33 
2923  228  231  75  1013  2019-04-12 16:01:31 
2924  231  229  76  1014  2019-04-12 17:01:34 
2925  231  216  76  1014  2019-04-12 18:01:32 
2926  230  213  76  1015  2019-04-12 19:01:31 
2927  229  209  76  1015  2019-04-12 20:01:33 
2928  231  206  76  1015  2019-04-12 21:01:32 
2929  228  201  75  1015  2019-04-12 22:01:34 
2930  228  201  75  1016  2019-04-12 23:01:33 
2931  226  201  74  1015  2019-04-13 00:01:31 
2932  226  197  74  1014  2019-04-13 01:01:34 
2933  225  186  74  1015  2019-04-13 02:01:32 
2934  221  184  74  1014  2019-04-13 03:01:34 
2935  221  181  74  1013  2019-04-13 04:01:33 
2936  221  181  73  1012  2019-04-13 05:01:31 
2937  218  182  73  1012  2019-04-13 06:01:33 
2938  216  185  73  1013  2019-04-13 07:01:32 
2939  218  187  73  1013  2019-04-13 08:01:34 
2940  217  191  74  1014  2019-04-13 09:01:32 
2941  217  194  74  1013  2019-04-13 10:01:30 
2942  216  191  73  1015  2019-04-13 11:01:33 
2943  216  190  73  1014  2019-04-13 12:01:31 
2944  218  196  73  1013  2019-04-13 13:01:33 
2945  219  195  70  1013  2019-04-13 14:01:32 
2946  221  196  70  1013  2019-04-13 15:01:34 
2947  216  193  67  1013  2019-04-13 16:01:32 
2948  217  193  64  1013  2019-04-13 17:01:31 
2949  216  191  65  1013  2019-04-13 18:01:33 
2950  216  184  65  1014  2019-04-13 19:01:31 
2951  214  181  66  1014  2019-04-13 20:01:34 
2952  211  171  65  1015  2019-04-13 21:01:32 
2953  211  166  65  1015  2019-04-13 22:01:34 
2954  207  161  65  1014  2019-04-13 23:01:32 
2955  206  156  65  1014  2019-04-14 00:01:31 
2956  201  147  65  1014  2019-04-14 01:01:33 
2957  200  151  65  1013  2019-04-14 02:01:31 
2958  201  155  65  1013  2019-04-14 03:01:34 
2959  196  152  65  1012  2019-04-14 04:01:32 
2960  198  154  65  1012  2019-04-14 05:01:34 
2961  196  153  66  1013  2019-04-14 06:01:32 
2962  194  151  70  1013  2019-04-14 07:01:30 
2963  196  145  70  1014  2019-04-14 08:01:33 
2964  196  151  70  1015  2019-04-14 09:01:31 
2965  196  156  70  1015  2019-04-14 10:01:33 
2966  196  156  70  1017  2019-04-14 11:01:32 
2967  199  173  70  1016  2019-04-14 12:01:34 
2968  200  176  70  1016  2019-04-14 13:01:32 
2969  201  172  67  1016  2019-04-14 14:01:30 
2970  200  172  66  1017  2019-04-14 15:01:33 
2971  201  181  64  1017  2019-04-14 16:01:31 
2972  201  181  63  1016  2019-04-14 17:01:33 
2973  205  166  64  1017  2019-04-14 18:01:31 
2974  193  161  65  1019  2019-04-14 19:01:34 
2975  184  151  65  1018  2019-04-14 20:01:32 
2976  196  140  65  1019  2019-04-14 21:01:34 
2977  191  134  64  1021  2019-04-14 22:01:32 
2978  191  135  64  1021  2019-04-14 23:01:34 
2979  191  140  65  1021  2019-04-15 00:01:33 
2980  187  145  65  1020  2019-04-15 01:01:31 
2981  186  140  66  1020  2019-04-15 02:01:33 
2982  186  133  66  1020  2019-04-15 03:01:31 
2983  181  130  66  1020  2019-04-15 04:01:33 
2984  181  128  66  1020  2019-04-15 05:01:31 
2985  176  125  66  1021  2019-04-15 06:01:33 
2986  181  137  67  1020  2019-04-15 07:01:31 
2987  181  156  71  1021  2019-04-15 09:01:33 
2988  181  166  70  1020  2019-04-15 10:01:35 
2989  186  176  70  1020  2019-04-15 11:01:32 
2990  186  186  67  1020  2019-04-15 12:01:31 
2991  188  184  67  1020  2019-04-15 13:01:33 
2992  191  186  66  1020  2019-04-15 14:01:31 
2993  196  191  64  1019  2019-04-15 15:01:34 
2994  194  191  63  1019  2019-04-15 16:01:32 
2995  195  186  63  1019  2019-04-15 17:01:34 
2996  193  169  63  1019  2019-04-15 18:01:32 
2997  196  160  66  1019  2019-04-15 19:01:35 
2998  196  156  65  1020  2019-04-15 20:01:32 
2999  191  150  64  1020  2019-04-15 21:01:30 
3000  191  140  65  1020  2019-04-15 22:01:33 
3001  188  135  64  1020  2019-04-15 23:01:31 
3002  181  125  64  1020  2019-04-16 00:01:33 
3003  181  125  64  1020  2019-04-16 01:01:31 
3004  181  130  65  1020  2019-04-16 02:01:33 
3005  181  130  65  1020  2019-04-16 03:01:31 
3006  177  134  65  1019  2019-04-16 04:01:34 
3007  177  135  66  1019  2019-04-16 05:01:31 
3008  180  140  66  1019  2019-04-16 06:01:34 
3009  178  135  67  1019  2019-04-16 07:01:32 
3010  171  130  70  1020  2019-04-16 08:01:34 
3011  179  141  71  1021  2019-04-16 09:01:32 
3012  181  171  72  1020  2019-04-16 10:01:35 
3013  182  186  71  1021  2019-04-16 11:01:33 
3014  186  196  72  1021  2019-04-16 12:01:31 
3015  191  201  73  1021  2019-04-16 13:01:33 
3016  192  206  73  1020  2019-04-16 14:01:31 
3017  196  200  71  1021  2019-04-16 15:01:33 
3018  197  186  66  1021  2019-04-16 16:01:32 
3019  199  181  65  1020  2019-04-16 17:01:34 
3020  196  174  66  1021  2019-04-16 18:01:32 
3021  197  169  67  1022  2019-04-16 19:01:34 
3022  196  162  66  1021  2019-04-16 20:01:33 
3023  196  164  66  1021  2019-04-16 21:01:31 
3024  195  159  66  1021  2019-04-16 22:01:33 
3025  191  156  65  1021  2019-04-16 23:01:31 
3026  191  156  65  1020  2019-04-17 00:01:33 
3027  191  156  65  1020  2019-04-17 01:01:31 
3028  188  151  65  1020  2019-04-17 02:01:34 
3029  186  152  66  1019  2019-04-17 03:01:32 
3030  186  156  66  1018  2019-04-17 04:01:34 
3031  186  151  66  1018  2019-04-17 05:01:32 
3032  186  151  67  1018  2019-04-17 06:01:31 
3033  184  145  67  1019  2019-04-17 07:01:33 
3034  182  149  70  1019  2019-04-17 08:01:32 
3035  186  156  70  1019  2019-04-17 09:01:34 
3036  186  171  67  1019  2019-04-17 10:01:32 
3037  188  181  67  1020  2019-04-17 11:01:30 
3038  191  191  70  1019  2019-04-17 12:01:33 
3039  193  206  67  1018  2019-04-17 13:01:31 
3040  196  204  70  1018  2019-04-17 14:01:33 
3041  199  204  67  1017  2019-04-17 15:01:31 
3042  198  191  66  1017  2019-04-17 16:01:34 
3043  201  181  66  1018  2019-04-17 17:01:32 
3044  198  168  66  1018  2019-04-17 18:01:34 
3045  196  161  67  1018  2019-04-17 19:01:33 
3046  196  161  67  1019  2019-04-17 20:01:31 
3047  196  156  70  1019  2019-04-17 21:01:33 
3048  196  156  67  1018  2019-04-17 22:01:31 
3049  195  151  67  1020  2019-04-17 23:01:34 
3050  189  151  67  1020  2019-04-18 00:01:32 
3051  188  146  66  1020  2019-04-18 01:01:34 
3052  186  145  66  1020  2019-04-18 02:01:32 
3053  181  140  67  1019  2019-04-18 03:01:34 
3054  183  137  67  1019  2019-04-18 04:01:33 
3055  180  130  66  1018  2019-04-18 05:01:31 
3056  176  125  66  1018  2019-04-18 06:01:33 
3057  175  115  66  1017  2019-04-18 07:01:31 
3058  173  110  66  1018  2019-04-18 08:01:33 
3059  178  131  67  1018  2019-04-18 09:01:31 
3060  181  166  66  1019  2019-04-18 10:01:34 
3061  181  179  67  1019  2019-04-18 11:01:32 
3062  186  199  70  1017  2019-04-18 12:01:34 
3063  187  211  71  1016  2019-04-18 13:01:32 
3064  191  216  71  1014  2019-04-18 14:01:34 
3065  192  226  70  1015  2019-04-18 15:01:32 
3066  200  230  70  1015  2019-04-18 16:01:31 
3067  201  226  67  1014  2019-04-18 17:01:33 
3068  203  206  71  1014  2019-04-18 18:01:31 
3069  203  196  72  1014  2019-04-18 19:01:34 
3070  203  181  72  1014  2019-04-18 20:01:32 
3071  201  166  71  1013  2019-04-18 21:01:34 
3072  196  156  70  1014  2019-04-18 22:01:32 
3073  194  145  67  1013  2019-04-18 23:01:35 
3074  191  135  66  1013  2019-04-19 00:01:34 
3075  186  130  66  1012  2019-04-19 01:01:32 
3076  182  125  65  1012  2019-04-19 02:01:34 
3077  183  125  65  1011  2019-04-19 03:01:32 
3078  181  125  65  1011  2019-04-19 04:01:35 
3079  178  120  64  1011  2019-04-19 05:01:32 
3080  176  118  64  1010  2019-04-19 06:01:35 
3081  175  115  64  1011  2019-04-19 07:01:33 
3082  174  115  64  1011  2019-04-19 08:01:31 
3083  176  140  65  1013  2019-04-19 09:01:33 
3084  181  171  70  1012  2019-04-19 10:01:31 
3085  186  191  71  1012  2019-04-19 11:01:33 
3086  191  201  62  1013  2019-04-19 12:01:31 
3087  192  207  75  1014  2019-04-19 13:01:34 
3088  195  201  74  1012  2019-04-19 14:01:32 
3089  196  211  73  1013  2019-04-19 15:01:34 
3090  201  221  74  1013  2019-04-19 16:01:32 
3091  201  217  74  1014  2019-04-19 17:01:31 
3092  206  207  76  1014  2019-04-19 18:01:33 
3093  204  191  75  1014  2019-04-19 19:01:31 
3094  201  186  75  1014  2019-04-19 20:01:34 
3095  201  176  74  1015  2019-04-19 21:01:32 
3096  197  171  74  1016  2019-04-19 22:01:34 
3097  198  170  74  1017  2019-04-19 23:01:33 
3098  196  166  74  1017  2019-04-20 00:01:31 
3099  196  166  74  1017  2019-04-20 01:01:33 
3100  196  162  74  1018  2019-04-20 02:01:34 
3101  194  161  74  1018  2019-04-20 03:01:34 
3102  191  156  74  1017  2019-04-20 04:01:32 
3103  191  154  73  1018  2019-04-20 05:01:34 
3104  190  156  73  1019  2019-04-20 06:01:32 
3105  187  156  73  1019  2019-04-20 07:01:35 
3106  190  156  74  1020  2019-04-20 08:01:33 
3107  191  161  74  1021  2019-04-20 09:01:31 
3108  193  176  75  1021  2019-04-20 10:01:33 
3109  196  181  77  1022  2019-04-20 11:01:31 
3110  198  196  77  1022  2019-04-20 12:01:34 
3111  201  201  76  1021  2019-04-20 13:01:32 
3112  205  199  76  1021  2019-04-20 14:01:34 
3113  206  207  74  1021  2019-04-20 15:01:33 
3114  207  191  75  1020  2019-04-20 16:01:31 
3115  206  186  74  1022  2019-04-20 17:01:33 
3116  206  181  73  1022  2019-04-20 18:01:31 
3117  206  176  74  1022  2019-04-20 19:01:34 
3118  206  171  74  1022  2019-04-20 20:01:32 
3119  202  166  73  1023  2019-04-20 21:01:34 
3120  201  161  73  1023  2019-04-20 22:01:33 
3121  200  156  73  1023  2019-04-20 23:01:31 
3122  199  153  72  1023  2019-04-21 00:01:33 
3123  195  151  72  1023  2019-04-21 01:01:31 
3124  196  151  71  1022  2019-04-21 02:01:34 
3125  191  151  71  1023  2019-04-21 03:01:32 
3126  191  151  71  1023  2019-04-21 04:01:34 
3127  191  148  71  1022  2019-04-21 05:01:32 
3128  187  144  71  1023  2019-04-21 06:01:34 
3129  186  145  71  1022  2019-04-21 07:01:32 
3130  186  150  72  1023  2019-04-21 08:01:34 
3131  186  161  72  1023  2019-04-21 09:01:33 
3132  186  171  72  1023  2019-04-21 10:01:35 
3133  191  181  73  1024  2019-04-21 11:01:33 
3134  194  191  73  1023  2019-04-21 12:01:31 
3135  196  196  74  1023  2019-04-21 13:01:33 
3136  200  197  74  1023  2019-04-21 14:01:32 
3137  201  201  73  1021  2019-04-21 15:01:34 
3138  201  196  73  1022  2019-04-21 16:01:32 
3139  206  184  73  1022  2019-04-21 17:01:34 
3140  201  171  72  1021  2019-04-21 18:01:33 
3141  201  166  72  1023  2019-04-21 19:01:31 
3142  201  166  72  1023  2019-04-21 20:01:33 
3143  201  171  71  1023  2019-04-21 21:01:32 
3144  201  171  70  1024  2019-04-21 22:01:34 
3145  196  171  70  1024  2019-04-21 23:01:32 
3146  196  171  70  1024  2019-04-22 00:01:34 
3147  193  171  67  1024  2019-04-22 01:01:32 
3148  193  171  67  1024  2019-04-22 02:01:35 
3149  191  171  67  1023  2019-04-22 03:01:33 
3150  191  166  70  1024  2019-04-22 04:01:31 
3151  191  166  70  1023  2019-04-22 05:01:33 
3152  191  163  70  1024  2019-04-22 06:01:31 
3153  190  164  71  1025  2019-04-22 07:01:33 
3154  186  166  71  1024  2019-04-22 08:01:31 
3155  191  178  71  1025  2019-04-22 09:01:33 
3156  191  191  72  1025  2019-04-22 10:01:32 
3157  196  201  72  1024  2019-04-22 11:01:34 
3158  201  215  73  1025  2019-04-22 12:01:32 
3159  204  221  72  1024  2019-04-22 13:01:34 
3160  208  221  74  1023  2019-04-22 14:01:33 
3161  211  217  74  1021  2019-04-22 15:01:31 
3162  210  213  72  1021  2019-04-22 16:01:33 
3163  211  219  71  1021  2019-04-22 17:01:32 
3164  211  199  71  1021  2019-04-22 18:01:34 
3165  211  187  72  1022  2019-04-22 19:01:32 
3166  211  186  72  1022  2019-04-22 20:01:35 
3167  210  181  71  1022  2019-04-22 21:01:33 
3168  208  182  70  1023  2019-04-22 22:01:31 
3169  206  181  70  1024  2019-04-22 23:01:34 
3170  203  178  70  1024  2019-04-23 00:01:32 
3171  206  181  71  1023  2019-04-23 01:01:34 
3172  203  171  71  1023  2019-04-23 02:01:33 
3173  201  176  71  1023  2019-04-23 03:01:31 
3174  201  169  71  1022  2019-04-23 04:01:33 
3175  201  172  71  1022  2019-04-23 05:01:31 
3176  196  166  71  1021  2019-04-23 06:01:34 
3177  196  166  72  1022  2019-04-23 07:01:32 
3178  196  176  72  1022  2019-04-23 08:01:34 
3179  199  186  72  1022  2019-04-23 09:01:32 
3180  201  196  73  1023  2019-04-23 10:01:34 
3181  204  206  74  1022  2019-04-23 11:01:33 
3182  206  215  74  1020  2019-04-23 12:01:31 
3183  206  221  74  1020  2019-04-23 13:01:33 
3184  211  226  74  1020  2019-04-23 14:01:32 
3185  212  209  73  1018  2019-04-23 15:01:34 
3186  211  191  72  1019  2019-04-23 16:01:33 
3187  212  196  72  1019  2019-04-23 17:01:35 
3188  211  181  72  1019  2019-04-23 18:01:33 
3189  211  186  72  1019  2019-04-23 19:01:31 
3190  211  175  72  1020  2019-04-23 20:01:34 
3191  210  171  72  1020  2019-04-23 21:01:32 
3192  211  176  71  1020  2019-04-23 22:01:34 
3193  208  176  71  1019  2019-04-23 23:01:32 
3194  206  176  71  1019  2019-04-24 00:01:36 
3195  203  177  71  1019  2019-04-24 01:01:33 
3196  204  170  71  1020  2019-04-24 02:01:35 
3197  202  166  71  1019  2019-04-24 03:01:33 
3198  201  161  72  1018  2019-04-24 04:01:31 
3199  201  161  72  1018  2019-04-24 05:01:33 
3200  199  161  73  1017  2019-04-24 06:01:32 
3201  196  161  73  1017  2019-04-24 07:01:34 
3202  198  166  74  1018  2019-04-24 08:01:32 
3203  197  166  75  1018  2019-04-24 09:01:35 
3204  199  176  75  1018  2019-04-24 10:01:33 
3205  201  181  75  1018  2019-04-24 11:01:31 
3206  203  187  101  1017  2019-04-24 12:01:33 
3207  206  196  102  1016  2019-04-24 13:01:32 
3208  208  201  101  1016  2019-04-24 14:01:34 
3209  211  206  101  1016  2019-04-24 15:01:32 
3210  211  201  100  1016  2019-04-24 16:01:35 
3211  211  201  77  1015  2019-04-24 17:01:33 
3212  211  191  77  1016  2019-04-24 18:01:32 
3213  211  181  77  1017  2019-04-24 20:01:32 
3214  211  176  77  1017  2019-04-24 21:01:35 
3215  211  173  77  1017  2019-04-24 22:01:33 
3216  211  167  76  1016  2019-04-24 23:01:32 
3217  206  161  75  1016  2019-04-25 00:01:34 
3218  205  156  74  1017  2019-04-25 01:01:32 
3219  201  151  74  1016  2019-04-25 02:01:39 
3220  201  145  74  1016  2019-04-25 03:01:33 
3221  196  145  73  1015  2019-04-25 04:01:31 
3222  196  138  73  1016  2019-04-25 05:01:33 
3223  192  135  73  1016  2019-04-25 06:01:31 
3224  191  131  73  1016  2019-04-25 07:01:34 
3225  190  130  73  1017  2019-04-25 08:01:32 
3226  188  145  74  1016  2019-04-25 09:01:34 
3227  191  168  74  1017  2019-04-25 10:01:32 
3228  197  196  77  1016  2019-04-25 11:01:35 
3229  206  216  102  1016  2019-04-25 12:01:33 
3230  211  231  100  1015  2019-04-25 13:01:31 
3231  221  247  74  1014  2019-04-25 14:01:34 
3232  221  253  73  1015  2019-04-25 15:01:32 
3233  224  250  72  1015  2019-04-25 16:01:35 
3234  225  247  72  1015  2019-04-25 17:01:33 
3235  221  235  72  1015  2019-04-25 18:01:31 
3236  221  220  72  1016  2019-04-25 19:01:34 
3237  221  201  73  1018  2019-04-25 20:01:32 
3238  217  191  73  1017  2019-04-25 21:01:34 
3239  216  186  73  1018  2019-04-25 22:01:33 
3240  211  183  72  1017  2019-04-25 23:01:35 
3241  211  176  72  1017  2019-04-26 00:01:33 
3242  211  171  72  1017  2019-04-26 01:01:32 
3243  206  166  72  1017  2019-04-26 03:01:32 
3244  206  165  72  1017  2019-04-26 04:01:35 
3245  206  161  72  1016  2019-04-26 05:01:33 
3246  201  161  72  1016  2019-04-26 06:01:35 
3247  201  156  73  1017  2019-04-26 07:01:33 
3248  196  156  73  1017  2019-04-26 08:01:31 
3249  197  176  73  1018  2019-04-26 09:01:34 
3250  201  191  73  1018  2019-04-26 10:01:32 
3251  204  201  73  1018  2019-04-26 11:01:34 
3252  207  211  74  1017  2019-04-26 12:01:33 
3253  210  217  74  1018  2019-04-26 13:01:35 
3254  216  224  74  1017  2019-04-26 14:01:33 
3255  216  226  73  1017  2019-04-26 15:01:32 
3256  219  221  73  1017  2019-04-26 16:01:34 
3257  219  212  72  1017  2019-04-26 17:01:32 
3258  216  201  72  1017  2019-04-26 18:01:35 
3259  216  192  72  1017  2019-04-26 19:01:33 
3260  212  190  72  1018  2019-04-26 20:01:31 
3261  212  185  73  1017  2019-04-26 21:01:34 
3262  211  183  73  1016  2019-04-26 22:01:32 
3263  211  176  74  1016  2019-04-26 23:01:35 
3264  211  176  73  1016  2019-04-27 00:01:34 
3265  206  171  72  1016  2019-04-27 01:01:32 
3266  206  166  72  1016  2019-04-27 02:01:34 
3267  206  166  72  1016  2019-04-27 03:01:32 
3268  201  161  72  1015  2019-04-27 04:01:35 
3269  202  161  72  1015  2019-04-27 05:01:33 
3270  201  156  72  1016  2019-04-27 06:01:35 
3271  199  156  72  1016  2019-04-27 07:01:33 
3272  196  156  72  1017  2019-04-27 08:01:31 
3273  199  166  73  1017  2019-04-27 09:01:34 
3274  200  172  73  1017  2019-04-27 10:01:32 
3275  201  188  73  1017  2019-04-27 11:01:34 
3276  201  196  73  1017  2019-04-27 12:01:32 
3277  206  205  73  1016  2019-04-27 13:01:35 
3278  209  211  73  1015  2019-04-27 14:01:33 
3279  211  208  73  1014  2019-04-27 15:01:31 
3280  213  211  73  1015  2019-04-27 16:01:34 
3281  210  181  73  1015  2019-04-27 19:01:33 
3282  206  178  73  1015  2019-04-27 20:01:35 
3283  211  175  74  1015  2019-04-27 21:01:33 
3284  203  151  72  1014  2019-04-28 01:01:32 
3285  201  142  72  1013  2019-04-28 02:01:34 
3286  196  135  71  1013  2019-04-28 03:01:32 
3287  196  131  71  1013  2019-04-28 04:01:34 
3288  189  120  70  1013  2019-04-28 06:01:34 
3289  186  115  70  1013  2019-04-28 07:01:32 
3290  181  110  70  1014  2019-04-28 08:01:35 
3291  184  130  71  1014  2019-04-28 09:01:33 
3292  190  176  74  1014  2019-04-28 11:01:33 
3293  194  196  75  1012  2019-04-28 12:01:31 
3294  201  222  77  1013  2019-04-28 13:01:35 
3295  208  231  77  1012  2019-04-28 14:01:33 
3296  209  211  73  1012  2019-04-28 16:01:34 
3297  209  205  73  1013  2019-04-28 17:01:32 
3298  209  176  73  1014  2019-04-28 18:01:34 
3299  206  162  74  1014  2019-04-28 21:01:34 
3300  206  158  75  1014  2019-04-28 22:01:32 
3301  206  156  74  1013  2019-04-28 23:01:34 
3302  201  151  73  1014  2019-04-29 00:01:33 
3303  201  151  73  1014  2019-04-29 01:01:35 
3304  199  145  73  1014  2019-04-29 02:01:34 
3305  196  140  73  1014  2019-04-29 03:01:32 
3306  196  140  72  1015  2019-04-29 04:01:34 
3307  196  140  72  1014  2019-04-29 05:01:32 
3308  191  135  72  1015  2019-04-29 08:01:32 
3309  187  135  72  1014  2019-04-29 09:01:34 
3310  191  143  72  1014  2019-04-29 10:01:32 
3311  192  156  72  1014  2019-04-29 11:01:34 
3312  196  181  73  1013  2019-04-29 12:01:32 
3313  200  206  73  1014  2019-04-29 13:01:35 
3314  203  212  72  1013  2019-04-29 14:01:33 
3315  206  213  72  1013  2019-04-29 15:01:35 
3316  206  207  71  1013  2019-04-29 16:01:33 
3317  207  204  70  1012  2019-04-29 17:01:32 
3318  206  196  71  1013  2019-04-29 18:01:34 
3319  206  181  70  1013  2019-04-29 19:01:32 
3320  204  177  72  1013  2019-04-29 20:01:34 
3321  206  176  73  1014  2019-04-29 21:01:33 
3322  206  171  73  1013  2019-04-29 22:01:35 
3323  203  166  72  1013  2019-04-29 23:01:33 
3324  201  166  72  1012  2019-04-30 00:01:31 
3325  201  161  72  1013  2019-04-30 01:01:34 
3326  198  156  72  1012  2019-04-30 02:01:32 
3327  196  155  72  1012  2019-04-30 03:01:34 
3328  194  145  72  1012  2019-04-30 04:01:32 
3329  192  140  71  1011  2019-04-30 05:01:34 
3330  191  151  72  1013  2019-04-30 06:01:33 
3331  191  156  72  1014  2019-04-30 07:01:32 
3332  191  156  74  1014  2019-04-30 08:01:34 
3333  191  161  74  1014  2019-04-30 09:01:32 
3334  192  164  74  1015  2019-04-30 10:01:35 
3335  194  170  76  1017  2019-04-30 11:01:33 
3336  195  175  77  1016  2019-04-30 12:01:35 
3337  196  176  77  1015  2019-04-30 13:01:33 
3338  196  181  77  1016  2019-04-30 14:01:32 
3339  198  181  77  1017  2019-04-30 15:01:34 
3340  199  188  77  1017  2019-04-30 16:01:32 
3341  200  191  77  1018  2019-04-30 17:01:34 
3342  201  186  100  1018  2019-04-30 18:01:33 
3343  199  181  100  1018  2019-04-30 19:01:35 
3344  201  176  101  1018  2019-04-30 20:01:33 
3345  201  171  101  1019  2019-04-30 21:01:31 
3346  201  171  100  1020  2019-04-30 22:01:34 
3347  196  166  77  1019  2019-04-30 23:01:32 
3348  198  166  77  1020  2019-05-01 00:01:34 
3349  196  163  76  1019  2019-05-01 01:01:33 
3350  196  158  76  1019  2019-05-01 02:01:35 
3351  194  152  76  1020  2019-05-01 03:01:33 
3352  191  151  76  1019  2019-05-01 04:01:35 
3353  191  155  76  1019  2019-05-01 05:01:33 
3354  189  151  76  1020  2019-05-01 06:01:36 
3355  186  145  76  1020  2019-05-01 07:01:34 
3356  186  143  76  1019  2019-05-01 08:01:32 
3357  186  145  76  1018  2019-05-01 09:01:34 
3358  186  156  100  1018  2019-05-01 10:01:32 
3359  191  171  101  1018  2019-05-01 11:01:34 
3360  194  186  102  1017  2019-05-01 12:01:32 
3361  196  201  102  1015  2019-05-01 13:01:35 
3362  197  209  102  1014  2019-05-01 14:01:33 
3363  202  216  77  1014  2019-05-01 15:01:36 
3364  206  222  74  1014  2019-05-01 16:01:34 
3365  206  215  75  1014  2019-05-01 17:01:32 
3366  201  201  76  1013  2019-05-01 18:01:34 
3367  201  181  77  1014  2019-05-01 19:01:33 
3368  202  171  77  1015  2019-05-01 20:01:35 
3369  201  161  75  1013  2019-05-01 21:01:33 
3370  197  158  75  1013  2019-05-01 22:01:36 
3371  196  151  75  1013  2019-05-01 23:01:34 
3372  196  151  75  1012  2019-05-02 00:01:32 
3373  191  150  74  1012  2019-05-02 01:01:34 
3374  191  141  74  1011  2019-05-02 02:01:32 
3375  190  135  74  1011  2019-05-02 03:01:34 
3376  188  130  74  1012  2019-05-02 04:01:33 
3377  188  128  73  1012  2019-05-02 05:01:35 
3378  185  125  73  1012  2019-05-02 06:01:33 
3379  183  128  73  1011  2019-05-02 07:01:35 
3380  181  132  74  1012  2019-05-02 08:01:33 
3381  181  149  75  1012  2019-05-02 09:01:35 
3382  181  151  75  1014  2019-05-02 10:01:33 
3383  186  160  75  1014  2019-05-02 11:01:32 
3384  185  166  76  1012  2019-05-02 12:01:34 
3385  186  171  76  1014  2019-05-02 13:01:32 
3386  190  176  76  1013  2019-05-02 14:01:34 
3387  191  191  101  1012  2019-05-02 15:01:32 
3388  195  188  100  1013  2019-05-02 16:01:35 
3389  196  186  100  1013  2019-05-02 17:01:33 
3390  196  181  100  1013  2019-05-02 18:01:35 
3391  196  180  100  1014  2019-05-02 19:01:33 
3392  195  181  102  1014  2019-05-02 20:01:35 
3393  196  180  103  1015  2019-05-02 21:01:34 
3394  196  176  103  1016  2019-05-02 22:01:32 
3395  196  171  103  1016  2019-05-02 23:01:34 
3396  196  169  102  1016  2019-05-03 00:01:32 
3397  193  167  102  1017  2019-05-03 01:01:35 
3398  192  166  101  1017  2019-05-03 02:01:33 
3399  191  161  101  1016  2019-05-03 03:01:35 
3400  191  159  100  1017  2019-05-03 04:01:34 
3401  191  156  100  1017  2019-05-03 05:01:32 
3402  186  151  100  1019  2019-05-03 06:01:34 
3403  188  151  77  1019  2019-05-03 07:01:32 
3404  188  151  77  1019  2019-05-03 08:01:34 
3405  186  156  76  1019  2019-05-03 09:01:32 
3406  186  161  74  1020  2019-05-03 10:01:35 
3407  189  166  73  1020  2019-05-03 11:01:33 
3408  191  171  73  1021  2019-05-03 12:01:35 
3409  192  182  72  1020  2019-05-03 13:01:33 
3410  195  186  72  1020  2019-05-03 14:01:35 
3411  196  196  72  1019  2019-05-03 15:01:33 
3412  201  196  66  1019  2019-05-03 16:01:32 
3413  201  191  67  1019  2019-05-03 17:01:34 
3414  201  181  67  1020  2019-05-03 18:01:32 
3415  196  176  67  1021  2019-05-03 19:01:34 
3416  196  176  70  1021  2019-05-03 20:01:33 
3417  196  170  73  1022  2019-05-03 21:01:35 
3418  196  158  73  1023  2019-05-03 22:01:33 
3419  194  152  72  1022  2019-05-03 23:01:35 
3420  191  141  72  1022  2019-05-04 00:01:33 
3421  191  140  71  1022  2019-05-04 01:01:36 
3422  186  130  70  1021  2019-05-04 02:01:34 
3423  185  125  70  1022  2019-05-04 03:01:32 
3424  181  120  70  1022  2019-05-04 04:01:34 
3425  181  125  70  1023  2019-05-04 05:01:32 
3426  181  137  70  1022  2019-05-04 06:01:34 
3427  181  140  71  1022  2019-05-04 07:01:32 
3428  180  140  71  1023  2019-05-04 08:01:34 
3429  181  151  72  1023  2019-05-04 09:01:33 
3430  181  156  71  1024  2019-05-04 10:01:35 
3431  181  165  71  1024  2019-05-04 11:01:33 
3432  181  166  70  1022  2019-05-04 12:01:35 
3433  183  166  70  1022  2019-05-04 13:01:34 
3434  186  166  66  1020  2019-05-04 14:01:32 
3435  186  170  66  1021  2019-05-04 15:01:34 
3436  187  166  66  1020  2019-05-04 16:01:32 
3437  187  156  66  1020  2019-05-04 17:01:34 
3438  186  151  70  1020  2019-05-04 18:01:32 
3439  186  148  70  1020  2019-05-04 19:01:34 
3440  186  145  70  1019  2019-05-04 20:01:33 
3441  181  141  70  1019  2019-05-04 21:01:35 
3442  181  140  70  1019  2019-05-04 22:01:33 
3443  181  140  70  1019  2019-05-04 23:01:35 
3444  178  133  70  1018  2019-05-05 00:01:33 
3445  176  130  67  1017  2019-05-05 01:01:35 
3446  176  130  67  1017  2019-05-05 02:01:34 
3447  171  125  67  1016  2019-05-05 03:01:32 
3448  171  120  67  1015  2019-05-05 04:01:34 
3449  168  115  67  1015  2019-05-05 05:01:32 
3450  166  111  67  1015  2019-05-05 06:01:34 
3451  166  109  67  1014  2019-05-05 07:01:32 
3452  161  105  67  1014  2019-05-05 08:01:34 
3453  162  115  67  1014  2019-05-05 09:01:32 
3454  166  140  70  1015  2019-05-05 10:01:35 
3455  167  162  71  1015  2019-05-05 11:01:32 
3456  176  188  72  1014  2019-05-05 12:01:35 
3457  181  196  72  1013  2019-05-05 13:01:33 
3458  183  201  73  1013  2019-05-05 14:01:35 
3459  184  201  73  1013  2019-05-05 15:01:33 
3460  188  196  74  1013  2019-05-05 16:01:35 
3461  186  188  74  1013  2019-05-05 17:01:34 
3462  188  186  74  1013  2019-05-05 18:01:32 
3463  186  176  74  1014  2019-05-05 19:01:34 
3464  186  166  75  1014  2019-05-05 20:01:32 
3465  186  163  75  1014  2019-05-05 21:01:34 
3466  186  161  74  1014  2019-05-05 22:01:32 
3467  186  161  73  1014  2019-05-05 23:01:35 
3468  185  156  73  1014  2019-05-06 00:01:33 
3469  181  151  72  1014  2019-05-06 01:01:35 
3470  181  145  72  1015  2019-05-06 02:01:34 
3471  176  137  72  1014  2019-05-06 03:01:36 
3472  176  130  71  1014  2019-05-06 04:01:34 
3473  176  125  71  1015  2019-05-06 05:01:32 
3474  171  120  71  1015  2019-05-06 06:01:35 
3475  167  116  71  1015  2019-05-06 07:01:32 
3476  170  118  71  1015  2019-05-06 08:01:35 
3477  171  125  71  1016  2019-05-06 09:01:33 
3478  171  151  72  1016  2019-05-06 10:01:35 
3479  176  166  72  1017  2019-05-06 11:01:33 
3480  180  185  72  1016  2019-05-06 12:01:35 
3481  182  196  73  1017  2019-05-06 13:01:33 
3482  186  206  74  1016  2019-05-06 14:01:36 
3483  187  211  74  1016  2019-05-06 15:01:34 
3484  191  205  70  1016  2019-05-06 16:01:32 
3485  191  201  67  1017  2019-05-06 17:01:34 
3486  191  191  74  1017  2019-05-06 18:01:32 
3487  193  186  73  1018  2019-05-06 19:01:35 
3488  194  181  74  1019  2019-05-06 20:01:33 
3489  191  173  73  1019  2019-05-06 21:01:35 
3490  191  165  73  1020  2019-05-06 22:01:33 
3491  191  156  73  1020  2019-05-06 23:01:36 
3492  186  145  72  1020  2019-05-07 00:01:34 
3493  183  140  72  1019  2019-05-07 01:01:32 
3494  181  130  71  1020  2019-05-07 02:01:34 
3495  181  125  71  1020  2019-05-07 03:01:32 
3496  177  128  71  1019  2019-05-07 04:01:34 
3497  176  130  71  1019  2019-05-07 05:01:32 
3498  176  130  72  1020  2019-05-07 06:01:34 
3499  174  125  72  1019  2019-05-07 07:01:32 
3500  172  125  72  1018  2019-05-07 08:01:35 
3501  175  130  73  1019  2019-05-07 09:01:33 
3502  176  150  73  1019  2019-05-07 10:01:35 
3503  176  158  74  1018  2019-05-07 11:01:33 
3504  181  167  100  1018  2019-05-07 12:01:36 
3505  184  186  75  1017  2019-05-07 13:01:34 
3506  186  196  74  1016  2019-05-07 14:01:32 
3507  189  200  72  1015  2019-05-07 15:01:34 
3508  190  190  71  1015  2019-05-07 16:01:32 
3509  187  186  71  1014  2019-05-07 17:01:35 
3510  191  175  71  1015  2019-05-07 18:01:33 
3511  191  166  71  1015  2019-05-07 19:01:35 
3512  191  161  71  1016  2019-05-07 20:01:33 
3513  189  156  71  1015  2019-05-07 21:01:35 
3514  191  151  71  1016  2019-05-07 22:01:33 
3515  186  140  71  1016  2019-05-07 23:01:36 
3516  184  135  71  1016  2019-05-08 00:01:34 
3517  179  130  70  1017  2019-05-08 01:01:36 
3518  177  127  70  1016  2019-05-08 02:01:34 
3519  176  130  70  1017  2019-05-08 03:01:36 
3520  176  135  71  1017  2019-05-08 04:01:34 
3521  176  140  71  1017  2019-05-08 05:01:32 
3522  176  140  72  1017  2019-05-08 06:01:34 
3523  176  145  73  1017  2019-05-08 07:01:33 
3524  176  145  74  1017  2019-05-08 08:01:35 
3525  176  156  74  1018  2019-05-08 09:01:33 
3526  181  165  77  1019  2019-05-08 10:01:35 
3527  186  171  100  1018  2019-05-08 11:01:33 
3528  184  171  77  1018  2019-05-08 12:01:36 
3529  186  176  77  1019  2019-05-08 13:01:34 
3530  186  181  77  1017  2019-05-08 14:01:32 
3531  191  186  100  1019  2019-05-08 17:01:35 
3532  191  176  100  1019  2019-05-08 18:01:33 
3533  191  166  77  1020  2019-05-08 19:01:35 
3534  187  161  77  1021  2019-05-08 20:01:33 
3535  186  161  77  1020  2019-05-08 21:01:36 
3536  188  161  77  1020  2019-05-08 22:01:34 
3537  186  155  76  1020  2019-05-08 23:01:36 
3538  183  151  76  1022  2019-05-09 00:01:34 
3539  181  151  76  1022  2019-05-09 01:01:32 
3540  184  153  76  1022  2019-05-09 02:01:34 
3541  181  151  76  1021  2019-05-09 03:01:32 
3542  181  151  76  1021  2019-05-09 04:01:34 
3543  181  151  76  1023  2019-05-09 05:01:32 
3544  181  145  76  1022  2019-05-09 06:01:34 
3545  176  140  76  1023  2019-05-09 07:01:33 
3546  176  135  76  1023  2019-05-09 08:01:35 
3547  176  140  76  1023  2019-05-09 09:01:33 
3548  177  151  77  1024  2019-05-09 10:01:35 
3549  181  162  100  1024  2019-05-09 11:01:33 
3550  185  181  100  1022  2019-05-09 12:01:36 
3551  186  191  77  1021  2019-05-09 13:01:34 
3552  191  206  71  1020  2019-05-09 14:01:32 
3553  196  216  71  1020  2019-05-09 15:01:34 
3554  196  221  73  1020  2019-05-09 16:01:33 
3555  196  211  74  1021  2019-05-09 17:01:35 
3556  196  191  75  1020  2019-05-09 18:01:33 
3557  196  176  75  1020  2019-05-09 19:01:36 
3558  196  165  76  1022  2019-05-09 20:01:34 
3559  194  156  75  1022  2019-05-09 21:01:32 
3560  191  145  74  1021  2019-05-09 22:01:34 
3561  189  140  73  1020  2019-05-09 23:01:33 
3562  186  130  73  1020  2019-05-10 00:01:35 
3563  181  125  72  1019  2019-05-10 01:01:34 
3564  181  120  72  1019  2019-05-10 02:01:32 
3565  176  119  72  1018  2019-05-10 03:01:35 
3566  174  112  71  1017  2019-05-10 04:01:33 
3567  171  105  71  1018  2019-05-10 05:01:35 
3568  168  105  71  1018  2019-05-10 06:01:33 
3569  166  100  71  1018  2019-05-10 07:01:35 
3570  164  100  71  1018  2019-05-10 08:01:33 
3571  165  115  72  1019  2019-05-10 09:01:35 
3572  166  145  72  1018  2019-05-10 10:01:33 
3573  171  166  73  1018  2019-05-10 11:01:36 
3574  176  189  74  1018  2019-05-10 12:01:35 
3575  181  206  76  1017  2019-05-10 13:01:33 
3576  185  216  76  1016  2019-05-10 14:01:35 
3577  186  217  72  1016  2019-05-10 15:01:33 
3578  194  216  73  1017  2019-05-10 16:01:36 
3579  195  206  72  1016  2019-05-10 17:01:34 
3580  191  194  73  1017  2019-05-10 18:01:32 
3581  191  181  76  1017  2019-05-10 19:01:34 
3582  191  166  75  1018  2019-05-10 20:01:33 
3583  189  156  74  1019  2019-05-10 21:01:35 
3584  190  151  74  1019  2019-05-10 22:01:33 
3585  186  145  74  1019  2019-05-10 23:01:35 
3586  182  140  73  1019  2019-05-11 00:01:34 
3587  181  130  72  1019  2019-05-11 01:01:36 
3588  181  125  72  1018  2019-05-11 02:01:34 
3589  177  135  72  1018  2019-05-11 03:01:32 
3590  176  136  72  1017  2019-05-11 04:01:34 
3591  175  125  72  1017  2019-05-11 05:01:32 
3592  174  135  72  1017  2019-05-11 06:01:35 
3593  172  128  73  1017  2019-05-11 07:01:33 
3594  171  120  73  1018  2019-05-11 08:01:35 
3595  171  148  74  1018  2019-05-11 09:01:33 
3596  176  161  75  1019  2019-05-11 10:01:35 
3597  176  173  76  1019  2019-05-11 11:01:34 
3598  186  182  100  1018  2019-05-11 12:01:36 
3599  186  191  100  1017  2019-05-11 13:01:34 
3600  191  205  100  1016  2019-05-11 14:01:32 
3601  191  211  77  1015  2019-05-11 15:01:35 
3602  196  214  77  1016  2019-05-11 16:01:33 
3603  196  206  77  1016  2019-05-11 17:01:35 
3604  196  191  77  1015  2019-05-11 18:01:33 
3605  196  181  77  1015  2019-05-11 19:01:36 
3606  195  171  77  1015  2019-05-11 20:01:34 
3607  196  161  76  1015  2019-05-11 21:01:32 
3608  191  154  76  1015  2019-05-11 22:01:35 
3609  188  145  75  1014  2019-05-11 23:01:33 
3610  183  140  74  1014  2019-05-12 00:01:35 
3611  181  135  74  1014  2019-05-12 01:01:33 
3612  179  130  73  1015  2019-05-12 02:01:35 
3613  176  125  73  1014  2019-05-12 03:01:33 
3614  174  120  73  1014  2019-05-12 04:01:36 
3615  171  115  72  1015  2019-05-12 05:01:34 
3616  171  110  72  1016  2019-05-12 06:01:36 
3617  166  110  72  1015  2019-05-12 07:01:34 
3618  161  109  72  1017  2019-05-12 08:01:32 
3619  165  125  73  1017  2019-05-12 09:01:34 
3620  171  162  76  1018  2019-05-12 10:01:32 
3621  176  191  76  1019  2019-05-12 11:01:35 
3622  179  201  101  1019  2019-05-12 12:01:33 
3623  181  209  102  1018  2019-05-12 13:01:35 
3624  186  211  103  1018  2019-05-12 14:01:33 
3625  191  209  105  1017  2019-05-12 15:01:36 
3626  191  206  103  1018  2019-05-12 16:01:34 
3627  194  191  103  1018  2019-05-12 17:01:32 
3628  191  186  103  1019  2019-05-12 18:01:35 
3629  192  184  103  1019  2019-05-12 19:01:33 
3630  195  181  104  1020  2019-05-12 20:01:35 
3631  196  181  104  1020  2019-05-12 21:01:34 
3632  196  177  103  1020  2019-05-12 22:01:36 
3633  196  176  103  1021  2019-05-12 23:01:34 
3634  191  174  102  1019  2019-05-13 00:01:32 
3635  191  171  101  1018  2019-05-13 01:01:35 
3636  189  166  101  1017  2019-05-13 02:01:33 
3637  189  166  100  1017  2019-05-13 03:01:35 
3638  186  161  100  1017  2019-05-13 04:01:33 
3639  186  161  100  1017  2019-05-13 05:01:36 
3640  186  161  100  1017  2019-05-13 06:01:34 
3641  183  156  100  1016  2019-05-13 07:01:36 
3642  184  156  100  1018  2019-05-13 08:01:34 
3643  186  166  100  1018  2019-05-13 09:01:32 
3644  186  176  101  1018  2019-05-13 10:01:35 
3645  190  186  101  1017  2019-05-13 11:01:33 
3646  191  196  102  1017  2019-05-13 12:01:35 
3647  196  205  102  1016  2019-05-13 13:01:33 
3648  196  219  101  1015  2019-05-13 14:01:36 
3649  199  216  100  1015  2019-05-13 15:01:34 
3650  201  210  100  1014  2019-05-13 16:01:32 
3651  201  206  100  1014  2019-05-13 17:01:35 
3652  201  192  76  1014  2019-05-13 18:01:33 
3653  200  186  76  1014  2019-05-13 19:01:35 
3654  201  176  77  1013  2019-05-13 20:01:33 
3655  201  171  77  1013  2019-05-13 21:01:36 
3656  200  161  77  1013  2019-05-13 22:01:34 
3657  196  156  76  1012  2019-05-13 23:01:32 
3658  194  151  76  1012  2019-05-14 00:01:34 
3659  191  145  75  1011  2019-05-14 01:01:33 
3660  186  140  75  1011  2019-05-14 02:01:36 
3661  186  140  75  1011  2019-05-14 03:01:33 
3662  183  140  75  1011  2019-05-14 04:01:35 
3663  181  135  74  1010  2019-05-14 05:01:33 
3664  181  135  74  1011  2019-05-14 06:01:36 
3665  181  135  74  1011  2019-05-14 07:01:34 
3666  181  140  74  1011  2019-05-14 08:01:36 
3667  181  145  75  1011  2019-05-14 09:01:34 
3668  181  161  75  1012  2019-05-14 10:01:32 
3669  182  168  75  1012  2019-05-14 11:01:34 
3670  186  189  76  1011  2019-05-14 12:01:33 
3671  191  206  102  1011  2019-05-14 13:01:35 
3672  196  221  102  1010  2019-05-14 14:01:33 
3673  203  221  101  1010  2019-05-14 15:01:36 
3674  205  216  71  1011  2019-05-14 16:01:34 
3675  204  208  67  1011  2019-05-14 17:01:32 
3676  204  216  75  1013  2019-05-14 18:01:34 
3677  206  206  101  1014  2019-05-14 19:01:33 
3678  209  204  100  1014  2019-05-14 20:01:35 
3679  206  201  100  1015  2019-05-14 21:01:33 
3680  206  192  100  1014  2019-05-14 22:01:36 
3681  206  193  77  1015  2019-05-14 23:01:34 
3682  203  191  77  1015  2019-05-15 00:01:36 
3683  201  186  77  1015  2019-05-15 01:01:34 
3684  204  181  77  1016  2019-05-15 02:01:32 
3685  201  181  77  1016  2019-05-15 03:01:35 
3686  201  176  77  1016  2019-05-15 04:01:33 
3687  196  172  77  1016  2019-05-15 05:01:35 
3688  194  166  76  1018  2019-05-15 06:01:33 
3689  194  158  76  1018  2019-05-15 07:01:36 
3690  191  153  75  1019  2019-05-15 08:01:34 
3691  191  151  76  1020  2019-05-15 09:01:36 
3692  193  166  75  1020  2019-05-15 10:01:34 
3693  196  175  74  1020  2019-05-15 11:01:32 
3694  196  186  74  1019  2019-05-15 12:01:36 
3695  196  191  73  1019  2019-05-15 13:01:34 
3696  199  198  70  1018  2019-05-15 14:01:37 
3697  202  201  66  1018  2019-05-15 15:01:35 
3698  201  193  67  1019  2019-05-15 16:01:33 
3699  201  191  66  1018  2019-05-15 17:01:36 
3700  202  183  70  1019  2019-05-15 18:01:34 
3701  203  178  70  1020  2019-05-15 19:01:36 
3702  201  176  72  1020  2019-05-15 20:01:34 
3703  201  171  73  1020  2019-05-15 21:01:32 
3704  201  166  73  1020  2019-05-15 22:01:35 
3705  197  161  73  1019  2019-05-15 23:01:33 
3706  196  161  73  1020  2019-05-16 00:01:35 
3707  193  158  72  1020  2019-05-16 01:01:33 
3708  191  156  72  1021  2019-05-16 02:01:36 
3709  191  156  72  1019  2019-05-16 03:01:34 
3710  188  156  72  1019  2019-05-16 04:01:36 
3711  186  151  72  1018  2019-05-16 05:01:34 
3712  186  151  72  1017  2019-05-16 06:01:32 
3713  186  151  73  1018  2019-05-16 07:01:35 
3714  184  145  73  1018  2019-05-16 08:01:33 
3715  186  151  73  1019  2019-05-16 09:01:35 
3716  186  164  74  1017  2019-05-16 10:01:33 
3717  191  176  73  1017  2019-05-16 11:01:35 
3718  192  191  73  1017  2019-05-16 12:01:33 
3719  196  201  71  1017  2019-05-16 13:01:36 
3720  196  205  73  1015  2019-05-16 14:01:34 
3721  198  205  73  1014  2019-05-16 15:01:32 
3722  201  201  72  1014  2019-05-16 16:01:35 
3723  199  186  73  1014  2019-05-16 17:01:33 
3724  199  176  74  1014  2019-05-16 18:01:35 
3725  196  171  73  1015  2019-05-16 19:01:33 
3726  200  166  74  1014  2019-05-16 20:01:36 
3727  196  156  73  1014  2019-05-16 21:01:34 
3728  195  149  73  1015  2019-05-16 22:01:36 
3729  192  145  73  1015  2019-05-16 23:01:34 
3730  191  140  72  1013  2019-05-17 00:01:33 
3731  186  133  71  1013  2019-05-17 01:01:35 
3732  186  130  71  1013  2019-05-17 02:01:33 
3733  181  125  71  1012  2019-05-17 03:01:35 
3734  177  120  70  1012  2019-05-17 04:01:33 
3735  176  115  70  1011  2019-05-17 05:01:35 
3736  171  110  70  1012  2019-05-17 06:01:33 
3737  171  110  70  1012  2019-05-17 07:01:35 
3738  168  110  70  1012  2019-05-17 08:01:34 
3739  174  125  71  1012  2019-05-17 09:01:36 
3740  173  145  72  1012  2019-05-17 10:01:34 
3741  181  170  73  1012  2019-05-17 11:01:36 
3742  186  190  70  1012  2019-05-17 12:01:34 
3743  186  206  72  1012  2019-05-17 13:01:36 
3744  190  226  73  1011  2019-05-17 14:01:34 
3745  191  231  70  1011  2019-05-17 15:01:33 
3746  196  228  67  1012  2019-05-17 16:01:35 
3747  199  219  71  1012  2019-05-17 17:01:33 
3748  201  201  71  1013  2019-05-17 18:01:35 
3749  196  191  70  1013  2019-05-17 19:01:33 
3750  191  186  70  1014  2019-05-17 20:01:36 
3751  191  176  70  1015  2019-05-17 21:01:34 
3752  191  169  71  1015  2019-05-17 22:01:36 
3753  206  165  71  1016  2019-05-17 23:01:34 
3754  211  162  70  1017  2019-05-18 00:01:32 
3755  211  161  67  1017  2019-05-18 01:01:35 
3756  196  161  67  1016  2019-05-18 02:01:33 
3757  196  160  67  1016  2019-05-18 03:01:35 
3758  192  156  67  1016  2019-05-18 04:01:34 
3759  191  156  67  1015  2019-05-18 05:01:36 
3760  191  156  67  1016  2019-05-18 06:01:34 
3761  190  156  70  1016  2019-05-18 07:01:33 
3762  188  157  70  1016  2019-05-18 08:01:35 
3763  189  166  71  1016  2019-05-18 09:01:33 
3764  194  176  74  1017  2019-05-18 10:01:36 
3765  199  188  75  1017  2019-05-18 11:01:34 
3766  204  202  75  1016  2019-05-18 12:01:36 
3767  203  206  72  1016  2019-05-18 13:01:34 
3768  207  216  72  1015  2019-05-18 14:01:33 
3769  207  211  71  1014  2019-05-18 15:01:35 
3770  211  211  70  1014  2019-05-18 16:01:33 
3771  209  206  70  1014  2019-05-18 17:01:36 
3772  209  191  71  1014  2019-05-18 18:01:34 
3773  221  186  71  1014  2019-05-18 19:01:36 
3774  216  176  66  1014  2019-05-18 20:01:35 
3775  216  166  70  1014  2019-05-18 21:01:33 
3776  211  156  67  1014  2019-05-18 22:01:36 
3777  211  145  70  1013  2019-05-18 23:01:34 
3778  209  139  70  1013  2019-05-19 00:01:36 
3779  204  133  70  1012  2019-05-19 01:01:34 
3780  196  125  66  1012  2019-05-19 02:01:33 
3781  191  122  65  1012  2019-05-19 03:01:35 
3782  187  120  65  1011  2019-05-19 04:01:33 
3783  186  115  65  1010  2019-05-19 05:01:35 
3784  184  115  65  1010  2019-05-19 06:01:33 
3785  181  115  65  1010  2019-05-19 07:01:36 
3786  181  110  66  1010  2019-05-19 08:01:34 
3787  179  125  66  1011  2019-05-19 09:01:36 
3788  186  145  70  1011  2019-05-19 10:01:34 
3789  182  161  71  1011  2019-05-19 11:01:36 
3790  186  176  71  1010  2019-05-19 12:01:34 
3791  186  178  71  1011  2019-05-19 13:01:36 
3792  186  181  72  1011  2019-05-19 14:01:34 
3793  191  181  72  1010  2019-05-19 15:01:32 
3794  191  181  73  1010  2019-05-19 16:01:35 
3795  195  177  73  1011  2019-05-19 17:01:33 
3796  195  174  73  1010  2019-05-19 18:01:35 
3797  196  171  73  1010  2019-05-19 19:01:33 
3798  196  166  74  1010  2019-05-19 20:01:36 
3799  196  161  74  1010  2019-05-19 21:01:34 
3800  194  156  73  1010  2019-05-19 22:01:37 
3801  191  151  73  1010  2019-05-19 23:01:36 
3802  190  151  73  1010  2019-05-20 00:01:34 
3803  186  147  73  1010  2019-05-20 01:01:36 
3804  186  153  74  1009  2019-05-20 02:01:34 
3805  186  151  74  1010  2019-05-20 03:01:33 
3806  183  150  75  1009  2019-05-20 04:01:36 
3807  182  151  75  1010  2019-05-20 05:01:34 
3808  181  145  75  1010  2019-05-20 06:01:32 
3809  181  140  75  1012  2019-05-20 07:01:35 
3810  177  135  75  1012  2019-05-20 08:01:33 
3811  181  130  75  1014  2019-05-20 09:01:35 
3812  182  125  73  1016  2019-05-20 10:01:35 
3813  186  125  71  1016  2019-05-20 11:01:33 
3814  187  140  67  1017  2019-05-20 12:01:35 
3815  191  145  65  1018  2019-05-20 13:01:33 
3816  197  145  66  1018  2019-05-20 14:01:35 
3817  196  153  63  1018  2019-05-20 15:01:33 
3818  196  151  62  1019  2019-05-20 16:01:36 
3819  195  145  62  1020  2019-05-20 17:01:34 
3820  196  140  64  1020  2019-05-20 18:01:36 
3821  196  135  64  1021  2019-05-20 19:01:34 
3822  199  132  63  1022  2019-05-20 20:01:36 
3823  198  130  62  1022  2019-05-20 21:01:34 
3824  196  130  62  1022  2019-05-20 22:01:37 
3825  191  125  62  1023  2019-05-20 23:01:35 
3826  191  130  62  1022  2019-05-21 00:01:33 
3827  188  130  63  1023  2019-05-21 01:01:35 
3828  189  128  63  1023  2019-05-21 02:01:33 
3829  186  130  64  1023  2019-05-21 03:01:35 
3830  186  125  63  1023  2019-05-21 04:01:33 
3831  185  127  64  1022  2019-05-21 05:01:35 
3832  184  125  64  1023  2019-05-21 06:01:33 
3833  182  126  64  1024  2019-05-21 07:01:35 
3834  186  125  65  1024  2019-05-21 08:01:34 
3835  181  130  65  1024  2019-05-21 09:01:36 
3836  181  139  66  1025  2019-05-21 10:01:34 
3837  181  154  67  1025  2019-05-21 11:01:36 
3838  186  162  67  1023  2019-05-21 12:01:34 
3839  187  170  70  1024  2019-05-21 13:01:36 
3840  188  181  70  1023  2019-05-21 14:01:35 
3841  191  177  67  1023  2019-05-21 15:01:33 
3842  192  179  66  1022  2019-05-21 16:01:35 
3843  191  172  66  1022  2019-05-21 17:01:33 
3844  191  166  67  1022  2019-05-21 18:01:36 
3845  191  156  70  1022  2019-05-21 19:01:34 
3846  191  152  71  1023  2019-05-21 20:01:36 
3847  190  148  71  1022  2019-05-21 21:01:34 
3848  186  141  70  1023  2019-05-21 22:01:36 
3849  183  130  67  1023  2019-05-21 23:01:34 
3850  181  125  67  1023  2019-05-22 00:01:36 
3851  176  115  67  1022  2019-05-22 01:01:35 
3852  176  110  67  1022  2019-05-22 02:01:33 
3853  172  105  66  1022  2019-05-22 03:01:35 
3854  169  101  66  1021  2019-05-22 04:01:33 
3855  166  100  66  1021  2019-05-22 05:01:35 
3856  166  100  66  1021  2019-05-22 06:01:33 
3857  161  100  66  1020  2019-05-22 07:01:35 
3858  161  99  67  1021  2019-05-22 08:01:33 
3859  161  105  70  1021  2019-05-22 09:01:35 
3860  161  125  71  1021  2019-05-22 10:01:33 
3861  171  151  72  1022  2019-05-22 11:01:35 
3862  171  169  73  1021  2019-05-22 12:01:33 
3863  175  177  74  1020  2019-05-22 13:01:35 
3864  178  181  74  1020  2019-05-22 14:01:33 
3865  181  195  72  1020  2019-05-22 15:01:36 
3866  184  191  72  1019  2019-05-22 16:01:34 
3867  186  181  73  1019  2019-05-22 17:01:36 
3868  181  170  72  1020  2019-05-22 18:01:34 
3869  180  161  72  1021  2019-05-22 19:01:36 
3870  181  156  74  1021  2019-05-22 20:01:34 
3871  181  158  73  1021  2019-05-22 21:01:33 
3872  176  151  73  1022  2019-05-22 22:01:35 
3873  176  140  73  1022  2019-05-22 23:01:34 
3874  176  130  72  1022  2019-05-23 00:01:36 
3875  171  125  72  1022  2019-05-23 01:01:34 
3876  171  125  71  1022  2019-05-23 02:01:37 
3877  171  126  72  1022  2019-05-23 03:01:34 
3878  171  127  72  1021  2019-05-23 04:01:37 
3879  169  126  72  1022  2019-05-23 05:01:35 
3880  166  125  72  1022  2019-05-23 06:01:33 
3881  166  120  73  1022  2019-05-23 07:01:35 
3882  166  120  73  1022  2019-05-23 08:01:33 
3883  176  130  74  1024  2019-05-23 09:01:35 
3884  174  156  74  1024  2019-05-23 10:01:33 
3885  176  166  75  1025  2019-05-23 11:01:36 
3886  179  171  74  1024  2019-05-23 12:01:34 
3887  180  180  74  1023  2019-05-23 13:01:36 
3888  181  186  73  1022  2019-05-23 14:01:34 
3889  184  188  73  1022  2019-05-23 15:01:33 
3890  185  186  71  1022  2019-05-23 16:01:35 
3891  186  179  71  1022  2019-05-23 17:01:33 
3892  191  166  72  1023  2019-05-23 18:01:35 
3893  186  161  72  1023  2019-05-23 19:01:33 
3894  186  160  72  1024  2019-05-23 20:01:35 
3895  191  159  74  1024  2019-05-23 21:01:33 
3896  191  156  72  1024  2019-05-23 22:01:36 
3897  186  156  72  1023  2019-05-23 23:01:34 
3898  182  151  72  1023  2019-05-24 00:01:36 
3899  181  149  72  1024  2019-05-24 01:01:34 
3900  180  145  72  1024  2019-05-24 02:01:37 
3901  181  140  71  1022  2019-05-24 03:01:35 
3902  176  140  71  1023  2019-05-24 04:01:37 
3903  176  144  71  1022  2019-05-24 05:01:35 
3904  175  145  71  1023  2019-05-24 06:01:33 
3905  173  142  71  1023  2019-05-24 07:01:35 
3906  171  141  71  1023  2019-05-24 08:01:33 
3907  171  151  72  1022  2019-05-24 09:01:35 
3908  173  156  73  1024  2019-05-24 10:01:33 
3909  176  166  73  1023  2019-05-24 11:01:35 
3910  181  179  101  1022  2019-05-24 12:01:34 
3911  181  181  77  1021  2019-05-24 13:01:36 
3912  190  191  76  1021  2019-05-24 14:01:34 
3913  189  191  76  1021  2019-05-24 15:01:36 
3914  188  186  77  1020  2019-05-24 16:01:34 
3915  186  178  77  1020  2019-05-24 17:01:36 
3916  191  166  102  1021  2019-05-24 18:01:35 
3917  191  162  100  1021  2019-05-24 19:01:37 
3918  195  157  77  1021  2019-05-24 20:01:35 
3919  191  156  75  1021  2019-05-24 21:01:33 
3920  190  146  74  1021  2019-05-24 22:01:36 
3921  187  137  73  1021  2019-05-24 23:01:34 
3922  186  128  72  1021  2019-05-25 00:01:36 
3923  185  120  71  1019  2019-05-25 01:01:34 
3924  181  110  71  1019  2019-05-25 02:01:36 
3925  181  105  70  1019  2019-05-25 03:01:34 
3926  177  100  67  1019  2019-05-25 04:01:36 
3927  175  100  70  1018  2019-05-25 05:01:34 
3928  176  100  67  1018  2019-05-25 06:01:36 
3929  174  95  67  1018  2019-05-25 07:01:34 
3930  171  95  67  1019  2019-05-25 08:01:36 
3931  161  110  71  1019  2019-05-25 09:01:34 
3932  171  130  73  1018  2019-05-25 10:01:36 
3933  171  160  74  1019  2019-05-25 11:01:35 
3934  176  181  77  1018  2019-05-25 12:01:33 
3935  182  196  100  1016  2019-05-25 13:01:35 
3936  181  216  100  1015  2019-05-25 14:01:33 
3937  186  221  77  1016  2019-05-25 15:01:35 
3938  187  216  77  1015  2019-05-25 16:01:34 
3939  187  208  77  1015  2019-05-25 17:01:36 
3940  191  196  77  1016  2019-05-25 18:01:34 
3941  186  182  77  1015  2019-05-25 19:01:36 
3942  186  175  77  1016  2019-05-25 20:01:34 
3943  186  166  76  1015  2019-05-25 21:01:37 
3944  186  161  76  1015  2019-05-25 22:01:35 
3945  181  154  76  1014  2019-05-25 23:01:33 
3946  181  151  75  1014  2019-05-26 00:01:35 
3947  181  151  75  1014  2019-05-26 01:01:33 
3948  178  146  75  1013  2019-05-26 02:01:35 
3949  178  144  74  1012  2019-05-26 03:01:34 
3950  180  140  74  1011  2019-05-26 04:01:36 
3951  178  151  73  1010  2019-05-26 05:01:34 
3952  178  178  72  1010  2019-05-26 06:01:36 
3953  181  191  72  1011  2019-05-26 07:01:34 
3954  181  207  70  1010  2019-05-26 08:01:37 
3955  191  221  60  1011  2019-05-26 09:01:35 
3956  196  221  61  1011  2019-05-26 10:01:33 
3957  206  241  56  1011  2019-05-26 11:01:35 
3958  212  251  57  1010  2019-05-26 12:01:34 
3959  207  246  60  1011  2019-05-26 13:01:36 
3960  208  246  56  1011  2019-05-26 14:01:34 
3961  208  245  57  1010  2019-05-26 15:01:37 
3962  211  236  60  1010  2019-05-26 16:01:35 
3963  213  224  65  1013  2019-05-26 17:01:33 
3964  211  218  67  1014  2019-05-26 18:01:36 
3965  213  212  70  1015  2019-05-26 19:01:34 
3966  213  205  71  1015  2019-05-26 20:01:36 
3967  211  196  71  1016  2019-05-26 21:01:35 
3968  210  191  70  1017  2019-05-26 22:01:33 
3969  206  186  70  1016  2019-05-26 23:01:35 
3970  206  181  70  1017  2019-05-27 00:01:33 
3971  205  177  70  1017  2019-05-27 01:01:35 
3972  201  176  70  1018  2019-05-27 02:01:34 
3973  201  176  70  1019  2019-05-27 03:01:36 
3974  201  175  70  1020  2019-05-27 04:01:34 
3975  200  171  70  1021  2019-05-27 05:01:36 
3976  196  161  71  1022  2019-05-27 06:01:34 
3977  196  157  71  1022  2019-05-27 07:01:37 
3978  196  156  71  1023  2019-05-27 08:01:35 
3979  196  158  71  1024  2019-05-27 09:01:33 
3980  196  162  71  1023  2019-05-27 10:01:35 
3981  198  169  71  1024  2019-05-27 11:01:33 
3982  201  173  70  1024  2019-05-27 12:01:35 
3983  196  171  67  1023  2019-05-27 13:01:34 
3984  196  171  65  1023  2019-05-27 14:01:36 
3985  196  171  65  1022  2019-05-27 15:01:34 
3986  196  171  64  1022  2019-05-27 16:01:36 
3987  196  166  66  1023  2019-05-27 17:01:35 
3988  195  156  67  1024  2019-05-27 18:01:37 
3989  191  156  67  1024  2019-05-27 19:01:35 
3990  191  154  70  1023  2019-05-27 20:01:33 
3991  191  152  70  1024  2019-05-27 21:01:40 
3992  187  151  70  1024  2019-05-27 22:01:34 
3993  186  149  67  1025  2019-05-27 23:01:36 
3994  186  145  67  1025  2019-05-28 00:01:34 
3995  181  145  66  1024  2019-05-28 01:01:36 
3996  181  145  66  1024  2019-05-28 02:01:35 
3997  178  145  66  1024  2019-05-28 03:01:33 
3998  176  145  66  1023  2019-05-28 04:01:35 
3999  176  148  66  1023  2019-05-28 05:01:33 
4000  176  145  66  1024  2019-05-28 06:01:36 
4001  174  143  66  1023  2019-05-28 07:01:34 
4002  175  145  70  1023  2019-05-28 08:01:36 
4003  178  151  70  1024  2019-05-28 09:01:35 
4004  178  158  70  1023  2019-05-28 10:01:36 
4005  181  166  70  1023  2019-05-28 11:01:34 
4006  183  182  70  1022  2019-05-28 12:01:37 
4007  186  192  71  1023  2019-05-28 13:01:36 
4008  189  198  70  1022  2019-05-28 14:01:33 
4009  189  196  67  1020  2019-05-28 15:01:36 
4010  191  196  67  1020  2019-05-28 16:01:34 
4011  191  186  67  1020  2019-05-28 17:01:36 
4012  192  176  70  1021  2019-05-28 17:40:11 
4013  191  176  67  1021  2019-05-28 18:01:33 
4014  192  166  71  1021  2019-05-28 19:01:35 
4015  191  161  71  1021  2019-05-28 20:01:33 
4016  189  156  70  1021  2019-05-28 21:01:36 
4017  186  145  70  1020  2019-05-28 22:01:34 
4018  186  138  70  1020  2019-05-28 23:01:36 
4019  181  132  70  1021  2019-05-29 00:01:34 
4020  176  125  70  1020  2019-05-29 01:01:36 
4021  176  120  70  1019  2019-05-29 02:01:34 
4022  171  115  70  1019  2019-05-29 03:01:36 
4023  171  110  70  1018  2019-05-29 04:01:36 
4024  167  105  67  1018  2019-05-29 05:01:37 
4025  165  105  67  1017  2019-05-29 06:01:35 
4026  161  105  70  1017  2019-05-29 07:01:37 
4027  161  100  70  1017  2019-05-29 08:01:35 
4028  164  110  71  1018  2019-05-29 09:01:37 
4029  166  140  72  1017  2019-05-29 10:01:35 
4030  166  161  71  1017  2019-05-29 11:01:33 
4031  171  181  72  1016  2019-05-29 12:01:35 
4032  179  200  70  1015  2019-05-29 13:01:33 
4033  191  200  65  1014  2019-05-29 18:01:36 
4034  191  186  66  1013  2019-05-29 19:01:34 
4035  191  176  67  1014  2019-05-29 20:01:37 
4036  191  164  67  1013  2019-05-29 21:01:35 
4037  189  156  67  1013  2019-05-29 22:01:37 
4038  186  145  67  1013  2019-05-29 23:01:35 
4039  181  139  67  1013  2019-05-30 00:01:33 
4040  181  135  67  1013  2019-05-30 01:01:35 
4041  176  130  67  1013  2019-05-30 03:01:36 
4042  175  128  67  1014  2019-05-30 04:01:34 
4043  172  125  67  1015  2019-05-30 05:01:36 
4044  171  125  67  1014  2019-05-30 06:01:34 
4045  170  120  70  1016  2019-05-30 07:01:36 
4046  166  125  71  1016  2019-05-30 08:01:35 
4047  171  135  72  1016  2019-05-30 09:01:33 
4048  171  147  72  1017  2019-05-30 10:01:35 
4049  176  161  73  1018  2019-05-30 11:01:33 
4050  181  176  73  1018  2019-05-30 12:01:36 
4051  178  191  73  1017  2019-05-30 13:01:34 
4052  184  201  73  1017  2019-05-30 14:01:36 
4053  182  201  73  1017  2019-05-30 15:01:34 
4054  186  196  73  1017  2019-05-30 16:01:37 
4055  187  196  74  1017  2019-05-30 17:01:35 
4056  186  181  74  1018  2019-05-30 18:01:33 
4057  187  166  74  1018  2019-05-30 19:01:35 
4058  186  161  74  1018  2019-05-30 20:01:33 
4059  186  156  74  1018  2019-05-30 21:01:36 
4060  181  145  73  1019  2019-05-30 22:01:34 
4061  178  135  73  1019  2019-05-30 23:01:37 
4062  176  129  72  1019  2019-05-31 00:01:35 
4063  173  125  72  1019  2019-05-31 01:01:33 
4064  171  120  72  1019  2019-05-31 02:01:37 
4065  169  113  72  1018  2019-05-31 03:01:35 
4066  166  105  71  1019  2019-05-31 04:01:37 
4067  165  105  71  1019  2019-05-31 05:01:35 
4068  161  100  71  1019  2019-05-31 06:01:37 
4069  161  100  73  1019  2019-05-31 07:01:35 
4070  160  100  72  1019  2019-05-31 08:01:37 
4071  161  111  73  1019  2019-05-31 09:01:35 
4072  161  145  73  1019  2019-05-31 10:01:33 
4073  166  166  74  1021  2019-05-31 11:01:35 
4074  166  170  73  1021  2019-05-31 12:01:33 
4075  174  181  76  1019  2019-05-31 13:01:36 
4076  176  191  75  1019  2019-05-31 14:01:34 
4077  177  191  75  1018  2019-05-31 15:01:36 
4078  181  191  73  1018  2019-05-31 16:01:34 
4079  181  186  73  1018  2019-05-31 17:01:36 
4080  179  176  73  1018  2019-05-31 18:01:34 
4081  176  161  74  1019  2019-05-31 19:01:37 
4082  176  155  74  1019  2019-05-31 20:01:35 
4083  176  145  74  1019  2019-05-31 21:01:33 
4084  176  136  74  1020  2019-05-31 22:01:36 
4085  173  130  73  1019  2019-05-31 23:01:34 
4086  171  125  73  1019  2019-06-01 00:01:36 
4087  168  120  73  1019  2019-06-01 01:01:34 
4088  166  114  73  1019  2019-06-01 02:01:36 
4089  161  110  73  1019  2019-06-01 03:01:34 
4090  161  105  72  1019  2019-06-01 04:01:36 
4091  161  101  72  1018  2019-06-01 05:01:34 
4092  159  100  72  1018  2019-06-01 06:01:36 
4093  156  95  73  1018  2019-06-01 07:01:34 
4094  152  95  73  1019  2019-06-01 08:01:36 
4095  151  100  74  1019  2019-06-01 09:01:33 
4096  156  125  75  1020  2019-06-01 10:01:35 
4097  161  141  100  1020  2019-06-01 11:01:33 
4098  161  156  77  1020  2019-06-01 12:01:35 
4099  166  171  101  1020  2019-06-01 13:01:33 
4100  169  176  100  1019  2019-06-01 14:01:35 
4101  171  191  77  1019  2019-06-01 15:01:33 
4102  175  191  76  1018  2019-06-01 16:01:36 
4103  176  186  76  1019  2019-06-01 17:01:34 
4104  176  173  76  1019  2019-06-01 18:01:36 
4105  176  162  76  1020  2019-06-01 19:01:34 
4106  176  156  77  1020  2019-06-01 20:01:36 
4107  173  151  77  1021  2019-06-01 21:01:34 
4108  171  141  76  1021  2019-06-01 22:01:36 
4109  171  140  76  1022  2019-06-01 23:01:34 
4110  171  135  76  1021  2019-06-02 00:01:37 
4111  171  139  76  1021  2019-06-02 01:01:35 
4112  167  135  76  1021  2019-06-02 02:01:37 
4113  166  136  76  1021  2019-06-02 03:01:35 
4114  166  135  76  1022  2019-06-02 04:01:37 
4115  166  135  76  1022  2019-06-02 05:01:35 
4116  166  130  77  1023  2019-06-02 06:01:37 
4117  166  130  77  1023  2019-06-02 07:01:35 
4118  162  125  77  1023  2019-06-02 08:01:37 
4119  161  125  77  1024  2019-06-02 09:01:35 
4120  163  145  100  1024  2019-06-02 10:01:33 
4121  166  161  77  1024  2019-06-02 11:01:35 
4122  170  173  100  1024  2019-06-02 12:01:33 
4123  171  180  101  1023  2019-06-02 13:01:35 
4124  176  186  101  1023  2019-06-02 14:01:33 
4125  181  191  101  1022  2019-06-02 15:01:36 
4126  181  186  100  1022  2019-06-02 16:01:34 
4127  180  176  100  1022  2019-06-02 17:01:36 
4128  181  166  101  1022  2019-06-02 18:01:34 
4129  181  161  102  1021  2019-06-02 19:01:36 
4130  181  157  101  1022  2019-06-02 20:01:34 
4131  181  151  101  1022  2019-06-02 21:01:37 
4132  179  145  100  1022  2019-06-02 22:01:35 
4133  176  145  100  1023  2019-06-02 23:01:37 
4134  175  140  77  1022  2019-06-03 00:01:35 
4135  173  136  77  1021  2019-06-03 01:01:33 
4136  171  130  77  1022  2019-06-03 02:01:35 
4137  171  130  77  1021  2019-06-03 03:01:33 
4138  169  122  76  1020  2019-06-03 04:01:35 
4139  166  115  76  1018  2019-06-03 05:01:33 
4140  164  110  76  1020  2019-06-03 06:01:35 
4141  161  105  75  1019  2019-06-03 07:01:33 
4142  161  105  76  1020  2019-06-03 08:01:35 
4143  156  112  76  1019  2019-06-03 09:01:33 
4144  161  125  76  1021  2019-06-03 10:01:35 
4145  166  149  76  1020  2019-06-03 11:01:33 
4146  167  166  76  1020  2019-06-03 12:01:35 
4147  173  185  67  1019  2019-06-03 13:01:33 
4148  180  196  63  1018  2019-06-03 14:01:36 
4149  180  206  70  1018  2019-06-03 15:01:34 
4150  181  211  70  1016  2019-06-03 16:01:36 
4151  184  207  71  1017  2019-06-03 17:01:34 
4152  185  192  71  1018  2019-06-03 18:01:36 
4153  184  176  70  1018  2019-06-03 19:01:34 
4154  182  166  65  1019  2019-06-03 20:01:36 
4155  183  176  64  1019  2019-06-03 21:01:34 
4156  181  177  65  1019  2019-06-03 22:01:36 
4157  183  181  67  1019  2019-06-03 23:01:34 
4158  181  181  71  1019  2019-06-04 00:01:36 
4159  183  185  73  1019  2019-06-04 01:01:34 
4160  181  177  74  1019  2019-06-04 02:01:36 
4161  181  176  74  1019  2019-06-04 03:01:35 
4162  181  176  75  1018  2019-06-04 04:01:37 
4163  182  176  75  1019  2019-06-04 05:01:35 
4164  185  176  76  1018  2019-06-04 06:01:33 
4165  181  171  100  1018  2019-06-04 07:01:35 
4166  184  171  100  1019  2019-06-04 08:01:33 
4167  185  171  100  1019  2019-06-04 09:01:36 
4168  184  171  100  1018  2019-06-04 10:01:34 
4169  186  176  100  1018  2019-06-04 11:01:36 
4170  187  182  100  1017  2019-06-04 12:01:34 
4171  188  186  100  1016  2019-06-04 13:01:36 
4172  189  181  100  1014  2019-06-04 14:01:34 
4173  188  171  101  1014  2019-06-04 15:01:36 
4174  191  166  102  1013  2019-06-04 16:01:35 
4175  196  160  77  1012  2019-06-04 17:01:37 
4176  200  156  77  1013  18  2019-06-04 18:01:36 
4177  201  151  76  1012  2019-06-04 19:01:34 
4178  198  156  77  1013  2019-06-04 20:01:37 
4179  195  156  77  1013  2019-06-04 21:01:35 
4180  196  151  77  1013  2019-06-04 22:01:33 
4181  191  148  77  1014  2019-06-04 23:01:36 
4182  188  143  76  1014  2019-06-05 00:01:34 
4183  186  137  76  1015  2019-06-05 01:01:36 
4184  181  135  76  1015  2019-06-05 02:01:34 
4185  181  125  74  1017  2019-06-05 03:01:36 
4186  179  120  73  1017  2019-06-05 04:01:34 
4187  176  125  72  1017  2019-06-05 05:01:36 
4188  176  120  72  1018  2019-06-05 06:01:35 
4189  176  125  72  1018  2019-06-05 07:01:37 
4190  172  123  72  1018  2019-06-05 08:01:35 
4191  176  125  72  1019  2019-06-05 09:01:37 
4192  176  130  71  1021  2019-06-05 10:01:35 
4193  176  140  72  1020  2019-06-05 11:01:37 
4194  178  145  72  1020  2019-06-05 12:01:34 
4195  179  142  72  1020  2019-06-05 13:01:36 
4196  176  140  73  1019  2019-06-05 14:01:35 
4197  180  135  73  1019  2019-06-05 15:01:37 
4198  186  125  72  1019  2019-06-05 16:01:35 
4199  176  120  73  1019  2019-06-05 17:01:37 
4200  174  120  73  1020  2019-06-05 18:01:35 
4201  175  115  73  1020  2019-06-05 19:01:37 
4202  174  115  73  1020  2019-06-05 20:01:36 
4203  171  110  73  1021  2019-06-05 21:01:34 
4204  181  108  74  1021  2019-06-05 22:01:36 
4205  182  110  73  1022  2019-06-05 23:01:35 
4206  176  105  73  1022  2019-06-06 00:01:37 
4207  171  105  72  1023  2019-06-06 01:01:35 
4208  166  104  72  1022  2019-06-06 02:01:37 
4209  165  103  72  1023  2019-06-06 03:01:35 
4210  161  97  72  1022  2019-06-06 04:01:43 
4211  161  90  72  1024  2019-06-06 05:01:35 
4212  156  90  72  1025  2019-06-06 06:01:36 
4213  155  85  72  1025  2019-06-06 07:01:34 
4214  151  82  71  1025  2019-06-06 08:01:37 
4215  154  85  71  1026  2019-06-06 09:01:35 
4216  156  95  72  1026  2019-06-06 10:01:37 
4217  158  105  72  1027  2019-06-06 11:01:35 
4218  166  110  71  1027  2019-06-06 12:01:37 
4219  176  115  71  1026  2019-06-06 13:01:35 
4220  171  120  71  1026  2019-06-06 14:01:33 
4221  176  120  71  1026  2019-06-06 15:01:36 
4222  176  115  71  1026  2019-06-06 16:01:34 
4223  172  115  70  1026  2019-06-06 17:01:36 
4224  171  110  67  1026  2019-06-06 18:01:35 
4225  166  100  67  1026  2019-06-06 19:01:37 
4226  171  90  70  1027  2019-06-06 20:01:35 
4227  171  82  70  1025  2019-06-06 21:01:33 
4228  166  75  67  1025  2019-06-06 22:01:36 
4229  156  70  67  1025  2019-06-06 23:01:34 
4230  151  65  66  1025  2019-06-07 00:01:36 
4231  146  65  66  1024  2019-06-07 01:01:34 
4232  145  65  66  1024  2019-06-07 02:01:36 
4233  140  60  66  1023  2019-06-07 03:01:33 
4234  135  55  65  1023  2019-06-07 04:01:35 
4235  133  50  65  1021  2019-06-07 05:01:37 
4236  130  45  65  1022  2019-06-07 06:01:34 
4237  130  45  65  1021  2019-06-07 07:01:36 
4238  125  45  66  1022  2019-06-07 08:01:34 
4239  127  55  66  1022  2019-06-07 09:01:36 
4240  130  80  67  1022  2019-06-07 10:01:34 
4241  135  100  67  1022  2019-06-07 11:01:35 
4242  140  111  67  1021  2019-06-07 12:01:37 
4243  140  125  67  1021  2019-06-07 13:01:35 
4244  150  151  71  1022  2019-06-07 14:01:37 
4245  151  156  71  1022  2019-06-07 15:01:34 
4246  156  161  72  1021  2019-06-07 16:01:36 
4247  156  151  72  1021  2019-06-07 17:01:34 
4248  161  141  72  1022  2019-06-07 18:01:36 
4249  167  138  73  1023  2019-06-07 19:01:34 
4250  171  140  73  1024  2019-06-07 20:01:36 
4251  170  140  73  1024  2019-06-07 21:01:34 
4252  166  140  73  1024  2019-06-07 22:01:36 
4253  166  140  73  1025  2019-06-07 23:01:34 
4254  161  140  73  1026  2019-06-08 00:01:36 
4255  161  140  73  1025  2019-06-08 01:01:34 
4256  161  140  73  1027  2019-06-08 02:01:36 
4257  161  135  73  1027  2019-06-08 03:01:33 
4258  160  135  73  1027  2019-06-08 04:01:38 
4259  161  135  73  1027  2019-06-08 05:01:33 
4260  158  135  73  1027  2019-06-08 06:01:35 
4261  160  135  73  1028  2019-06-08 07:01:37 
4262  159  135  73  1028  2019-06-08 08:01:35 
4263  159  136  74  1027  2019-06-08 09:01:37 
4264  164  145  75  1028  2019-06-08 10:01:35 
4265  166  155  76  1027  2019-06-08 11:01:37 
4266  166  159  76  1027  2019-06-08 12:01:35 
4267  169  168  77  1025  2019-06-08 13:01:37 
4268  171  176  77  1024  2019-06-08 14:01:35 
4269  173  181  77  1024  2019-06-08 15:01:37 
4270  176  177  76  1023  2019-06-08 16:01:35 
4271  182  171  76  1022  2019-06-08 17:01:37 
4272  183  161  77  1022  2019-06-08 18:01:35 
4273  186  156  77  1021  2019-06-08 19:01:37 
4274  186  150  76  1021  2019-06-08 20:01:35 
4275  182  137  76  1020  2019-06-08 21:01:37 
4276  176  130  75  1020  2019-06-08 22:01:35 
4277  175  125  75  1019  2019-06-08 23:01:37 
4278  171  120  74  1018  2019-06-09 00:01:35 
4279  166  115  74  1017  2019-06-09 01:01:37 
4280  166  110  74  1016  2019-06-09 02:01:35 
4281  161  107  74  1015  2019-06-09 03:01:37 
4282  163  120  74  1014  2019-06-09 04:01:35 
4283  161  122  73  1013  2019-06-09 05:01:37 
4284  164  151  72  1011  2019-06-09 06:01:35 
4285  166  171  71  1011  2019-06-09 07:01:36 
4286  167  191  67  1011  2019-06-09 08:01:34 
4287  176  208  67  1012  2019-06-09 10:01:35 
4288  181  206  70  1011  2019-06-09 11:01:37 
4289  182  211  70  1011  2019-06-09 12:01:35 
4290  186  211  71  1012  2019-06-09 13:01:37 
4291  194  216  72  1012  2019-06-09 14:01:35 
4292  196  223  73  1013  2019-06-09 15:01:37 
4293  199  213  74  1014  2019-06-09 16:01:35 
4294  201  196  74  1014  2019-06-09 17:01:37 
4295  203  186  74  1015  2019-06-09 18:01:35 
4296  206  186  74  1015  2019-06-09 19:01:33 
4297  201  186  74  1016  2019-06-09 20:01:36 
4298  201  181  74  1017  2019-06-09 21:01:34 
4299  197  181  74  1018  2019-06-09 22:01:36 
4300  196  181  73  1018  2019-06-09 23:01:34 
4301  196  178  73  1019  2019-06-10 00:01:36 
4302  193  176  73  1019  2019-06-10 02:01:36 
4303  191  171  73  1021  2019-06-10 03:01:34 
4304  191  167  73  1020  2019-06-10 04:01:39 
4305  191  164  73  1020  2019-06-10 05:01:34 
4306  187  156  73  1021  2019-06-10 06:01:36 
4307  187  151  73  1021  2019-06-10 07:01:34 
4308  186  151  73  1022  2019-06-10 08:01:36 
4309  191  151  73  1023  2019-06-10 09:01:34 
4310  196  160  73  1023  2019-06-10 10:01:36 
4311  196  161  72  1024  2019-06-10 11:01:34 
4312  194  169  72  1024  2019-06-10 12:01:42 
4313  196  166  72  1023  2019-06-10 13:01:34 
4314  198  181  71  1023  2019-06-10 14:01:36 
4315  197  176  71  1022  2019-06-10 15:01:34 
4316  201  181  71  1022  2019-06-10 16:01:37 
4317  201  173  70  1022  2019-06-10 17:01:34 
4318  202  166  70  1022  2019-06-10 18:01:36 
4319  204  156  71  1022  2019-06-10 19:01:34 
4320  201  151  70  1022  2019-06-10 20:01:36 
4321  201  150  70  1022  2019-06-10 21:01:34 
4322  196  141  67  1022  2019-06-10 22:01:36 
4323  189  135  67  1022  2019-06-10 23:01:35 
4324  186  135  67  1022  2019-06-11 00:01:36 
4325  182  130  67  1021  2019-06-11 01:01:34 
4326  177  127  67  1022  2019-06-11 02:01:36 
4327  176  120  66  1021  2019-06-11 03:01:34 
4328  171  115  66  1020  2019-06-11 04:01:36 
4329  169  110  66  1019  2019-06-11 05:01:34 
4330  166  106  66  1019  2019-06-11 07:01:34 
4331  165  107  66  1019  2019-06-11 08:01:36 
4332  166  120  67  1018  2019-06-11 09:01:34 
4333  169  135  67  1017  2019-06-11 10:01:36 
4334  171  151  70  1017  2019-06-11 11:01:34 
4335  174  165  70  1017  2019-06-11 12:01:36 
4336  177  176  70  1016  2019-06-11 13:01:34 
4337  178  181  71  1015  2019-06-11 14:01:36 
4338  181  181  71  1015  2019-06-11 15:01:34 
4339  186  181  71  1015  2019-06-11 16:01:36 
4340  191  175  71  1014  2019-06-11 17:01:34 
4341  191  166  71  1014  2019-06-11 18:01:37 
4342  191  166  71  1016  2019-06-11 19:01:34 
4343  191  166  71  1016  2019-06-11 20:01:36 
4344  190  166  71  1016  2019-06-11 21:01:34 
4345  189  161  71  1017  2019-06-11 22:01:36 
4346  186  161  71  1017  2019-06-11 23:01:34 
4347  188  161  71  1018  2019-06-12 00:01:36 
4348  187  157  71  1019  2019-06-12 01:01:34 
4349  186  156  71  1019  2019-06-12 02:01:36 
4350  186  145  70  1019  2019-06-12 03:01:34 
4351  183  145  70  1020  2019-06-12 04:01:36 
4352  185  143  67  1021  2019-06-12 05:01:34 
4353  181  135  67  1021  2019-06-12 06:01:36 
4354  181  132  67  1021  2019-06-12 07:01:34 
4355  179  130  67  1023  2019-06-12 08:01:36 
4356  181  135  67  1024  2019-06-12 09:01:34 
4357  181  140  67  1024  2019-06-12 10:01:36 
4358  182  135  67  1026  2019-06-12 11:01:34 
4359  178  140  66  1026  2019-06-12 12:01:36 
4360  181  151  66  1025  2019-06-12 13:01:34 
4361  183  156  65  1027  2019-06-12 14:01:36 
4362  185  156  65  1026  2019-06-12 15:01:38 
4363  186  145  65  1028  2019-06-12 16:01:35 
4364  186  140  63  1028  2019-06-12 17:01:37 
4365  186  133  63  1029  2019-06-12 18:01:35 
4366  186  127  64  1030  2019-06-12 19:01:37 
4367  187  120  65  1031  2019-06-12 20:01:35 
4368  186  115  65  1031  2019-06-12 21:01:37 
4369  177  106  65  1031  2019-06-12 22:01:35 
4370  171  100  65  1031  2019-06-12 23:01:37 
4371  166  95  64  1032  2019-06-13 00:01:35 
4372  161  90  64  1033  2019-06-13 01:01:36 
4373  156  85  63  1033  2019-06-13 02:01:35 
4374  152  80  63  1034  2019-06-13 03:01:36 
4375  151  78  63  1033  2019-06-13 04:01:34 
4376  147  73  63  1032  2019-06-13 05:01:36 
4377  145  70  63  1032  2019-06-13 06:01:37 
4378  139  65  63  1034  2019-06-13 07:01:36 
4379  135  60  63  1033  2019-06-13 08:01:33 
4380  140  60  63  1034  2019-06-13 09:01:35 
4381  140  85  65  1035  2019-06-13 10:01:37 
4382  140  105  65  1034  2019-06-13 11:01:35 
4383  145  120  65  1032  2019-06-13 12:01:37 
4384  151  133  66  1032  2019-06-13 13:01:34 
4385  151  143  66  1032  2019-06-13 14:01:36 
4386  156  151  63  1031  2019-06-13 15:01:34 
4387  156  149  62  1031  2019-06-13 16:01:36 
4388  156  140  63  1031  2019-06-13 17:01:34 
4389  152  125  64  1030  2019-06-13 18:01:36 
4390  152  113  65  1031  2019-06-13 19:01:34 
4391  160  100  66  1031  2019-06-13 20:01:36 
4392  161  90  66  1031  2019-06-13 21:01:37 
4393  155  85  64  1031  2019-06-13 22:01:35 
4394  151  80  64  1030  2019-06-13 23:01:37 
4395  143  75  64  1029  2019-06-14 00:01:34 
4396  140  65  64  1030  2019-06-14 01:01:36 
4397  135  60  64  1029  2019-06-14 02:01:34 
4398  130  55  63  1028  2019-06-14 03:01:36 
4399  125  50  63  1029  2019-06-14 04:01:36 
4400  125  45  62  1029  2019-06-14 05:01:35 
4401  120  42  62  1029  2019-06-14 06:01:37 
4402  115  40  62  1029  2019-06-14 07:01:35 
4403  115  35  63  1030  2019-06-14 08:01:36 
4404  115  45  63  1028  2019-06-14 09:01:34 
4405  129  68  64  1029  2019-06-14 10:01:36 
4406  127  100  64  1028  2019-06-14 11:01:37 
4407  130  121  65  1028  2019-06-14 12:01:35 
4408  130  144  66  1027  2019-06-14 13:01:37 
4409  135  161  70  1026  2019-06-14 14:01:35 
4410  140  169  71  1026  2019-06-14 15:01:36 
4411  143  171  71  1024  2019-06-14 16:01:34 
4412  145  161  72  1024  2019-06-14 17:01:36 
4413  145  145  73  1024  2019-06-14 18:01:34 
4414  148  127  72  1025  2019-06-14 19:01:36 
4415  155  115  72  1024  2019-06-14 20:01:34 
4416  156  105  71  1024  2019-06-14 21:01:36 
4417  148  90  70  1024  2019-06-14 22:01:37 
4418  141  85  67  1023  2019-06-14 23:01:35 
4419  136  75  67  1022  2019-06-15 00:01:37 
4420  135  70  66  1022  2019-06-15 01:01:34 
4421  135  65  66  1022  2019-06-15 02:01:36 
4422  130  60  66  1022  2019-06-15 03:01:34 
4423  129  55  66  1021  2019-06-15 04:01:37 
4424  125  50  65  1021  2019-06-15 05:01:37 
4425  120  50  65  1021  2019-06-15 06:01:37 
4426  120  45  65  1021  2019-06-15 07:01:34 
4427  117  45  65  1022  2019-06-15 08:01:36 
4428  115  50  66  1023  2019-06-15 09:01:34 
4429  125  110  77  1024  2019-06-15 11:01:37 
4430  134  140  100  1024  2019-06-15 12:01:35 
4431  140  156  102  1023  2019-06-15 13:01:37 
4432  146  176  103  1021  2019-06-15 14:01:35 
4433  156  182  102  1021  2019-06-15 15:01:37 
4434  159  181  76  1021  2019-06-15 16:01:35 
4435  156  176  74  1022  2019-06-15 17:01:37 
4436  155  163  74  1022  2019-06-15 18:01:35 
4437  151  145  74  1022  2019-06-15 19:01:37 
4438  166  131  75  1023  2019-06-15 20:01:35 
4439  161  120  73  1023  2019-06-15 21:01:37 
4440  154  111  73  1022  2019-06-15 22:01:35 
4441  151  105  72  1023  2019-06-15 23:01:37 
4442  145  95  72  1022  2019-06-16 00:01:34 
4443  140  90  71  1021  2019-06-16 01:01:36 
4444  140  85  71  1021  2019-06-16 02:01:37 
4445  135  80  71  1021  2019-06-16 03:01:35 
4446  135  79  71  1020  2019-06-16 04:01:38 
4447  130  70  71  1020  2019-06-16 05:01:34 
4448  130  70  70  1019  2019-06-16 06:01:36 
4449  130  65  70  1019  2019-06-16 07:01:34 
4450  125  60  70  1020  2019-06-16 08:01:35 
4451  125  65  71  1020  2019-06-16 09:01:37 
4452  125  85  73  1020  2019-06-16 10:01:35 
4453  132  115  75  1020  2019-06-16 11:01:36 
4454  140  136  76  1019  2019-06-16 12:01:34 
4455  145  161  76  1018  2019-06-16 13:01:36 
4456  150  171  66  1017  2019-06-16 14:01:34 
4457  156  181  60  1016  2019-06-16 15:01:36 
4458  156  184  61  1017  2019-06-16 16:01:38 
4459  161  178  61  1017  2019-06-16 17:01:35 
4460  161  163  63  1017  2019-06-16 18:01:37 
4461  161  151  66  1019  2019-06-16 19:01:35 
4462  166  130  65  1019  2019-06-16 20:01:37 
4463  161  120  66  1019  2019-06-16 21:01:35 
4464  156  110  66  1019  2019-06-16 22:01:37 
4465  151  100  65  1019  2019-06-16 23:01:35 
4466  147  94  65  1019  2019-06-17 00:01:36 
4467  135  75  66  1020  2019-06-17 02:48:29 
4468  135  75  65  1020  2019-06-17 03:01:38 
4469  135  70  64  1020  2019-06-17 04:01:41 
4470  130  65  64  1019  2019-06-17 05:01:38 
4471  130  65  64  1020  2019-06-17 06:01:35 
4472  125  60  64  1020  2019-06-17 07:01:37 
4473  125  55  64  1020  2019-06-17 08:01:35 
4474  124  57  64  1021  2019-06-17 09:01:37 
4475  126  80  67  1021  2019-06-17 10:01:34 
4476  130  109  66  1022  2019-06-17 11:01:36 
4477  135  135  67  1022  2019-06-17 12:01:34 
4478  135  151  67  1021  2019-06-17 13:01:36 
4479  140  166  70  1020  2019-06-17 14:01:34 
4480  146  179  70  1021  2019-06-17 15:01:36 
4481  151  181  72  1021  2019-06-17 16:01:38 
4482  166  176  74  1022  2019-06-17 17:01:36 
4483  166  156  72  1022  2019-06-17 18:01:34 
4484  168  141  72  1022  2019-06-17 19:01:36 
4485  167  130  72  1023  2019-06-17 20:01:34 
4486  171  119  72  1023  2019-06-17 21:01:36 
4487  171  110  72  1023  2019-06-17 22:01:34 
4488  160  105  70  1023  2019-06-17 23:01:36 
4489  156  100  70  1023  2019-06-18 00:01:34 
4490  151  90  67  1024  2019-06-18 01:01:36 
4491  145  87  67  1023  2019-06-18 02:01:37 
4492  141  80  67  1023  2019-06-18 03:01:35 
4493  140  80  67  1023  2019-06-18 04:01:37 
4494  136  75  66  1022  2019-06-18 05:01:35 
4495  135  70  66  1023  2019-06-18 06:01:37 
4496  134  70  66  1022  2019-06-18 07:01:34 
4497  128  65  67  1022  2019-06-18 08:01:38 
4498  130  70  67  1022  2019-06-18 09:01:34 
4499  130  100  67  1022  2019-06-18 10:01:36 
4500  137  134  70  1022  2019-06-18 11:01:37 
4501  141  161  70  1022  2019-06-18 12:01:35 
4502  159  181  66  1019  2019-06-18 13:01:37 
4503  167  196  65  1019  2019-06-18 14:01:35 
4504  181  211  63  1020  2019-06-18 15:01:37 
4505  183  216  62  1018  2019-06-18 16:01:36 
4506  186  216  63  1019  2019-06-18 17:01:38 
4507  182  200  64  1019  2019-06-18 18:01:36 
4508  181  190  64  1019  2019-06-18 19:01:34 
4509  190  174  65  1020  2019-06-18 20:01:36 
4510  186  171  65  1020  2019-06-18 21:01:34 
4511  181  166  63  1020  2019-06-18 22:01:36 
4512  176  161  62  1021  2019-06-18 23:01:34 
4513  171  153  62  1021  2019-06-19 00:01:36 
4514  171  151  62  1021  2019-06-19 01:01:35 
4515  171  140  63  1021  2019-06-19 02:01:37 
4516  166  130  63  1020  2019-06-19 03:01:34 
4517  161  120  63  1020  2019-06-19 04:01:37 
4518  160  115  63  1019  2019-06-19 05:01:34 
4519  156  107  63  1019  2019-06-19 06:01:37 
4520  156  105  63  1020  2019-06-19 07:01:34 
4521  152  99  63  1021  2019-06-19 08:01:36 
4522  156  100  63  1021  2019-06-19 09:01:34 
4523  159  120  63  1023  2019-06-19 10:01:36 
4524  161  142  63  1021  2019-06-19 11:01:34 
4525  170  166  62  1022  2019-06-19 12:01:36 
4526  171  186  61  1021  2019-06-19 13:01:34 
4527  181  204  60  1021  2019-06-19 14:01:37 
4528  181  206  60  1020  2019-06-19 15:01:35 
4529  183  206  60  1021  2019-06-19 16:01:37 
4530  184  197  60  1020  2019-06-19 17:01:35 
4531  182  186  60  1021  2019-06-19 18:01:37 
4532  181  180  60  1022  2019-06-19 19:01:36 
4533  182  172  61  1022  2019-06-19 20:01:37 
4534  181  166  61  1023  2019-06-19 21:01:36 
4535  180  156  60  1023  2019-06-19 22:01:34 
4536  175  142  60  1023  2019-06-19 23:01:36 
4537  171  130  61  1022  2019-06-20 00:01:34 
4538  167  120  60  1022  2019-06-20 01:01:36 
4539  166  115  60  1022  2019-06-20 02:01:34 
4540  161  105  60  1022  2019-06-20 03:01:37 
4541  161  105  60  1021  2019-06-20 04:01:34 
4542  156  100  57  1021  2019-06-20 05:01:36 
4543  156  100  57  1021  2019-06-20 06:01:34 
4544  152  95  57  1022  2019-06-20 07:01:36 
4545  151  90  57  1021  2019-06-20 08:01:37 
4546  150  95  57  1021  2019-06-20 09:01:35 
4547  152  110  57  1022  2019-06-20 10:01:37 
4548  157  134  57  1020  2019-06-20 11:01:35 
4549  161  161  60  1020  2019-06-20 12:01:37 
4550  164  186  60  1020  2019-06-20 13:01:35 
4551  166  203  61  1019  2019-06-20 14:01:37 
4552  174  207  60  1018  2019-06-20 15:01:35 
4553  176  206  61  1018  2019-06-20 16:01:37 
4554  178  201  62  1017  2019-06-20 17:01:35 
4555  176  176  62  1017  2019-06-20 18:01:38 
4556  181  161  62  1017  2019-06-20 19:01:36 
4557  182  151  62  1017  2019-06-20 20:01:34 
4558  182  140  62  1017  2019-06-20 21:01:37 
4559  183  130  62  1016  2019-06-20 22:01:35 
4560  177  120  61  1016  2019-06-20 23:01:37 
4561  171  115  61  1017  2019-06-21 00:01:35 
4562  166  115  60  1016  2019-06-21 01:01:37 
4563  165  114  60  1015  2019-06-21 02:01:35 
4564  160  110  60  1015  2019-06-21 03:01:37 
4565  159  105  60  1015  2019-06-21 04:01:35 
4566  156  104  60  1014  2019-06-21 05:01:37 
4567  155  100  57  1013  2019-06-21 06:01:35 
4568  151  105  57  1013  2019-06-21 07:01:37 
4569  154  102  60  1014  2019-06-21 08:01:35 
4570  157  130  57  1013  2019-06-21 09:01:37 
4571  159  147  57  1012  2019-06-21 10:01:35 
4572  162  166  55  1013  2019-06-21 11:01:37 
4573  168  186  55  1012  2019-06-21 12:01:35 
4574  171  191  55  1011  2019-06-21 13:01:37 
4575  171  196  56  1011  2019-06-21 14:01:35 
4576  171  176  60  1011  2019-06-21 15:01:37 
4577  176  168  62  1012  2019-06-21 16:01:35 
4578  179  161  62  1012  2019-06-21 17:01:37 
4579  181  151  62  1011  2019-06-21 18:01:35 
4580  181  145  62  1009  2019-06-21 19:01:38 
4581  182  140  64  1009  2019-06-21 20:01:37 
4582  186  135  64  1006  2019-06-21 21:01:35 
4583  186  142  64  1007  2019-06-21 22:01:38 
4584  181  151  65  1011  2019-06-21 23:01:36 
4585  176  135  65  1015  2019-06-22 00:01:34 
4586  176  140  65  1018  2019-06-22 01:01:36 
4587  169  120  65  1018  2019-06-22 02:01:34 
4588  168  120  66  1020  2019-06-22 03:01:37 
4589  166  119  66  1021  2019-06-22 04:01:34 
4590  166  115  66  1020  2019-06-22 05:01:36 
4591  166  120  66  1022  2019-06-22 06:01:35 
4592  163  121  66  1022  2019-06-22 07:01:37 
4593  161  123  66  1023  2019-06-22 08:01:35 
4594  166  129  67  1024  2019-06-22 09:01:37 
4595  166  131  70  1025  2019-06-22 10:01:35 
4596  166  135  70  1025  2019-06-22 11:01:37 
4597  166  145  71  1026  2019-06-22 12:01:35 
4598  167  156  70  1025  2019-06-22 13:01:38 
4599  171  145  70  1024  2019-06-22 14:01:36 
4600  171  140  71  1023  2019-06-22 15:01:34 
4601  191  140  75  1024  2019-06-22 16:01:37 
4602  196  142  74  1024  2019-06-22 17:01:35 
4603  201  145  74  1025  2019-06-22 18:01:38 
4604  196  145  73  1026  2019-06-22 19:01:36 
4605  191  141  72  1026  2019-06-22 20:01:35 
4606  192  139  71  1026  2019-06-22 21:01:37 
4607  196  138  71  1025  2019-06-22 22:01:36 
4608  199  135  71  1026  2019-06-22 23:01:34 
4609  190  135  71  1026  2019-06-23 00:01:37 
4610  181  125  71  1025  2019-06-23 01:01:35 
4611  176  125  71  1025  2019-06-23 02:01:37 
4612  174  125  71  1024  2019-06-23 03:01:35 
4613  171  124  71  1024  2019-06-23 04:01:37 
4614  166  115  71  1023  2019-06-23 05:01:35 
4615  166  110  71  1024  2019-06-23 06:01:37 
4616  163  110  71  1024  2019-06-23 07:01:34 
4617  159  100  71  1024  2019-06-23 08:01:36 
4618  161  113  71  1024  2019-06-23 09:01:34 
4619  161  140  72  1024  2019-06-23 10:01:36 
4620  162  152  72  1024  2019-06-23 11:01:34 
4621  166  161  72  1023  2019-06-23 12:01:36 
4622  167  171  72  1022  2019-06-23 13:01:34 
4623  169  176  72  1022  2019-06-23 14:01:36 
4624  171  166  71  1020  2019-06-23 16:01:36 
4625  171  151  71  1021  2019-06-23 17:01:34 
4626  186  132  72  1019  2019-06-23 18:01:36 
4627  192  120  72  1020  2019-06-23 19:01:34 
4628  201  110  72  1020  2019-06-23 20:01:36 
4629  181  105  71  1020  2019-06-23 21:01:34 
4630  171  95  71  1020  2019-06-23 22:01:36 
4631  166  95  70  1020  2019-06-23 23:01:34 
4632  161  95  70  1019  2019-06-24 00:01:36 
4633  160  90  70  1019  2019-06-24 01:01:37 
4634  156  85  70  1018  2019-06-24 02:01:36 
4635  155  82  70  1019  2019-06-24 03:01:38 
4636  151  80  67  1019  2019-06-24 04:01:36 
4637  148  75  67  1018  2019-06-24 05:01:38 
4638  145  75  67  1018  2019-06-24 06:01:36 
4639  142  79  67  1018  2019-06-24 07:01:38 
4640  181  75  70  1020  2019-06-24 08:01:35 
4641  153  100  70  1020  2019-06-24 09:01:37 
4642  151  130  70  1020  2019-06-24 10:01:35 
4643  153  151  70  1021  2019-06-24 11:01:37 
4644  156  166  70  1021  2019-06-24 12:01:35 
4645  161  166  72  1020  2019-06-24 13:01:38 
4646  161  166  73  1020  2019-06-24 14:01:36 
4647  166  166  73  1020  2019-06-24 15:01:38 
4648  166  156  73  1021  2019-06-24 16:01:36 
4649  167  149  73  1021  2019-06-24 17:01:38 
4650  173  135  73  1021  2019-06-24 18:01:36 
4651  172  132  73  1020  2019-06-24 19:01:38 
4652  177  130  73  1021  2019-06-24 20:01:36 
4653  171  130  73  1021  2019-06-24 21:01:34 
4654  166  130  73  1021  2019-06-24 22:01:36 
4655  161  127  72  1021  2019-06-24 23:01:34 
4656  161  127  72  1021  2019-06-25 00:01:36 
4657  161  125  72  1020  2019-06-25 01:01:34 
4658  156  130  72  1020  2019-06-25 03:01:38 
4659  156  125  72  1021  2019-06-25 05:01:38 
4660  152  125  72  1020  2019-06-25 06:01:36 
4661  153  135  72  1021  2019-06-25 07:01:34 
4662  156  130  72  1021  2019-06-25 08:01:36 
4663  161  140  73  1022  2019-06-25 09:01:38 
4664  166  146  74  1022  2019-06-25 10:01:36 
4665  176  156  74  1022  2019-06-25 11:01:38 
4666  176  164  74  1021  2019-06-25 12:01:36 
4667  176  171  73  1021  2019-06-25 13:01:34 
4668  181  176  73  1019  2019-06-25 14:01:36 
4669  183  176  73  1019  2019-06-25 15:01:35 
4670  182  168  74  1020  2019-06-25 16:01:37 
4671  183  158  73  1019  2019-06-25 17:01:35 
4672  181  146  73  1020  2019-06-25 18:01:37 
4673  186  143  73  1020  2019-06-25 19:01:35 
4674  187  142  73  1020  2019-06-25 20:01:37 
4675  193  140  72  1021  2019-06-25 21:01:36 
4676  186  141  72  1020  2019-06-25 22:01:38 
4677  182  140  72  1021  2019-06-25 23:01:36 
4678  181  136  72  1020  2019-06-26 00:01:38 
4679  179  140  72  1020  2019-06-26 01:01:36 
4680  176  139  72  1021  2019-06-26 02:01:38 
4681  176  140  72  1022  2019-06-26 03:01:36 
4682  176  130  72  1020  2019-06-26 04:01:38 
4683  175  135  72  1020  2019-06-26 05:01:36 
4684  171  135  72  1020  2019-06-26 06:01:38 
4685  171  137  72  1020  2019-06-26 07:01:36 
4686  171  140  72  1021  2019-06-26 08:01:37 
4687  171  140  72  1020  2019-06-26 09:01:35 
4688  170  156  72  1021  2019-06-26 10:01:38 
4689  171  166  72  1021  2019-06-26 11:01:36 
4690  171  171  73  1020  2019-06-26 12:01:37 
4691  176  182  74  1019  2019-06-26 13:01:35 
4692  177  191  74  1019  2019-06-26 14:01:37 
4693  183  186  74  1019  2019-06-26 15:01:36 
4694  184  171  73  1018  2019-06-26 16:01:38 
4695  181  166  73  1018  2019-06-26 17:01:36 
4696  183  145  73  1019  2019-06-26 18:01:38 
4697  182  128  74  1019  2019-06-26 19:01:36 
4698  181  115  74  1019  2019-06-26 20:01:38 
4699  185  105  73  1018  2019-06-26 21:01:36 
4700  184  96  73  1017  2019-06-26 22:01:34 
4701  186  95  73  1017  2019-06-26 23:01:36 
4702  181  89  72  1017  2019-06-27 00:01:38 
4703  178  80  72  1016  2019-06-27 01:01:36 
4704  175  75  71  1017  2019-06-27 02:01:38 
4705  173  90  71  1016  2019-06-27 03:01:35 
4706  171  94  71  1015  2019-06-27 04:01:37 
4707  166  80  72  1013  2019-06-27 05:20:15 
4708  166  80  71  1012  2019-06-27 06:01:38 
4709  162  75  71  1013  2019-06-27 07:01:36 
4710  161  85  71  1012  2019-06-27 08:01:38 
4711  159  93  71  1012  2019-06-27 09:01:35 
4712  161  115  72  1011  2019-06-27 10:01:37 
4713  161  154  71  1012  2019-06-27 11:01:35 
4714  161  176  70  1012  2019-06-27 12:01:37 
4715  166  181  70  1010  2019-06-27 13:01:35 
4716  166  189  67  1009  2019-06-27 14:01:37 
4717  171  166  70  1008  2019-06-27 15:01:35 
4718  172  163  70  1007  2019-06-27 16:01:37 
4719  172  151  71  1008  2019-06-27 17:01:35 
4720  175  151  71  1008  2019-06-27 18:01:37 
4721  172  145  71  1009  2019-06-27 19:01:35 
4722  176  145  71  1009  2019-06-27 20:01:37 
4723  181  130  72  1009  2019-06-27 21:01:35 
4724  182  125  71  1009  2019-06-27 22:01:37 
4725  183  116  71  1010  2019-06-27 23:01:35 
4726  183  115  71  1011  2019-06-28 00:01:38 
4727  186  110  71  1011  2019-06-28 01:01:35 
4728  186  115  71  1010  2019-06-28 02:01:37 
4729  182  115  71  1010  2019-06-28 03:01:36 
4730  184  120  71  1010  2019-06-28 04:01:38 
4731  184  125  71  1011  2019-06-28 05:01:36 
4732  186  130  71  1012  2019-06-28 06:01:35 
4733  183  133  70  1013  2019-06-28 07:01:37 
4734  182  135  70  1013  2019-06-28 08:01:35 
4735  184  116  70  1014  2019-06-28 09:01:38 
4736  186  114  71  1016  2019-06-28 10:01:36 
4737  185  142  71  1015  2019-06-28 11:01:35 
4738  184  145  71  1017  2019-06-28 12:01:38 
4739  182  145  70  1016  2019-06-28 13:01:36 
4740  181  161  70  1015  2019-06-28 14:01:34 
4741  183  151  71  1015  2019-06-28 15:01:37 
4742  181  145  71  1015  2019-06-28 16:01:36 
4743  187  145  71  1017  2019-06-28 17:01:38 
4744  191  125  71  1017  2019-06-28 18:01:36 
4745  196  135  71  1017  2019-06-28 19:01:34 
4746  196  132  71  1018  2019-06-28 20:01:37 
4747  196  132  71  1018  2019-06-28 21:01:35 
4748  198  130  71  1019  2019-06-28 22:01:38 
4749  193  120  70  1018  2019-06-28 23:01:36 
4750  188  120  70  1019  2019-06-29 00:01:34 
4751  186  120  70  1019  2019-06-29 01:01:37 
4752  181  120  70  1016  2019-06-29 02:01:35 
4753  181  120  70  1017  2019-06-29 03:01:37 
4754  176  115  70  1016  2019-06-29 04:01:36 
4755  176  116  70  1017  2019-06-29 05:01:34 
4756  171  115  71  1017  2019-06-29 06:01:36 
4757  171  114  71  1017  2019-06-29 07:01:38 
4758  171  114  71  1018  2019-06-29 08:01:36 
4759  170  111  72  1017  2019-06-29 09:01:34 
4760  169  120  72  1018  2019-06-29 10:01:36 
4761  169  130  72  1017  2019-06-29 11:01:38 
4762  170  140  72  1016  2019-06-29 12:01:36 
4763  171  156  72  1015  2019-06-29 13:01:38 
4764  172  174  72  1015  2019-06-29 14:01:36 
4765  176  181  71  1014  2019-06-29 15:01:38 
4766  176  181  71  1014  2019-06-29 16:01:36 
4767  176  166  71  1015  2019-06-29 17:01:38 
4768  181  153  72  1014  2019-06-29 18:01:36 
4769  186  151  72  1015  2019-06-29 19:01:38 
4770  187  148  72  1015  2019-06-29 20:01:36 
4771  190  145  71  1015  2019-06-29 21:01:34 
4772  186  140  71  1016  2019-06-29 22:01:36 
4773  181  140  70  1016  2019-06-29 23:01:34 
4774  181  145  70  1016  2019-06-30 00:01:36 
4775  181  141  70  1015  2019-06-30 01:01:34 
4776  180  140  70  1014  2019-06-30 02:01:36 
4777  176  140  70  1014  2019-06-30 03:01:34 
4778  176  130  70  1013  2019-06-30 04:01:36 
4779  174  130  70  1013  2019-06-30 05:01:38 
4780  172  128  70  1013  2019-06-30 06:01:36 
4781  171  126  71  1013  2019-06-30 07:01:38 
4782  171  125  71  1013  2019-06-30 08:01:36 
4783  171  130  71  1012  2019-06-30 09:01:38 
4784  171  132  71  1013  2019-06-30 10:01:36 
4785  171  145  71  1014  2019-06-30 11:01:38 
4786  171  153  71  1013  2019-06-30 12:01:36 
4787  171  156  71  1010  2019-06-30 13:01:38 
4788  171  156  71  1010  2019-06-30 14:01:36 
4789  171  156  71  1010  2019-06-30 15:01:38 
4790  179  161  72  1010  2019-06-30 16:01:36 
4791  181  140  73  1011  2019-06-30 17:01:38 
4792  185  120  72  1010  2019-06-30 18:01:36 
4793  186  115  72  1010  2019-06-30 19:01:38 
4794  191  115  72  1010  2019-06-30 20:01:36 
4795  191  119  72  1010  2019-06-30 21:01:34 
4796  191  115  72  1011  2019-06-30 22:01:37 
4797  189  110  72  1011  2019-06-30 23:01:36 
4798  185  114  72  1010  2019-07-01 00:01:38 
4799  182  115  71  1011  2019-07-01 01:01:36 
4800  181  115  71  1010  2019-07-01 02:01:38 
4801  181  115  71  1012  2019-07-01 03:01:36 
4802  176  115  72  1013  2019-07-01 04:01:38 
4803  175  110  72  1013  2019-07-01 05:01:37 
4804  171  110  72  1014  2019-07-01 06:01:36 
4805  171  115  72  1015  2019-07-01 07:01:38 
4806  169  111  72  1017  2019-07-01 08:01:36 
4807  167  125  72  1018  2019-07-01 09:01:34 
4808  167  130  72  1019  2019-07-01 10:01:37 
4809  169  151  73  1020  2019-07-01 11:01:35 
4810  169  140  73  1019  2019-07-01 12:01:37 
4811  171  161  73  1020  2019-07-01 13:01:35 
4812  171  156  73  1020  2019-07-01 14:01:38 
4813  176  166  75  1020  2019-07-01 15:01:36 
4814  181  156  75  1020  2019-07-01 16:01:35 
4815  181  140  74  1020  2019-07-01 17:01:37 
4816  181  130  74  1021  2019-07-01 18:01:35 
4817  181  120  74  1022  2019-07-01 19:01:38 
4818  181  136  74  1022  2019-07-01 20:01:36 
4819  182  139  73  1022  2019-07-01 21:01:35 
4820  181  143  73  1023  2019-07-01 22:01:37 
4821  181  142  73  1022  2019-07-01 23:01:36 
4822  181  135  73  1022  2019-07-02 00:01:34 
4823  181  140  73  1022  2019-07-02 01:01:36 
4824  181  140  72  1021  2019-07-02 02:01:34 
4825  180  140  72  1021  2019-07-02 03:01:37 
4826  181  145  72  1021  2019-07-02 04:01:34 
4827  181  142  72  1021  2019-07-02 05:01:36 
4828  178  143  72  1021  2019-07-02 06:01:34 
4829  178  136  72  1021  2019-07-02 07:01:36 
4830  177  130  72  1021  2019-07-02 08:01:38 
4831  176  140  73  1022  2019-07-02 09:01:36 
4832  176  143  73  1022  2019-07-02 10:01:38 
4833  176  136  73  1022  2019-07-02 11:01:36 
4834  176  140  73  1022  2019-07-02 12:01:34 
4835  178  139  73  1021  2019-07-02 13:01:36 
4836  177  135  73  1021  2019-07-02 14:01:34 
4837  179  135  73  1021  2019-07-02 15:01:36 
4838  176  135  74  1020  2019-07-02 16:01:34 
4839  178  130  74  1021  2019-07-02 17:01:37 
4840  176  130  75  1022  2019-07-02 18:01:35 
4841  181  130  75  1022  2019-07-02 19:01:37 
4842  181  130  76  1022  2019-07-02 20:01:36 
4843  181  135  76  1022  2019-07-02 21:01:35 
4844  181  140  76  1023  2019-07-02 22:01:37 
4845  182  135  75  1023  2019-07-02 23:01:36 
4846  181  135  75  1022  2019-07-03 00:01:35 
4847  181  135  75  1023  2019-07-03 01:01:37 
4848  181  141  75  1023  2019-07-03 02:01:35 
4849  180  140  75  1023  2019-07-03 03:01:37 
4850  181  140  75  1023  2019-07-03 04:01:40 
4851  181  140  75  1023  2019-07-03 05:01:37 
4852  178  140  75  1023  2019-07-03 06:01:35 
4853  177  140  75  1023  2019-07-03 07:01:38 
4854  181  135  75  1023  2019-07-03 08:01:36 
4855  179  140  75  1023  2019-07-03 09:01:38 
4856  180  145  75  1024  2019-07-03 10:01:36 
4857  176  151  76  1023  2019-07-03 11:01:38 
4858  181  156  76  1023  2019-07-03 12:01:36 
4859  181  161  77  1023  2019-07-03 13:01:34 
4860  184  156  77  1023  2019-07-03 14:01:36 
4861  191  156  101  1022  2019-07-03 15:01:34 
4862  196  152  100  1023  2019-07-03 16:01:37 
4863  198  157  77  1023  2019-07-03 17:01:35 
4864  201  145  76  1022  2019-07-03 18:01:37 
4865  202  145  76  1023  2019-07-03 19:01:35 
4866  201  143  76  1022  2019-07-03 20:01:37 
4867  204  141  76  1022  2019-07-03 21:01:35 
4868  200  132  75  1022  2019-07-03 22:01:37 
4869  196  125  75  1022  2019-07-03 23:01:35 
4870  187  110  75  1022  2019-07-04 01:01:34 
4871  186  112  74  1022  2019-07-04 02:01:37 
4872  183  120  74  1021  2019-07-04 03:01:34 
4873  181  120  75  1021  2019-07-04 04:01:36 
4874  180  115  75  1021  2019-07-04 05:01:34 
4875  179  120  75  1020  2019-07-04 06:01:36 
4876  176  120  75  1021  2019-07-04 07:01:38 
4877  176  125  75  1021  2019-07-04 08:01:36 
4878  174  134  76  1021  2019-07-04 09:01:38 
4879  176  140  76  1022  2019-07-04 10:01:36 
4880  175  161  76  1021  2019-07-04 11:01:38 
4881  178  173  76  1021  2019-07-04 12:01:36 
4882  178  181  76  1021  2019-07-04 13:01:38 
4883  179  170  76  1020  2019-07-04 14:01:36 
4884  179  171  76  1020  2019-07-04 15:01:38 
4885  185  181  77  1021  2019-07-04 16:01:36 
4886  186  171  76  1021  2019-07-04 17:01:38 
4887  188  161  76  1021  2019-07-04 18:01:36 
4888  191  161  76  1021  2019-07-04 19:01:38 
4889  191  145  77  1021  2019-07-04 20:01:36 
4890  193  125  77  1023  2019-07-04 21:01:38 
4891  191  130  77  1024  2019-07-04 22:01:36 
4892  192  127  76  1025  2019-07-04 23:01:38 
4893  191  127  76  1025  2019-07-05 00:01:35 
4894  191  125  76  1025  2019-07-05 01:01:37 
4895  191  115  76  1025  2019-07-05 02:01:35 
4896  186  110  75  1025  2019-07-05 03:01:38 
4897  186  95  75  1025  2019-07-05 04:01:36 
4898  184  89  74  1025  2019-07-05 05:01:37 
4899  181  95  74  1025  2019-07-05 06:01:35 
4900  177  90  74  1026  2019-07-05 07:01:37 
4901  176  85  74  1025  2019-07-05 08:01:34 
4902  176  95  73  1026  2019-07-05 09:01:36 
4903  171  110  74  1026  2019-07-05 10:01:38 
4904  173  125  74  1026  2019-07-05 11:01:36 
4905  173  145  73  1025  2019-07-05 12:01:38 
4906  175  161  72  1024  2019-07-05 13:01:36 
4907  176  171  72  1024  2019-07-05 14:01:38 
4908  181  171  73  1023  2019-07-05 15:01:36 
4909  181  167  73  1022  2019-07-05 16:01:38 
4910  182  151  73  1022  2019-07-05 17:01:36 
4911  181  126  73  1022  2019-07-05 18:01:38 
4912  181  115  74  1022  2019-07-05 19:01:36 
4913  181  105  74  1021  2019-07-05 20:01:38 
4914  190  126  75  1022  2019-07-05 21:01:36 
4915  196  125  75  1021  2019-07-05 22:01:38 
4916  195  130  74  1022  2019-07-05 23:01:36 
4917  191  130  73  1020  2019-07-06 00:01:38 
4918  190  123  73  1020  2019-07-06 01:01:36 
4919  186  118  72  1020  2019-07-06 02:01:34 
4920  181  120  72  1020  2019-07-06 03:01:37 
4921  180  120  72  1019  2019-07-06 04:01:41 
4922  177  123  72  1019  2019-07-06 05:01:36 
4923  176  120  72  1018  2019-07-06 06:01:38 
4924  173  126  72  1018  2019-07-06 07:01:36 
4925  171  125  72  1019  2019-07-06 08:01:37 
4926  171  127  72  1019  2019-07-06 09:01:35 
4927  170  130  73  1018  2019-07-06 11:01:35 
4928  169  140  73  1018  2019-07-06 12:01:37 
4929  176  151  75  1017  2019-07-06 13:01:35 
4930  181  151  76  1018  2019-07-06 14:01:37 
4931  182  145  76  1016  2019-07-06 15:01:35 
4932  186  140  76  1016  2019-07-06 16:01:37 
4933  186  135  76  1016  2019-07-06 17:01:35 
4934  191  138  76  1015  2019-07-06 18:01:37 
4935  191  143  76  1016  2019-07-06 19:01:35 
4936  192  151  76  1016  2019-07-06 20:01:37 
4937  192  156  76  1016  2019-07-06 21:01:35 
4938  196  156  77  1017  2019-07-06 22:01:37 
4939  196  151  76  1018  2019-07-06 23:01:36 
4940  191  139  76  1018  2019-07-07 00:01:38 
4941  190  135  76  1019  2019-07-07 01:01:36 
4942  186  137  76  1019  2019-07-07 02:01:38 
4943  185  135  76  1019  2019-07-07 03:01:37 
4944  182  130  76  1020  2019-07-07 04:01:35 
4945  181  130  76  1020  2019-07-07 05:01:37 
4946  181  133  75  1020  2019-07-07 06:01:35 
4947  176  130  75  1021  2019-07-07 07:01:37 
4948  175  130  75  1021  2019-07-07 08:01:35 
4949  176  135  76  1021  2019-07-07 09:01:37 
4950  176  152  76  1022  2019-07-07 10:01:35 
4951  176  171  76  1023  2019-07-07 11:01:37 
4952  176  171  76  1022  2019-07-07 12:01:35 
4953  179  184  76  1023  2019-07-07 13:01:37 
4954  181  181  76  1021  2019-07-07 14:01:35 
4955  184  181  75  1022  2019-07-07 15:01:37 
4956  186  161  76  1022  2019-07-07 16:01:36 
4957  191  156  76  1022  2019-07-07 17:01:38 
4958  201  150  77  1023  2019-07-07 18:01:36 
4959  201  151  76  1023  2019-07-07 19:01:35 
4960  196  151  77  1022  2019-07-07 20:01:37 
4961  198  156  77  1022  2019-07-07 21:01:35 
4962  196  156  77  1023  2019-07-07 22:01:38 
4963  196  151  76  1024  2019-07-07 23:01:36 
4964  194  151  75  1022  2019-07-08 00:01:38 
4965  191  151  75  1023  2019-07-08 01:01:36 
4966  191  151  75  1023  2019-07-08 02:01:38 
4967  191  151  75  1023  2019-07-08 03:01:36 
4968  190  152  75  1023  2019-07-08 04:01:35 
4969  188  149  75  1023  2019-07-08 05:01:37 
4970  186  151  75  1023  2019-07-08 06:01:35 
4971  187  154  75  1024  2019-07-08 07:01:37 
4972  186  155  75  1024  2019-07-08 08:01:35 
4973  186  156  75  1025  2019-07-08 09:01:37 
4974  191  171  76  1026  2019-07-08 10:01:35 
4975  196  181  77  1026  2019-07-08 11:01:37 
4976  199  179  77  1025  2019-07-08 12:01:35 
4977  201  184  76  1025  2019-07-08 13:01:37 
4978  201  177  76  1026  2019-07-08 14:01:35 
4979  201  175  76  1025  2019-07-08 15:01:37 
4980  205  171  76  1025  2019-07-08 16:01:35 
4981  206  170  76  1025  2019-07-08 17:01:37 
4982  206  166  75  1026  2019-07-08 18:01:35 
4983  209  162  76  1025  2019-07-08 19:01:37 
4984  206  166  75  1025  2019-07-08 20:01:35 
4985  206  154  75  1027  2019-07-08 21:01:37 
4986  201  151  75  1026  2019-07-08 22:01:35 
4987  201  149  75  1026  2019-07-08 23:01:37 
4988  200  150  75  1026  2019-07-09 00:01:35 
4989  197  142  75  1026  2019-07-09 01:01:37 
4990  194  135  75  1025  2019-07-09 02:01:35 
4991  191  125  75  1025  2019-07-09 03:01:37 
4992  191  125  75  1026  2019-07-09 04:01:35 
4993  191  130  75  1026  2019-07-09 05:01:37 
4994  187  125  75  1025  2019-07-09 06:01:35 
4995  186  125  75  1026  2019-07-09 07:01:37 
4996  185  125  75  1026  2019-07-09 08:01:35 
4997  191  125  76  1026  2019-07-09 09:01:37 
4998  189  135  75  1026  2019-07-09 10:01:35 
4999  188  149  76  1025  2019-07-09 11:01:37 
5000  191  166  76  1025  2019-07-09 12:01:35 
5001  192  181  100  1025  2019-07-09 13:01:37 
5002  196  194  77  1023  2019-07-09 14:01:35 
5003  196  201  76  1022  2019-07-09 15:01:38 
5004  201  200  75  1022  2019-07-09 16:01:36 
5005  204  186  75  1022  2019-07-09 17:01:38 
5006  201  156  75  1022  2019-07-09 18:01:36 
5007  206  136  75  1022  2019-07-09 19:01:38 
5008  206  125  75  1022  2019-07-09 20:01:36 
5009  211  115  75  1022  2019-07-09 21:01:38 
5010  211  108  75  1021  2019-07-09 22:01:36 
5011  206  110  74  1022  2019-07-09 23:01:38 
5012  200  112  73  1023  2019-07-10 00:01:36 
5013  201  110  73  1022  2019-07-10 01:01:38 
5014  196  105  73  1022  2019-07-10 02:01:36 
5015  194  102  73  1022  2019-07-10 03:01:38 
5016  191  100  73  1022  2019-07-10 04:01:36 
5017  186  94  73  1021  2019-07-10 05:01:37 
5018  183  85  73  1022  2019-07-10 06:01:35 
5019  181  80  73  1021  2019-07-10 07:01:37 
5020  181  79  73  1022  2019-07-10 08:01:35 
5021  181  95  73  1022  2019-07-10 09:01:37 
5022  180  130  73  1022  2019-07-10 10:01:39 
5023  176  151  73  1022  2019-07-10 11:01:36 
5024  181  171  75  1022  2019-07-10 12:01:38 
5025  181  181  75  1020  2019-07-10 13:01:36 
5026  186  186  75  1019  2019-07-10 14:01:38 
5027  187  186  75  1018  2019-07-10 15:01:36 
5028  190  181  75  1017  2019-07-10 16:01:38 
5029  191  166  75  1018  2019-07-10 17:01:37 
5030  196  145  75  1018  2019-07-10 18:01:35 
5031  196  125  75  1017  2019-07-10 19:01:37 
5032  201  115  75  1019  2019-07-10 20:01:35 
5033  201  104  75  1018  2019-07-10 21:01:38 
5034  201  95  75  1018  2019-07-10 22:01:36 
5035  196  90  73  1017  2019-07-10 23:01:38 
5036  187  75  72  1017  2019-07-11 01:01:38 
5037  186  75  72  1016  2019-07-11 02:01:35 
5038  181  72  71  1016  2019-07-11 03:01:38 
5039  176  65  71  1017  2019-07-11 04:01:44 
5040  171  65  71  1016  2019-07-11 05:01:37 
5041  169  68  71  1016  2019-07-11 06:01:35 
5042  166  65  71  1016  2019-07-11 07:01:37 
5043  164  65  71  1016  2019-07-11 08:01:38 
5044  161  85  71  1017  2019-07-11 09:01:36 
5045  161  117  72  1017  2019-07-11 10:01:38 
5046  161  145  73  1018  2019-07-11 11:01:35 
5047  166  161  77  1018  2019-07-11 12:01:37 
5048  166  163  75  1018  2019-07-11 13:01:35 
5049  171  176  76  1018  2019-07-11 14:01:37 
5050  176  181  76  1017  2019-07-11 15:01:35 
5051  176  175  75  1018  2019-07-11 16:01:37 
5052  178  156  75  1019  2019-07-11 17:01:35 
5053  176  149  75  1020  2019-07-11 18:01:37 
5054  183  140  75  1020  2019-07-11 19:01:35 
5055  186  142  76  1021  2019-07-11 20:01:37 
5056  191  137  76  1021  2019-07-11 21:01:35 
5057  187  140  76  1022  2019-07-11 22:01:37 
5058  186  140  75  1022  2019-07-11 23:01:35 
5059  186  130  75  1023  2019-07-12 00:01:38 
5060  186  127  75  1023  2019-07-12 01:01:35 
5061  181  127  75  1024  2019-07-12 02:01:37 
5062  181  120  75  1025  2019-07-12 03:01:35 
5063  177  120  75  1024  2019-07-12 04:01:37 
5064  176  117  73  1024  2019-07-12 05:01:35 
5065  176  108  72  1024  2019-07-12 06:01:37 
5066  176  100  73  1025  2019-07-12 07:01:35 
5067  176  95  74  1024  2019-07-12 08:01:37 
5068  172  115  74  1025  2019-07-12 09:01:35 
5069  174  135  74  1024  2019-07-12 10:01:37 
5070  171  151  74  1025  2019-07-12 11:01:35 
5071  174  161  74  1024  2019-07-12 12:01:37 
5072  175  166  74  1024  2019-07-12 13:01:39 
5073  176  169  74  1022  2019-07-12 14:01:36 
5074  181  176  74  1022  2019-07-12 15:01:39 
5075  181  166  74  1022  2019-07-12 16:01:36 
5076  180  160  74  1022  2019-07-12 17:01:39 
5077  181  140  74  1022  2019-07-12 18:01:37 
5078  181  130  75  1022  2019-07-12 19:01:38 
5079  181  125  75  1022  2019-07-12 20:01:36 
5080  181  115  75  1022  2019-07-12 21:01:38 
5081  177  110  75  1021  2019-07-12 22:01:37 
5082  176  95  74  1022  2019-07-12 23:01:38 
5083  176  90  74  1021  2019-07-13 00:01:36 
5084  171  85  74  1021  2019-07-13 01:01:38 
5085  171  80  73  1022  2019-07-13 02:01:35 
5086  166  75  73  1021  2019-07-13 03:01:39 
5087  164  80  73  1022  2019-07-13 04:01:35 
5088  161  75  73  1022  2019-07-13 05:01:38 
5089  161  74  73  1022  2019-07-13 06:01:36 
5090  156  65  72  1022  2019-07-13 07:01:37 
5091  156  70  72  1022  2019-07-13 08:01:35 
5092  154  84  72  1023  2019-07-13 09:01:37 
5093  154  125  73  1023  2019-07-13 10:01:44 
5094  156  145  74  1022  2019-07-13 11:01:36 
5095  156  164  74  1023  2019-07-13 12:01:38 
5096  158  176  74  1021  2019-07-13 13:01:36 
5097  166  176  75  1020  2019-07-13 14:01:38 
5098  166  176  76  1019  2019-07-13 15:01:36 
5099  171  166  77  1020  2019-07-13 16:01:38 
5100  172  156  76  1019  2019-07-13 17:01:36 
5101  176  140  77  1020  2019-07-13 18:01:38 
5102  181  120  77  1019  2019-07-13 19:01:36 
5103  181  105  77  1020  2019-07-13 20:01:38 
5104  186  95  76  1020  2019-07-13 21:01:35 
5105  186  90  76  1019  2019-07-13 22:01:37 
5106  181  80  75  1018  2019-07-13 23:01:36 
5107  177  75  74  1019  2019-07-14 00:01:38 
5108  172  68  73  1019  2019-07-14 01:01:36 
5109  171  70  73  1019  2019-07-14 02:01:37 
5110  166  90  73  1018  2019-07-14 03:01:35 
5111  166  85  73  1019  2019-07-14 04:01:37 
5112  161  80  73  1019  2019-07-14 05:01:35 
5113  159  95  73  1019  2019-07-14 06:01:36 
5114  157  85  73  1020  2019-07-14 07:01:38 
5115  156  86  74  1019  2019-07-14 08:01:35 
5116  156  105  74  1019  2019-07-14 09:01:37 
5117  156  125  74  1021  2019-07-14 10:01:35 
5118  156  151  75  1021  2019-07-14 11:01:37 
5119  158  150  75  1020  2019-07-14 12:01:35 
5120  167  166  101  1020  2019-07-14 13:01:37 
5121  176  171  101  1019  2019-07-14 14:01:39 
5122  176  168  77  1020  2019-07-14 15:01:36 
5123  181  166  76  1019  2019-07-14 16:01:39 
5124  181  152  75  1019  2019-07-14 17:01:36 
5125  181  135  76  1019  2019-07-14 18:01:39 
5126  186  131  76  1020  2019-07-14 19:01:37 
5127  186  125  75  1021  2019-07-14 20:01:35 
5128  186  100  75  1021  2019-07-14 21:01:37 
5129  185  94  74  1022  2019-07-14 22:01:39 
5130  181  90  73  1020  2019-07-14 23:01:37 
5131  176  80  73  1020  2019-07-15 00:01:39 
5132  176  80  73  1022  2019-07-15 01:01:36 
5133  171  85  72  1022  2019-07-15 02:01:38 
5134  166  85  72  1021  2019-07-15 03:01:36 
5135  162  75  72  1021  2019-07-15 04:01:40 
5136  161  65  72  1021  2019-07-15 05:01:35 
5137  158  60  72  1022  2019-07-15 06:01:37 
5138  156  60  72  1021  2019-07-15 07:01:35 
5139  151  57  72  1022  2019-07-15 08:01:36 
5140  151  70  72  1023  2019-07-15 09:01:38 
5141  150  97  72  1024  2019-07-15 10:01:36 
5142  151  135  73  1023  2019-07-15 11:01:37 
5143  154  156  75  1023  2019-07-15 12:01:35 
5144  156  176  75  1021  2019-07-15 13:01:37 
5145  161  191  77  1021  2019-07-15 14:01:35 
5146  166  193  100  1020  2019-07-15 15:01:37 
5147  169  186  77  1020  2019-07-15 16:01:35 
5148  171  171  77  1019  2019-07-15 17:01:37 
5149  171  145  77  1021  2019-07-15 18:01:35 
5150  176  130  77  1020  2019-07-15 19:01:37 
5151  181  120  77  1020  2019-07-15 20:01:35 
5152  180  115  76  1020  2019-07-15 21:01:37 
5153  176  120  76  1020  2019-07-15 22:01:39 
5154  174  105  76  1020  2019-07-15 23:01:36 
5155  171  95  75  1019  2019-07-16 00:01:38 
5156  170  90  75  1019  2019-07-16 01:01:36 
5157  166  80  75  1019  2019-07-16 02:01:38 
5158  164  80  74  1018  2019-07-16 03:01:37 
5159  161  70  74  1018  2019-07-16 04:01:35 
5160  158  65  74  1017  2019-07-16 05:01:36 
5161  155  65  74  1017  2019-07-16 06:01:38 
5162  154  55  73  1018  2019-07-16 07:01:36 
5163  151  59  73  1017  2019-07-16 08:01:38 
5164  145  70  73  1018  2019-07-16 09:01:35 
5165  149  105  74  1020  2019-07-16 10:01:37 
5166  151  130  75  1019  2019-07-16 11:01:35 
5167  152  156  76  1019  2019-07-16 12:01:37 
5168  156  176  77  1019  2019-07-16 13:01:39 
5169  161  181  101  1019  2019-07-16 14:01:37 
5170  166  184  102  1018  2019-07-16 15:01:39 
5171  168  172  100  1018  2019-07-16 16:01:36 
5172  168  156  77  1018  2019-07-16 17:01:39 
5173  171  140  77  1018  2019-07-16 18:01:36 
5174  170  127  77  1018  2019-07-16 19:01:38 
5175  173  114  100  1017  2019-07-16 20:01:36 
5176  176  105  77  1019  2019-07-16 21:01:38 
5177  174  130  77  1019  2019-07-16 22:01:36 
5178  173  110  77  1019  2019-07-16 23:01:39 
5179  171  110  76  1018  2019-07-17 00:01:36 
5180  169  110  76  1018  2019-07-17 01:01:38 
5181  166  110  76  1019  2019-07-17 02:01:36 
5182  166  110  76  1017  2019-07-17 03:01:38 
5183  163  105  75  1018  2019-07-17 04:01:36 
5184  161  124  76  1018  2019-07-17 05:01:38 
5185  161  125  76  1018  2019-07-17 06:01:35 
5186  161  125  76  1018  2019-07-17 07:01:37 
5187  160  125  76  1018  2019-07-17 08:01:35 
5188  161  130  76  1020  2019-07-17 09:01:37 
5189  161  135  76  1020  2019-07-17 10:01:39 
5190  161  140  77  1021  2019-07-17 11:01:36 
5191  161  145  77  1020  2019-07-17 12:01:38 
5192  166  151  100  1020  2019-07-17 13:01:36 
5193  174  151  102  1019  2019-07-17 14:01:38 
5194  176  154  100  1019  2019-07-17 15:01:36 
5195  179  151  77  1018  2019-07-17 16:01:38 
5196  181  138  100  1019  2019-07-17 17:01:36 
5197  184  140  100  1018  2019-07-17 18:01:38 
5198  186  146  100  1019  2019-07-17 19:01:36 
5199  186  145  77  1020  2019-07-17 20:01:38 
5200  191  147  100  1018  2019-07-17 21:01:36 
5201  186  148  77  1020  2019-07-17 22:01:38 
5202  185  142  77  1019  2019-07-17 23:01:36 
5203  183  154  77  1018  2019-07-18 00:01:38 
5204  181  150  77  1018  2019-07-18 01:01:36 
5205  179  155  77  1018  2019-07-18 02:01:38 
5206  181  161  100  1018  2019-07-18 03:01:36 
5207  176  161  100  1018  2019-07-18 04:01:38 
5208  176  151  100  1017  2019-07-18 05:01:35 
5209  176  151  100  1017  2019-07-18 06:01:37 
5210  173  145  100  1017  2019-07-18 07:01:35 
5211  173  149  100  1018  2019-07-18 08:01:37 
5212  176  145  101  1017  2019-07-18 09:01:35 
5213  176  151  101  1017  2019-07-18 10:01:37 
5214  176  151  101  1018  2019-07-18 11:01:35 
5215  176  151  101  1018  2019-07-18 12:01:37 
5216  176  151  101  1018  2019-07-18 13:01:35 
5217  176  161  101  1017  2019-07-18 14:01:37 
5218  178  164  101  1017  2019-07-18 15:01:35 
5219  180  166  101  1017  2019-07-18 16:01:37 
5220  181  166  101  1017  2019-07-18 17:01:36 
5221  184  169  101  1016  2019-07-18 18:01:37 
5222  186  166  101  1016  2019-07-18 19:01:35 
5223  191  161  101  1016  2019-07-18 20:01:38 
5224  191  151  102  1016  2019-07-18 21:01:36 
5225  191  151  101  1017  2019-07-18 22:01:38 
5226  191  141  101  1017  2019-07-18 23:01:36 
5227  187  135  101  1017  2019-07-19 00:01:39 
5228  186  125  101  1017  2019-07-19 01:01:37 
5229  181  130  100  1018  2019-07-19 02:01:39 
5230  181  135  100  1017  2019-07-19 03:01:37 
5231  181  128  77  1019  2019-07-19 04:01:39 
5232  176  105  77  1019  2019-07-19 05:01:37 
5233  176  100  77  1019  2019-07-19 06:01:35 
5234  171  96  77  1020  2019-07-19 07:01:37 
5235  171  100  76  1020  2019-07-19 08:01:35 
5236  170  120  76  1020  2019-07-19 09:01:37 
5237  171  105  76  1022  2019-07-19 10:01:39 
5238  167  125  76  1023  2019-07-19 11:01:37 
5239  167  108  76  1023  2019-07-19 12:01:38 
5240  166  110  76  1023  2019-07-19 13:01:36 
5241  168  142  76  1022  2019-07-19 14:01:38 
5242  170  130  76  1023  2019-07-19 15:01:36 
5243  171  130  76  1024  2019-07-19 16:01:39 
5244  169  121  76  1025  2019-07-19 17:01:37 
5245  166  115  76  1025  2019-07-19 18:01:35 
5246  166  111  76  1026  2019-07-19 19:01:37 
5247  166  100  75  1026  2019-07-19 20:01:35 
5248  164  105  75  1027  2019-07-19 21:01:38 
5249  161  90  75  1027  2019-07-19 22:01:36 
5250  166  92  76  1027  2019-07-19 23:01:38 
5251  176  90  76  1029  2019-07-20 00:01:36 
5252  171  90  75  1028  2019-07-20 01:01:38 
5253  167  94  74  1028  2019-07-20 02:01:35 
5254  157  80  74  1028  2019-07-20 05:01:36 
5255  156  75  73  1028  2019-07-20 06:01:38 
5256  154  80  73  1029  2019-07-20 07:01:36 
5257  151  75  74  1030  2019-07-20 08:01:38 
5258  151  80  74  1029  2019-07-20 09:01:35 
5259  151  95  74  1030  2019-07-20 10:01:37 
5260  151  115  74  1031  2019-07-20 11:01:39 
5261  151  125  73  1031  2019-07-20 12:01:37 
5262  151  130  73  1030  2019-07-20 13:01:39 
5263  151  130  73  1031  2019-07-20 14:01:36 
5264  153  134  74  1029  2019-07-20 15:01:38 
5265  156  130  74  1029  2019-07-20 16:01:36 
5266  156  120  74  1028  2019-07-20 17:01:38 
5267  156  110  75  1028  2019-07-20 18:01:36 
5268  156  105  74  1028  2019-07-20 19:01:38 
5269  161  105  76  1027  2019-07-20 20:01:35 
5270  161  96  77  1027  2019-07-20 21:01:37 
5271  161  90  76  1026  2019-07-20 22:01:39 
5272  160  84  75  1027  2019-07-20 23:01:37 
5273  156  76  74  1027  2019-07-21 00:01:38 
5274  156  65  74  1026  2019-07-21 01:01:36 
5275  151  55  74  1025  2019-07-21 02:01:38 
5276  151  45  73  1024  2019-07-21 03:01:37 
5277  145  40  73  1023  2019-07-21 04:01:39 
5278  145  35  73  1023  2019-07-21 05:01:36 
5279  142  30  72  1023  2019-07-21 06:01:38 
5280  140  25  72  1023  2019-07-21 07:01:36 
5281  135  25  72  1022  2019-07-21 08:01:37 
5282  135  45  72  1022  2019-07-21 09:01:39 
5283  136  130  73  1020  2019-07-21 11:01:35 
5284  140  159  73  1019  2019-07-21 12:01:37 
5285  141  181  74  1018  2019-07-21 13:01:38 
5286  145  196  74  1016  2019-07-21 14:01:36 
5287  151  200  73  1016  2019-07-21 15:01:38 
5288  156  199  74  1015  2019-07-21 16:01:36 
5289  156  196  71  1016  2019-07-21 17:01:38 
5290  161  140  72  1014  2019-07-21 18:01:37 
5291  163  121  73  1014  2019-07-21 19:01:39 
5292  176  105  73  1013  2019-07-21 21:01:36 
5293  181  100  73  1013  2019-07-21 22:01:38 
5294  180  90  73  1013  2019-07-21 23:01:36 
5295  176  80  71  1013  2019-07-22 00:01:37 
5296  171  75  70  1012  2019-07-22 01:01:35 
5297  166  80  70  1011  2019-07-22 02:01:37 
5298  166  115  70  1011  2019-07-22 03:01:39 
5299  161  90  70  1011  2019-07-22 04:01:37 
5300  161  105  70  1012  2019-07-22 05:01:38 
5301  156  105  70  1011  2019-07-22 06:01:35 
5302  156  107  71  1012  2019-07-22 07:01:37 
5303  156  110  71  1012  2019-07-22 08:01:39 
5304  158  136  72  1013  2019-07-22 09:01:37 
5305  166  150  74  1012  2019-07-22 10:01:39 
5306  175  156  74  1012  2019-07-22 11:01:36 
5307  176  164  73  1011  2019-07-22 12:01:38 
5308  181  166  74  1010  2019-07-22 13:01:36 
5309  181  161  73  1010  2019-07-22 14:01:38 
5310  184  161  74  1010  2019-07-22 15:01:36 
5311  186  161  74  1009  2019-07-22 16:01:38 
5312  187  151  74  1009  2019-07-22 17:01:36 
5313  191  137  74  1010  2019-07-22 18:01:39 
5314  191  135  74  1009  2019-07-22 19:01:37 
5315  191  131  74  1008  2019-07-22 20:01:35 
5316  191  138  74  1007  2019-07-22 21:01:37 
5317  191  140  74  1008  2019-07-22 22:01:36 
5318  188  135  74  1008  2019-07-22 23:01:38 
5319  186  129  74  1007  2019-07-23 00:01:36 
5320  181  129  74  1006  2019-07-23 01:01:38 
5321  178  128  74  1004  2019-07-23 02:01:35 
5322  177  129  75  1004  2019-07-23 03:01:38 
5323  174  130  75  1003  2019-07-23 04:01:35 
5324  175  126  75  1002  2019-07-23 05:01:37 
5325  171  125  75  1001  2019-07-23 06:01:35 
5326  171  130  75  1001  2019-07-23 07:01:37 
5327  171  120  75  1001  2019-07-23 08:01:35 
5328  180  135  77  1001  2019-07-23 09:01:37 
5329  181  151  76  1001  2019-07-23 10:01:35 
5330  180  95  75  1002  2019-07-23 11:01:37 
5331  181  98  75  1002  2019-07-23 12:01:35 
5332  186  125  75  1001  2019-07-23 13:01:37 
5333  191  109  75  1001  2019-07-23 14:01:35 
5334  191  140  75  1000  2019-07-23 15:01:37 
5335  191  135  74  1001  2019-07-23 16:01:35 
5336  192  132  74  1002  2019-07-23 17:01:38 
5337  190  130  73  1003  2019-07-23 18:01:36 
5338  189  120  72  1005  2019-07-23 19:01:38 
5339  191  111  72  1005  2019-07-23 20:01:36 
5340  191  111  72  1007  2019-07-23 21:01:39 
5341  183  120  70  1008  2019-07-23 22:01:37 
5342  181  120  70  1010  2019-07-23 23:01:35 
5343  174  110  70  1011  2019-07-24 00:01:37 
5344  172  109  70  1012  2019-07-24 01:01:39 
5345  168  95  70  1013  2019-07-24 02:01:37 
5346  166  117  71  1013  2019-07-24 03:01:38 
5347  166  111  71  1015  2019-07-24 04:01:36 
5348  162  115  71  1015  2019-07-24 05:01:38 
5349  161  117  72  1015  2019-07-24 06:01:36 
5350  161  125  72  1016  2019-07-24 07:01:38 
5351  166  125  73  1016  2019-07-24 08:01:36 
5352  170  130  74  1016  2019-07-24 09:01:37 
5353  171  135  73  1017  2019-07-24 10:01:35 
5354  171  140  73  1018  2019-07-24 11:01:37 
5355  171  145  73  1019  2019-07-24 12:01:35 
5356  171  151  73  1018  2019-07-24 13:01:37 
5357  171  151  74  1018  2019-07-24 14:01:35 
5358  176  140  74  1017  2019-07-24 15:01:37 
5359  176  135  74  1018  2019-07-24 16:01:35 
5360  176  120  74  1018  2019-07-24 17:01:38 
5361  175  135  74  1019  2019-07-24 18:01:36 
5362  176  135  75  1019  2019-07-24 19:01:39 
5363  174  135  75  1018  2019-07-24 20:01:37 
5364  175  120  75  1018  2019-07-24 21:01:35 
5365  174  135  75  1020  2019-07-24 22:01:38 
5366  171  128  74  1019  2019-07-24 23:01:36 
5367  171  130  74  1019  2019-07-25 00:01:38 
5368  171  135  74  1018  2019-07-25 01:01:36 
5369  169  135  74  1018  2019-07-25 02:01:38 
5370  169  135  74  1018  2019-07-25 03:01:36 
5371  167  128  74  1018  2019-07-25 04:01:38 
5372  166  123  74  1018  2019-07-25 05:01:36 
5373  166  121  74  1017  2019-07-25 06:01:38 
5374  166  125  74  1019  2019-07-25 07:01:36 
5375  169  130  75  1019  2019-07-25 08:01:38 
5376  176  130  76  1020  2019-07-25 09:01:36 
5377  181  140  75  1020  2019-07-25 10:01:38 
5378  186  151  75  1020  2019-07-25 11:01:36 
5379  189  161  75  1021  2019-07-25 12:01:38 
5380  194  156  75  1020  2019-07-25 13:01:36 
5381  196  156  75  1019  2019-07-25 14:01:38 
5382  195  149  75  1020  2019-07-25 15:01:36 
5383  192  140  74  1021  2019-07-25 16:01:38 
5384  192  140  75  1021  2019-07-25 17:01:36 
5385  191  135  74  1022  2019-07-25 18:01:38 
5386  186  135  74  1023  2019-07-25 19:01:36 
5387  186  130  74  1023  2019-07-25 20:01:38 
5388  181  128  75  1023  2019-07-25 21:01:36 
5389  181  130  75  1024  2019-07-25 22:01:38 
5390  181  130  75  1025  2019-07-25 23:01:36 
5391  177  127  75  1025  2019-07-26 00:01:38 
5392  176  125  75  1025  2019-07-26 01:01:36 
5393  175  123  75  1025  2019-07-26 02:01:38 
5394  172  121  75  1025  2019-07-26 03:01:36 
5395  175  123  75  1024  2019-07-26 04:01:38 
5396  171  115  75  1024  2019-07-26 05:01:36 
5397  171  100  75  1023  2019-07-26 06:01:38 
5398  169  95  75  1023  2019-07-26 07:01:37 
5399  171  90  76  1023  2019-07-26 08:01:38 
5400  173  105  76  1024  2019-07-26 09:01:36 
5401  172  129  76  1024  2019-07-26 10:01:38 
5402  176  148  77  1023  2019-07-26 11:01:36 
5403  177  166  77  1023  2019-07-26 12:01:38 
5404  176  177  77  1022  2019-07-26 13:01:36 
5405  180  188  76  1021  2019-07-26 14:01:38 
5406  181  186  76  1020  2019-07-26 15:01:36 
5407  183  181  76  1019  2019-07-26 16:01:38 
5408  185  165  76  1020  2019-07-26 17:01:36 
5409  184  140  76  1020  2019-07-26 18:01:38 
5410  184  125  76  1020  2019-07-26 19:01:36 
5411  185  115  76  1021  2019-07-26 20:01:38 
5412  186  105  76  1019  2019-07-26 21:01:36 
5413  186  105  76  1019  2019-07-26 22:01:38 
5414  184  92  75  1019  2019-07-26 23:01:36 
5415  181  85  74  1018  2019-07-27 00:01:38 
5416  176  85  74  1018  2019-07-27 01:01:36 
5417  176  80  74  1018  2019-07-27 02:01:37 
5418  171  75  74  1018  2019-07-27 03:01:35 
5419  168  75  73  1017  2019-07-27 04:01:37 
5420  166  80  73  1016  2019-07-27 05:01:39 
5421  161  80  73  1015  2019-07-27 06:01:36 
5422  161  80  73  1015  2019-07-27 07:01:38 
5423  159  78  73  1016  2019-07-27 08:01:36 
5424  156  119  74  1016  2019-07-27 09:01:38 
5425  156  133  75  1016  2019-07-27 10:01:35 
5426  159  140  76  1016  2019-07-27 11:01:37 
5427  161  155  76  1015  2019-07-27 12:01:39 
5428  161  161  77  1015  2019-07-27 13:01:37 
5429  166  166  100  1015  2019-07-27 14:01:39 
5430  171  161  101  1013  2019-07-27 15:01:36 
5431  171  153  100  1013  2019-07-27 16:01:38 
5432  175  140  100  1014  2019-07-27 17:01:36 
5433  172  135  100  1014  2019-07-27 18:01:38 
5434  171  130  100  1014  2019-07-27 19:01:36 
5435  178  130  101  1014  2019-07-27 20:01:38 
5436  181  125  101  1013  2019-07-27 21:01:36 
5437  186  124  100  1014  2019-07-27 22:01:38 
5438  187  120  100  1014  2019-07-27 23:01:36 
5439  191  125  100  1013  2019-07-28 00:01:38 
5440  186  120  77  1014  2019-07-28 01:01:36 
5441  181  120  77  1013  2019-07-28 02:01:38 
5442  181  119  76  1015  2019-07-28 03:01:36 
5443  176  115  76  1014  2019-07-28 04:01:38 
5444  176  110  76  1013  2019-07-28 05:01:36 
5445  171  110  76  1013  2019-07-28 06:01:38 
5446  171  105  76  1014  2019-07-28 07:01:36 
5447  170  105  76  1014  2019-07-28 08:01:38 
5448  168  119  76  1013  2019-07-28 09:01:36 
5449  166  125  77  1014  2019-07-28 10:01:37 
5450  166  125  77  1014  2019-07-28 11:01:35 
5451  166  148  77  1014  2019-07-28 12:01:37 
5452  166  161  77  1014  2019-07-28 13:01:39 
5453  171  166  77  1013  2019-07-28 14:01:37 
5454  171  166  77  1013  2019-07-28 15:01:39 
5455  176  168  76  1013  2019-07-28 16:01:37 
5456  176  160  76  1013  2019-07-28 17:01:39 
5457  176  135  76  1013  2019-07-28 18:01:37 
5458  186  125  77  1013  2019-07-28 19:01:39 
5459  192  121  100  1013  2019-07-28 20:01:37 
5460  186  105  76  1013  2019-07-28 21:01:39 
5461  186  100  75  1013  2019-07-28 22:01:37 
5462  181  110  75  1013  2019-07-28 23:01:38 
5463  180  110  74  1013  2019-07-29 00:01:36 
5464  176  103  74  1013  2019-07-29 01:01:38 
5465  171  105  74  1012  2019-07-29 02:01:36 
5466  171  105  74  1011  2019-07-29 03:01:38 
5467  168  105  74  1011  2019-07-29 04:01:42 
5468  166  110  74  1011  2019-07-29 05:01:38 
5469  165  120  74  1011  2019-07-29 06:01:36 
5470  161  120  74  1011  2019-07-29 07:01:39 
5471  161  120  75  1012  2019-07-29 08:01:37 
5472  161  125  75  1012  2019-07-29 09:01:39 
5473  162  135  76  1012  2019-07-29 10:01:36 
5474  161  151  76  1012  2019-07-29 11:01:38 
5475  164  155  75  1013  2019-07-29 12:01:36 
5476  166  158  77  1011  2019-07-29 13:01:38 
5477  176  156  100  1010  2019-07-29 14:01:36 
5478  181  149  100  1009  2019-07-29 15:01:38 
5479  181  148  77  1010  2019-07-29 16:01:36 
5480  186  135  77  1010  2019-07-29 17:01:38 
5481  186  130  77  1010  2019-07-29 18:01:36 
5482  187  127  77  1010  2019-07-29 19:01:38 
5483  188  130  77  1009  2019-07-29 20:01:36 
5484  192  130  77  1010  2019-07-29 21:01:38 
5485  191  130  77  1010  2019-07-29 22:01:36 
5486  187  130  77  1008  2019-07-29 23:01:38 
5487  186  135  76  1008  2019-07-30 00:01:37 
5488  182  119  76  1009  2019-07-30 01:01:38 
5489  179  123  76  1009  2019-07-30 02:01:36 
5490  177  135  76  1010  2019-07-30 03:01:38 
5491  176  125  76  1009  2019-07-30 04:01:36 
5492  171  141  76  1009  2019-07-30 05:01:38 
5493  172  140  76  1010  2019-07-30 06:01:36 
5494  171  142  76  1009  2019-07-30 07:01:38 
5495  170  145  76  1011  2019-07-30 08:01:36 
5496  167  120  77  1012  2019-07-30 09:01:38 
5497  171  140  77  1013  2019-07-30 10:01:36 
5498  176  125  100  1012  2019-07-30 11:01:38 
5499  181  125  101  1013  2019-07-30 12:01:36 
5500  186  140  100  1013  2019-07-30 13:01:39 
5501  186  151  76  1013  2019-07-30 14:01:37 
5502  189  156  77  1013  2019-07-30 15:01:39 
5503  193  147  77  1015  2019-07-30 16:01:37 
5504  191  130  76  1014  2019-07-30 17:01:39 
5505  195  116  76  1016  2019-07-30 18:01:37 
5506  193  111  76  1017  2019-07-30 19:01:35 
5507  196  115  76  1017  2019-07-30 20:01:38 
5508  196  119  76  1018  2019-07-30 21:01:36 
5509  196  119  75  1019  2019-07-30 22:01:39 
5510  192  117  74  1020  2019-07-30 23:01:37 
5511  191  115  74  1020  2019-07-31 00:01:39 
5512  191  115  74  1019  2019-07-31 01:01:37 
5513  190  113  74  1019  2019-07-31 02:01:35 
5514  186  111  74  1019  2019-07-31 03:01:38 
5515  186  110  74  1020  2019-07-31 04:01:36 
5516  186  110  74  1019  2019-07-31 05:01:38 
5517  184  105  74  1019  2019-07-31 06:01:36 
5518  186  102  74  1020  2019-07-31 07:01:38 
5519  184  108  75  1021  2019-07-31 08:01:36 
5520  181  115  74  1022  2019-07-31 09:01:38 
5521  179  125  75  1023  2019-07-31 10:01:36 
5522  177  130  75  1022  2019-07-31 11:01:39 
5523  176  145  75  1022  2019-07-31 12:01:37 
5524  181  161  76  1022  2019-07-31 13:01:39 
5525  186  151  77  1022  2019-07-31 14:01:37 
5526  191  156  77  1023  2019-07-31 15:01:36 
5527  191  140  76  1023  2019-07-31 16:01:38 
5528  193  148  76  1023  2019-07-31 17:01:36 
5529  196  130  76  1023  2019-07-31 18:01:38 
5530  196  110  76  1024  2019-07-31 19:01:37 
5531  196  103  76  1023  2019-07-31 20:01:39 
5532  196  100  76  1023  2019-07-31 21:01:37 
5533  194  98  75  1024  2019-07-31 22:01:39 
5534  190  92  74  1024  2019-07-31 23:01:38 
5535  185  90  73  1024  2019-08-01 00:01:39 
5536  181  90  73  1024  2019-08-01 01:01:37 
5537  176  87  73  1023  2019-08-01 02:01:39 
5538  176  80  73  1023  2019-08-01 03:01:36 
5539  169  75  73  1022  2019-08-01 04:01:38 
5540  166  70  73  1021  2019-08-01 05:01:36 
5541  162  75  73  1021  2019-08-01 06:01:38 
5542  160  65  73  1021  2019-08-01 07:01:39 
5543  156  68  73  1021  2019-08-01 08:01:37 
5544  156  105  73  1022  2019-08-01 09:01:38 
5545  156  125  74  1022  2019-08-01 10:01:36 
5546  156  141  74  1021  2019-08-01 11:01:38 
5547  158  156  74  1020  2019-08-01 12:01:36 
5548  158  179  75  1019  2019-08-01 13:01:38 
5549  161  181  76  1018  2019-08-01 14:01:36 
5550  166  182  76  1017  2019-08-01 15:01:38 
5551  171  181  76  1016  2019-08-01 16:01:36 
5552  171  170  76  1016  2019-08-01 17:01:38 
5553  171  145  76  1016  2019-08-01 18:01:36 
5554  171  125  76  1016  2019-08-01 19:01:38 
5555  169  115  76  1016  2019-08-01 20:01:36 
5556  166  102  76  1015  2019-08-01 21:01:38 
5557  171  100  76  1015  2019-08-01 22:01:39 
5558  169  85  75  1016  2019-08-01 23:01:37 
5559  166  85  75  1015  2019-08-02 00:01:39 
5560  166  80  75  1015  2019-08-02 01:01:37 
5561  163  75  74  1014  2019-08-02 02:01:38 
5562  161  70  74  1014  2019-08-02 03:01:36 
5563  156  70  74  1014  2019-08-02 04:01:38 
5564  153  60  74  1014  2019-08-02 05:01:36 
5565  151  60  73  1015  2019-08-02 06:01:37 
5566  151  55  73  1015  2019-08-02 07:01:39 
5567  145  80  73  1017  2019-08-02 08:01:37 
5568  145  105  74  1017  2019-08-02 09:01:38 
5569  146  135  75  1018  2019-08-02 10:01:36 
5570  151  160  76  1018  2019-08-02 11:01:38 
5571  155  166  100  1018  2019-08-02 12:01:36 
5572  160  176  102  1018  2019-08-02 13:01:38 
5573  161  176  103  1017  2019-08-02 14:01:36 
5574  166  165  102  1017  2019-08-02 15:01:38 
5575  165  161  100  1017  2019-08-02 16:01:36 
5576  176  156  102  1018  2019-08-02 17:01:38 
5577  176  135  101  1018  2019-08-02 18:01:36 
5578  181  122  101  1020  2019-08-02 19:01:38 
5579  185  110  100  1020  2019-08-02 20:01:35 
5580  184  100  100  1020  2019-08-02 21:01:38 
5581  181  99  77  1021  2019-08-02 22:01:35 
5582  182  96  77  1021  2019-08-02 23:01:37 
5583  181  95  76  1020  2019-08-03 00:01:39 
5584  176  95  75  1021  2019-08-03 01:01:36 
5585  172  100  75  1020  2019-08-03 02:01:38 
5586  170  95  75  1020  2019-08-03 03:01:36 
5587  166  90  75  1020  2019-08-03 04:01:38 
5588  166  85  75  1020  2019-08-03 05:01:39 
5589  161  90  75  1020  2019-08-03 06:01:37 
5590  161  88  75  1020  2019-08-03 07:01:38 
5591  156  88  75  1020  2019-08-03 08:01:36 
5592  156  105  75  1020  2019-08-03 09:01:38 
5593  156  140  77  1020  2019-08-03 10:01:37 
5594  160  161  77  1022  2019-08-03 11:01:39 
5595  161  169  101  1020  2019-08-03 12:01:36 
5596  163  181  101  1019  2019-08-03 13:01:38 
5597  166  161  101  1018  2019-08-03 14:01:36 
5598  171  166  77  1018  2019-08-03 15:01:38 
5599  173  166  77  1018  2019-08-03 16:01:36 
5600  176  169  100  1018  2019-08-03 17:01:38 
5601  176  166  100  1019  2019-08-03 18:01:36 
5602  176  157  100  1019  2019-08-03 19:01:38 
5603  176  145  100  1020  2019-08-03 20:01:36 
5604  176  135  77  1020  2019-08-03 21:01:38 
5605  171  125  77  1019  2019-08-03 22:01:36 
5606  173  115  77  1019  2019-08-03 23:01:38 
5607  171  115  77  1019  2019-08-04 00:01:36 
5608  171  115  77  1019  2019-08-04 01:01:38 
5609  168  115  77  1019  2019-08-04 02:01:35 
5610  166  110  77  1018  2019-08-04 03:01:40 
5611  166  103  76  1018  2019-08-04 04:01:39 
5612  166  95  76  1018  2019-08-04 05:01:37 
5613  161  95  76  1018  2019-08-04 06:01:38 
5614  161  90  76  1019  2019-08-04 07:01:36 
5615  161  85  76  1020  2019-08-04 08:01:37 
5616  158  95  76  1020  2019-08-04 09:01:39 
5617  161  105  77  1021  2019-08-04 10:01:37 
5618  161  117  77  1022  2019-08-04 11:01:39 
5619  161  130  77  1021  2019-08-04 12:01:36 
5620  166  145  100  1020  2019-08-04 13:01:38 
5621  166  151  101  1021  2019-08-04 14:01:36 
5622  171  156  102  1020  2019-08-04 15:01:38 
5623  175  151  102  1021  2019-08-04 16:01:36 
5624  175  145  101  1020  2019-08-04 17:01:38 
5625  183  140  101  1021  2019-08-04 18:01:36 
5626  185  139  101  1021  2019-08-04 19:01:38 
5627  186  140  101  1021  2019-08-04 19:30:13 
5628  186  135  100  1021  2019-08-04 20:01:36 
5629  184  135  100  1021  2019-08-04 21:01:38 
5630  182  138  100  1021  2019-08-04 22:01:36 
5631  182  137  77  1022  2019-08-04 23:01:38 
5632  181  135  77  1021  2019-08-05 00:01:36 
5633  176  134  77  1020  2019-08-05 02:01:37 
5634  176  135  77  1020  2019-08-05 03:01:39 
5635  176  135  77  1020  2019-08-05 04:01:37 
5636  172  135  77  1019  2019-08-05 05:01:39 
5637  171  135  77  1020  2019-08-05 06:01:37 
5638  171  135  77  1020  2019-08-05 07:01:39 
5639  174  133  77  1020  2019-08-05 08:01:38 
5640  171  130  77  1020  2019-08-05 09:01:36 
5641  171  130  77  1020  2019-08-05 10:01:38 
5642  171  131  77  1021  2019-08-05 11:01:36 
5643  171  135  100  1020  2019-08-05 12:01:38 
5644  172  143  100  1021  2019-08-05 13:01:37 
5645  180  145  101  1020  2019-08-05 14:01:35 
5646  186  148  100  1021  2019-08-05 15:01:38 
5647  186  151  100  1019  2019-08-05 16:01:37 
5648  190  151  100  1019  2019-08-05 17:01:39 
5649  191  151  77  1020  2019-08-05 18:01:38 
5650  193  148  77  1020  2019-08-05 19:01:36 
5651  191  145  100  1020  2019-08-05 20:01:38 
5652  196  145  100  1021  2019-08-05 21:01:36 
5653  191  145  77  1020  2019-08-05 22:01:39 
5654  191  142  77  1021  2019-08-05 23:01:37 
5655  187  140  77  1020  2019-08-06 00:01:39 
5656  186  140  77  1020  2019-08-06 01:01:38 
5657  186  140  77  1020  2019-08-06 02:01:36 
5658  181  143  77  1020  2019-08-06 03:01:38 
5659  181  140  77  1021  2019-08-06 04:01:37 
5660  181  140  100  1020  2019-08-06 05:01:38 
5661  181  140  100  1020  2019-08-06 06:01:37 
5662  180  135  100  1020  2019-08-06 07:01:39 
5663  176  135  100  1020  2019-08-06 08:01:38 
5664  176  135  100  1020  2019-08-06 09:01:36 
5665  176  140  101  1020  2019-08-06 10:01:38 
5666  176  140  101  1020  2019-08-06 11:01:36 
5667  176  144  101  1020  2019-08-06 12:01:38 
5668  176  145  101  1018  2019-08-06 13:01:37 
5669  176  151  102  1017  2019-08-06 14:01:39 
5670  181  156  102  1018  2019-08-06 15:01:38 
5671  181  156  101  1017  2019-08-06 16:01:36 
5672  181  145  100  1017  2019-08-06 17:01:39 
5673  181  140  77  1017  2019-08-06 18:01:37 
5674  181  135  77  1016  2019-08-06 19:01:36 
5675  181  132  77  1016  2019-08-06 20:01:38 
5676  186  130  100  1015  2019-08-06 21:01:37 
5677  188  130  77  1014  2019-08-06 22:01:39 
5678  185  126  77  1013  2019-08-06 23:01:38 
5679  181  125  76  1013  2019-08-07 00:01:36 
5680  181  120  76  1013  2019-08-07 01:01:39 
5681  176  115  76  1012  2019-08-07 02:01:37 
5682  176  110  76  1010  2019-08-07 03:01:39 
5683  175  105  76  1010  2019-08-07 04:01:38 
5684  171  105  76  1008  2019-08-07 05:01:36 
5685  168  109  76  1009  2019-08-07 06:01:38 
5686  171  115  76  1010  2019-08-07 07:01:37 
5687  166  120  76  1010  2019-08-07 08:01:38 
5688  166  125  76  1009  2019-08-07 09:01:36 
5689  166  135  77  1009  2019-08-07 10:01:38 
5690  166  140  77  1008  2019-08-07 11:01:36 
5691  167  134  100  1010  2019-08-07 12:01:39 
5692  171  122  100  1010  2019-08-07 13:01:37 
5693  175  116  77  1011  2019-08-07 14:01:39 
5694  176  120  76  1013  2019-08-07 15:01:37 
5695  181  120  76  1014  2019-08-07 16:01:39 
5696  181  122  76  1015  2019-08-07 17:01:38 
5697  181  120  75  1016  2019-08-07 18:01:36 
5698  182  112  76  1018  2019-08-07 19:01:38 
5699  186  110  75  1019  2019-08-07 20:01:36 
5700  186  106  75  1020  2019-08-07 21:01:39 
5701  181  105  74  1020  2019-08-07 22:01:37 
5702  181  105  74  1021  2019-08-07 23:01:39 
5703  176  105  73  1021  2019-08-08 00:01:37 
5704  171  100  73  1021  2019-08-08 01:01:39 
5705  171  100  73  1021  2019-08-08 02:01:38 
5706  171  100  73  1022  2019-08-08 03:01:40 
5707  166  99  73  1022  2019-08-08 04:01:37 
5708  165  100  74  1022  2019-08-08 05:01:39 
5709  161  100  74  1021  2019-08-08 06:01:37 
5710  161  95  74  1022  2019-08-08 07:01:38 
5711  161  93  74  1023  2019-08-08 08:01:36 
5712  161  95  75  1023  2019-08-08 09:01:37 
5713  161  100  75  1024  2019-08-08 10:01:40 
5714  161  108  76  1024  2019-08-08 11:01:37 
5715  166  110  76  1024  2019-08-08 12:01:35 
5716  166  115  75  1025  2019-08-08 13:01:38 
5717  171  120  75  1025  2019-08-08 14:01:36 
5718  171  120  74  1024  2019-08-08 15:01:38 
5719  171  120  73  1024  2019-08-08 16:01:36 
5720  171  120  72  1024  2019-08-08 17:01:38 
5721  171  115  72  1026  2019-08-08 18:01:36 
5722  174  115  73  1027  2019-08-08 19:01:39 
5723  176  115  74  1027  2019-08-08 20:01:37 
5724  180  114  74  1027  2019-08-08 21:01:39 
5725  176  111  73  1028  2019-08-08 22:01:37 
5726  176  110  73  1029  2019-08-08 23:01:39 
5727  172  111  73  1029  2019-08-09 00:01:37 
5728  171  115  73  1028  2019-08-09 01:01:39 
5729  171  115  73  1029  2019-08-09 02:01:37 
5730  166  110  73  1029  2019-08-09 03:01:40 
5731  166  108  73  1028  2019-08-09 04:01:37 
5732  165  105  73  1029  2019-08-09 05:01:39 
5733  161  101  73  1029  2019-08-09 06:01:37 
5734  161  100  73  1030  2019-08-09 07:01:39 
5735  161  100  73  1030  2019-08-09 08:01:37 
5736  158  105  73  1030  2019-08-09 09:01:39 
5737  158  115  74  1031  2019-08-09 10:01:37 
5738  160  123  74  1031  2019-08-09 11:01:39 
5739  160  130  74  1030  2019-08-09 12:01:37 
5740  161  135  74  1029  2019-08-09 13:01:39 
5741  161  140  75  1029  2019-08-09 14:01:37 
5742  166  145  75  1029  2019-08-09 15:01:39 
5743  166  145  75  1028  2019-08-09 16:01:37 
5744  168  146  75  1027  2019-08-09 17:01:39 
5745  171  145  75  1027  2019-08-09 18:01:37 
5746  176  141  75  1027  2019-08-09 19:01:39 
5747  177  140  76  1027  2019-08-09 20:01:38 
5748  181  139  76  1027  2019-08-09 21:01:36 
5749  184  135  76  1027  2019-08-09 22:01:38 
5750  181  130  75  1026  2019-08-09 23:01:36 
5751  179  115  75  1026  2019-08-10 00:01:39 
5752  176  110  74  1027  2019-08-10 01:01:37 
5753  176  110  74  1026  2019-08-10 02:01:39 
5754  171  105  74  1025  2019-08-10 03:01:37 
5755  169  95  73  1024  2019-08-10 04:01:39 
5756  166  90  73  1023  2019-08-10 05:01:36 
5757  161  85  73  1023  2019-08-10 06:01:38 
5758  161  79  73  1023  2019-08-10 07:01:36 
5759  161  75  73  1023  2019-08-10 08:01:37 
5760  161  80  74  1022  2019-08-10 09:01:39 
5761  161  100  74  1023  2019-08-10 10:01:37 
5762  161  117  74  1022  2019-08-10 11:01:39 
5763  162  135  74  1021  2019-08-10 12:01:37 
5764  163  145  74  1019  2019-08-10 13:01:39 
5765  166  156  74  1018  2019-08-10 14:01:37 
5766  170  160  74  1019  2019-08-10 15:01:39 
5767  171  161  74  1019  2019-08-10 16:01:38 
5768  171  161  74  1020  2019-08-10 17:01:40 
5769  176  156  75  1018  2019-08-10 18:01:38 
5770  171  151  75  1018  2019-08-10 19:01:36 
5771  176  145  76  1020  2019-08-10 20:01:38 
5772  181  140  75  1020  2019-08-10 21:01:36 
5773  181  142  75  1020  2019-08-10 22:01:39 
5774  181  141  75  1019  2019-08-10 23:01:37 
5775  179  140  74  1020  2019-08-11 00:01:39 
5776  176  135  74  1020  2019-08-11 01:01:37 
5777  176  135  74  1020  2019-08-11 02:01:39 
5778  176  137  75  1018  2019-08-11 03:01:37 
5779  174  140  75  1018  2019-08-11 04:01:40 
5780  174  140  75  1019  2019-08-11 05:01:38 
5781  175  135  75  1018  2019-08-11 06:01:36 
5782  173  135  75  1018  2019-08-11 07:01:38 
5783  171  135  75  1018  2019-08-11 08:01:36 
5784  171  134  76  1018  2019-08-11 09:01:38 
5785  171  135  76  1019  2019-08-11 10:01:37 
5786  171  140  76  1020  2019-08-11 11:01:39 
5787  171  142  75  1020  2019-08-11 12:01:37 
5788  171  145  74  1019  2019-08-11 13:01:39 
5789  176  156  74  1019  2019-08-11 14:01:38 
5790  181  156  74  1019  2019-08-11 15:01:36 
5791  188  153  75  1018  2019-08-11 16:01:38 
5792  186  147  74  1019  2019-08-11 17:01:36 
5793  186  140  74  1019  2019-08-11 18:01:39 
5794  190  134  74  1020  2019-08-11 19:01:37 
5795  192  125  74  1021  2019-08-11 20:01:39 
5796  191  125  74  1022  2019-08-11 21:01:38 
5797  191  124  74  1021  2019-08-11 22:01:36 
5798  191  120  73  1021  2019-08-11 23:01:38 
5799  186  116  73  1021  2019-08-12 00:01:36 
5800  184  120  73  1022  2019-08-12 01:01:38 
5801  181  117  72  1022  2019-08-12 02:01:36 
5802  179  115  72  1021  2019-08-12 03:01:39 
5803  176  112  72  1022  2019-08-12 04:01:37 
5804  171  110  72  1022  2019-08-12 05:01:39 
5805  171  110  72  1022  2019-08-12 06:01:37 
5806  171  105  72  1023  2019-08-12 07:01:39 
5807  166  105  72  1023  2019-08-12 08:01:37 
5808  166  105  72  1024  2019-08-12 09:01:39 
5809  166  117  73  1025  2019-08-12 10:01:40 
5810  166  129  73  1025  2019-08-12 11:01:39 
5811  166  140  73  1024  2019-08-12 12:01:38 
5812  166  145  72  1023  2019-08-12 13:01:36 
5813  171  156  72  1023  2019-08-12 14:01:38 
5814  176  161  72  1024  2019-08-12 15:01:36 
5815  176  161  71  1024  2019-08-12 16:01:38 
5816  176  156  71  1024  2019-08-12 17:01:36 
5817  177  155  71  1024  2019-08-12 18:01:38 
5818  181  145  72  1025  2019-08-12 19:01:37 
5819  185  135  73  1025  2019-08-12 20:01:38 
5820  186  130  73  1025  2019-08-12 21:01:37 
5821  186  120  73  1025  2019-08-12 22:01:39 
5822  183  115  72  1024  2019-08-12 23:01:37 
5823  181  110  72  1025  2019-08-13 00:01:39 
5824  178  105  71  1024  2019-08-13 01:01:38 
5825  171  100  71  1024  2019-08-13 03:01:37 
5826  170  95  71  1024  2019-08-13 04:01:39 
5827  167  95  71  1023  2019-08-13 05:01:37 
5828  166  100  71  1024  2019-08-13 06:01:39 
5829  162  105  71  1024  2019-08-13 07:01:36 
5830  163  110  72  1024  2019-08-13 08:01:38 
5831  162  117  73  1025  2019-08-13 09:01:36 
5832  163  130  72  1025  2019-08-13 10:01:38 
5833  166  140  73  1026  2019-08-13 11:01:36 
5834  166  151  73  1025  2019-08-13 12:01:38 
5835  167  158  74  1025  2019-08-13 13:01:36 
5836  171  158  74  1024  2019-08-13 14:01:38 
5837  171  166  74  1024  2019-08-13 15:01:37 
5838  171  166  74  1024  2019-08-13 16:01:39 
5839  176  166  74  1024  2019-08-13 17:01:37 
5840  172  161  75  1024  2019-08-13 18:01:39 
5841  176  161  76  1025  2019-08-13 19:01:37 
5842  181  156  76  1025  2019-08-13 20:01:39 
5843  183  155  77  1026  2019-08-13 21:01:38 
5844  186  156  76  1026  2019-08-13 22:01:36 
5845  185  151  76  1028  2019-08-13 23:01:38 
5846  183  154  76  1027  2019-08-14 00:01:36 
5847  181  152  76  1027  2019-08-14 01:01:38 
5848  181  151  76  1026  2019-08-14 02:01:37 
5849  179  151  76  1027  2019-08-14 03:01:39 
5850  177  151  76  1028  2019-08-14 04:01:37 
5851  177  151  76  1028  2019-08-14 05:01:39 
5852  176  151  76  1028  2019-08-14 06:01:37 
5853  176  151  76  1028  2019-08-14 07:01:39 
5854  174  145  76  1030  2019-08-14 08:01:38 
5855  175  145  76  1031  2019-08-14 09:01:40 
5856  176  156  100  1031  2019-08-14 10:01:38 
5857  177  163  101  1030  2019-08-14 11:01:36 
5858  181  169  102  1031  2019-08-14 12:01:38 
5859  181  166  101  1030  2019-08-14 13:01:36 
5860  186  176  100  1028  2019-08-14 14:01:39 
5861  191  176  100  1029  2019-08-14 15:01:37 
5862  195  176  100  1029  2019-08-14 16:01:40 
5863  193  168  77  1029  2019-08-14 17:01:38 
5864  196  161  77  1029  2019-08-14 18:01:40 
5865  196  152  77  1029  2019-08-14 19:01:38 
5866  196  145  77  1029  2019-08-14 20:01:36 
5867  201  145  77  1029  2019-08-14 21:01:39 
5868  201  140  77  1030  2019-08-14 22:01:37 
5869  196  138  76  1029  2019-08-14 23:01:39 
5870  194  130  75  1028  2019-08-15 00:01:37 
5871  191  122  75  1027  2019-08-15 01:01:39 
5872  191  115  74  1027  2019-08-15 02:01:37 
5873  186  110  74  1027  2019-08-15 03:01:43 
5874  181  104  74  1026  2019-08-15 04:01:39 
5875  181  100  74  1026  2019-08-15 05:01:36 
5876  176  95  73  1026  2019-08-15 06:01:38 
5877  174  90  73  1026  2019-08-15 07:01:40 
5878  171  85  73  1027  2019-08-15 08:01:37 
5879  171  105  73  1027  2019-08-15 09:01:39 
5880  171  129  74  1028  2019-08-15 10:01:37 
5881  171  145  75  1028  2019-08-15 11:01:39 
5882  171  160  75  1027  2019-08-15 12:01:37 
5883  175  166  76  1026  2019-08-15 13:01:39 
5884  176  171  76  1025  2019-08-15 14:01:38 
5885  181  176  77  1024  2019-08-15 15:01:40 
5886  184  176  77  1025  2019-08-15 16:01:38 
5887  185  169  77  1025  2019-08-15 17:01:36 
5888  186  159  77  1024  2019-08-15 18:01:38 
5889  186  151  77  1025  2019-08-15 19:01:36 
5890  184  145  77  1024  2019-08-15 20:01:38 
5891  183  144  77  1024  2019-08-15 21:01:37 
5892  182  137  76  1025  2019-08-15 22:01:39 
5893  181  136  76  1025  2019-08-15 23:01:37 
5894  181  131  76  1024  2019-08-16 00:01:39 
5895  179  132  76  1024  2019-08-16 01:01:37 
5896  176  130  76  1024  2019-08-16 02:01:39 
5897  176  130  76  1024  2019-08-16 03:01:37 
5898  175  125  76  1023  2019-08-16 04:01:40 
5899  171  120  75  1023  2019-08-16 05:01:38 
5900  171  115  75  1024  2019-08-16 06:01:40 
5901  169  110  75  1025  2019-08-16 07:01:38 
5902  166  113  76  1026  2019-08-16 08:01:36 
5903  166  125  76  1026  2019-08-16 09:01:38 
5904  169  145  77  1027  2019-08-16 10:01:36 
5905  171  156  77  1026  2019-08-16 11:01:38 
5906  171  166  100  1026  2019-08-16 12:01:36 
5907  176  181  101  1025  2019-08-16 14:01:37 
5908  181  181  100  1025  2019-08-16 15:01:39 
5909  181  184  100  1026  2019-08-16 16:01:38 
5910  186  176  100  1026  2019-08-16 17:01:40 
5911  185  166  100  1025  2019-08-16 18:01:38 
5912  186  159  77  1025  2019-08-16 19:01:36 
5913  187  155  100  1026  2019-08-16 20:01:38 
5914  194  152  100  1026  2019-08-16 21:01:36 
5915  196  151  77  1026  2019-08-16 22:01:39 
5916  191  149  77  1025  2019-08-16 23:01:37 
5917  191  145  77  1025  2019-08-17 00:01:39 
5918  191  145  77  1024  2019-08-17 01:01:37 
5919  186  140  76  1024  2019-08-17 02:01:39 
5920  186  142  76  1023  2019-08-17 03:01:38 
5921  184  145  76  1023  2019-08-17 04:01:40 
5922  181  145  76  1022  2019-08-17 05:01:38 
5923  181  140  76  1022  2019-08-17 06:01:36 
5924  181  140  75  1021  2019-08-17 07:01:38 
5925  181  140  75  1022  2019-08-17 08:01:36 
5926  176  145  75  1021  2019-08-17 09:01:38 
5927  177  156  75  1021  2019-08-17 10:01:37 
5928  177  166  75  1021  2019-08-17 11:01:39 
5929  180  181  75  1020  2019-08-17 12:01:37 
5930  181  192  75  1019  2019-08-17 13:01:39 
5931  186  199  74  1018  2019-08-17 14:01:37 
5932  191  206  75  1017  2019-08-17 15:01:40 
5933  196  205  76  1017  2019-08-17 16:01:38 
5934  196  197  76  1017  2019-08-17 17:01:36 
5935  196  194  76  1016  2019-08-17 18:01:38 
5936  200  186  76  1017  2019-08-17 19:01:37 
5937  201  171  76  1016  2019-08-17 20:01:39 
5938  206  161  76  1016  2019-08-17 21:01:37 
5939  208  153  76  1016  2019-08-17 22:01:39 
5940  209  142  76  1015  2019-08-17 23:01:37 
5941  206  135  74  1015  2019-08-18 00:01:40 
5942  203  130  74  1014  2019-08-18 01:01:38 
5943  198  124  73  1014  2019-08-18 02:01:36 
5944  196  118  73  1013  2019-08-18 03:01:38 
5945  192  115  73  1012  2019-08-18 04:01:36 
5946  190  110  72  1013  2019-08-18 05:01:38 
5947  186  107  72  1014  2019-08-18 06:01:37 
5948  185  105  72  1014  2019-08-18 07:01:39 
5949  181  130  72  1014  2019-08-18 08:01:37 
5950  181  140  72  1016  2019-08-18 09:01:39 
5951  181  161  72  1017  2019-08-18 10:01:37 
5952  181  171  73  1017  2019-08-18 11:01:39 
5953  181  180  74  1017  2019-08-18 12:01:37 
5954  186  188  76  1018  2019-08-18 13:01:40 
5955  189  186  76  1017  2019-08-18 14:01:38 
5956  191  186  76  1018  2019-08-18 15:01:40 
5957  191  184  76  1020  2019-08-18 16:01:38 
5958  191  179  76  1020  2019-08-18 17:01:36 
5959  191  171  76  1020  2019-08-18 18:01:38 
5960  191  164  76  1021  2019-08-18 19:01:36 
5961  191  161  76  1021  2019-08-18 20:01:38 
5962  191  161  76  1023  2019-08-18 21:01:36 
5963  191  156  76  1024  2019-08-18 22:01:38 
5964  192  156  76  1024  2019-08-18 23:01:36 
5965  191  151  75  1024  2019-08-19 00:01:39 
5966  191  151  75  1024  2019-08-19 01:01:37 
5967  189  140  75  1026  2019-08-19 02:01:39 
5968  186  135  75  1026  2019-08-19 03:01:38 
5969  186  135  74  1026  2019-08-19 04:01:41 
5970  184  131  74  1027  2019-08-19 05:01:39 
5971  181  130  74  1027  2019-08-19 06:01:37 
5972  181  125  74  1028  2019-08-19 07:01:39 
5973  181  120  74  1029  2019-08-19 08:01:37 
5974  178  124  73  1030  2019-08-19 09:01:40 
5975  178  135  73  1030  2019-08-19 10:01:38 
5976  181  151  72  1032  2019-08-19 11:01:40 
5977  181  156  72  1031  2019-08-19 12:01:38 
5978  181  166  71  1030  2019-08-19 13:01:40 
5979  181  171  71  1030  2019-08-19 14:01:38 
5980  182  166  71  1031  2019-08-19 15:01:36 
5981  186  171  71  1030  2019-08-19 16:01:38 
5982  185  161  71  1030  2019-08-19 17:01:36 
5983  183  155  71  1031  2019-08-19 18:01:38 
5984  188  151  73  1031  2019-08-19 19:01:36 
5985  189  140  72  1031  2019-08-19 20:01:39 
5986  191  135  72  1031  2019-08-19 21:01:37 
5987  191  130  72  1032  2019-08-19 22:01:39 
5988  191  125  72  1032  2019-08-19 23:01:37 
5989  191  125  71  1031  2019-08-20 00:01:41 
5990  186  125  71  1032  2019-08-20 01:01:39 
5991  186  125  71  1032  2019-08-20 02:01:37 
5992  181  125  71  1031  2019-08-20 03:01:39 
5993  181  125  71  1031  2019-08-20 04:01:38 
5994  179  125  71  1031  2019-08-20 05:01:39 
5995  176  125  71  1030  2019-08-20 06:01:37 
5996  174  125  71  1029  2019-08-20 07:01:39 
5997  173  129  72  1030  2019-08-20 08:01:37 
5998  172  138  72  1031  2019-08-20 09:01:39 
5999  171  145  72  1031  2019-08-20 10:01:37 
6000  173  156  72  1032  2019-08-20 11:01:39 
6001  176  166  73  1030  2019-08-20 12:01:37 
6002  176  171  73  1030  2019-08-20 13:01:39 
6003  179  171  73  1029  2019-08-20 14:01:37 
6004  181  175  73  1028  2019-08-20 15:01:39 
6005  186  171  74  1028  2019-08-20 16:01:38 
6006  186  166  74  1028  2019-08-20 17:01:40 
6007  186  156  74  1028  2019-08-20 18:01:38 
6008  191  145  74  1028  2019-08-20 19:01:36 
6009  191  145  74  1028  2019-08-20 20:01:38 
6010  190  140  74  1029  2019-08-20 21:01:37 
6011  191  140  74  1029  2019-08-20 22:01:39 
6012  186  135  74  1027  2019-08-20 23:01:37 
6013  186  130  73  1027  2019-08-21 00:01:39 
6014  184  124  73  1026  2019-08-21 01:01:37 
6015  181  115  73  1025  2019-08-21 02:01:39 
6016  177  110  72  1025  2019-08-21 03:01:38 
6017  176  100  72  1023  2019-08-21 04:01:42 
6018  173  95  72  1023  2019-08-21 05:01:37 
6019  171  90  72  1024  2019-08-21 06:01:39 
6020  166  82  71  1024  2019-08-21 07:01:37 
6021  166  80  71  1023  2019-08-21 08:01:38 
6022  162  98  72  1024  2019-08-21 09:01:36 
6023  162  130  72  1024  2019-08-21 10:01:38 
6024  166  157  72  1023  2019-08-21 11:01:36 
6025  167  188  72  1023  2019-08-21 12:01:38 
6026  176  216  72  1021  2019-08-21 13:01:36 
6027  183  236  76  1021  2019-08-21 14:01:39 
6028  186  226  75  1021  2019-08-21 15:01:37 
6029  191  215  74  1020  2019-08-21 16:01:39 
6030  191  206  73  1020  2019-08-21 17:01:37 
6031  191  189  73  1021  2019-08-21 18:01:40 
6032  191  181  73  1021  2019-08-21 19:01:38 
6033  194  166  73  1020  2019-08-21 20:01:40 
6034  191  159  73  1021  2019-08-21 21:01:38 
6035  191  151  72  1021  2019-08-21 22:01:40 
6036  191  135  72  1019  2019-08-21 23:01:38 
6037  188  135  72  1020  2019-08-22 00:01:36 
6038  186  125  72  1021  2019-08-22 01:01:38 
6039  186  116  72  1021  2019-08-22 02:01:36 
6040  181  110  71  1020  2019-08-22 03:01:44 
6041  179  105  71  1020  2019-08-22 04:01:37 
6042  176  100  70  1020  2019-08-22 05:01:39 
6043  174  95  70  1020  2019-08-22 06:01:36 
6044  171  90  70  1021  2019-08-22 07:01:38 
6045  169  85  67  1021  2019-08-22 08:01:40 
6046  169  114  67  1022  2019-08-22 09:01:38 
6047  167  140  70  1022  2019-08-22 10:01:40 
6048  171  173  71  1023  2019-08-22 11:01:37 
6049  171  184  72  1022  2019-08-22 12:01:40 
6050  177  191  100  1022  2019-08-22 13:01:38 
6051  183  196  102  1021  2019-08-22 14:01:40 
6052  186  192  100  1021  2019-08-22 15:01:38 
6053  191  196  100  1022  2019-08-22 16:01:37 
6054  191  186  77  1022  2019-08-22 17:01:39 
6055  191  176  77  1023  2019-08-22 18:01:37 
6056  192  163  77  1024  2019-08-22 19:01:39 
6057  191  161  77  1023  2019-08-22 20:01:37 
6058  191  156  77  1024  2019-08-22 21:01:39 
6059  191  151  77  1024  2019-08-22 22:01:37 
6060  189  140  76  1024  2019-08-22 23:01:40 
6061  186  143  75  1024  2019-08-23 00:01:38 
6062  186  135  75  1023  2019-08-23 01:01:36 
6063  184  125  75  1023  2019-08-23 02:01:38 
6064  180  110  74  1022  2019-08-23 04:01:39 
6065  177  105  74  1023  2019-08-23 05:01:37 
6066  174  100  74  1023  2019-08-23 06:01:39 
6067  171  125  74  1024  2019-08-23 07:01:37 
6068  171  120  74  1024  2019-08-23 08:01:39 
6069  170  120  74  1023  2019-08-23 09:01:37 
6070  171  145  75  1024  2019-08-23 10:01:39 
6071  171  156  75  1025  2019-08-23 11:01:37 
6072  173  171  76  1023  2019-08-23 12:01:39 
6073  176  186  100  1022  2019-08-23 13:01:38 
6074  181  195  100  1022  2019-08-23 14:01:40 
6075  186  202  77  1022  2019-08-23 15:01:38 
6076  191  207  76  1021  2019-08-23 16:01:40 
6077  194  205  76  1021  2019-08-23 17:01:38 
6078  193  191  76  1021  2019-08-23 18:01:36 
6079  194  179  76  1021  2019-08-23 19:01:39 
6080  191  166  76  1022  2019-08-23 20:01:37 
6081  193  156  75  1022  2019-08-23 21:01:39 
6082  191  142  75  1022  2019-08-23 22:01:37 
6083  191  131  75  1022  2019-08-23 23:01:39 
6084  188  125  75  1021  2019-08-24 00:01:38 
6085  186  115  74  1021  2019-08-24 01:01:40 
6086  182  109  73  1021  2019-08-24 02:01:38 
6087  181  100  73  1020  2019-08-24 03:01:40 
6088  176  95  72  1020  2019-08-24 04:01:38 
6089  176  91  72  1019  2019-08-24 05:01:39 
6090  171  90  71  1020  2019-08-24 06:01:37 
6091  170  85  71  1020  2019-08-24 07:01:39 
6092  166  85  71  1020  2019-08-24 08:01:36 
6093  166  108  71  1020  2019-08-24 09:01:38 
6094  166  140  73  1021  2019-08-24 10:01:40 
6095  171  166  73  1020  2019-08-24 11:01:38 
6096  173  181  74  1020  2019-08-24 12:01:40 
6097  177  203  76  1019  2019-08-24 13:01:38 
6098  183  211  70  1018  2019-08-24 14:01:36 
6099  186  212  70  1017  2019-08-24 15:01:39 
6100  191  216  70  1018  2019-08-24 16:01:37 
6101  190  216  65  1017  2019-08-24 17:01:39 
6102  193  215  66  1017  2019-08-24 18:01:37 
6103  196  194  66  1017  2019-08-24 19:01:40 
6104  191  186  66  1018  2019-08-24 20:01:38 
6105  192  176  67  1019  2019-08-24 21:01:40 
6106  195  171  70  1019  2019-08-24 22:01:38 
6107  192  166  70  1019  2019-08-24 23:01:40 
6108  193  161  70  1019  2019-08-25 00:01:38 
6109  193  161  71  1019  2019-08-25 01:01:40 
6110  191  161  71  1019  2019-08-25 02:01:38 
6111  191  161  71  1019  2019-08-25 03:01:40 
6112  191  159  71  1019  2019-08-25 04:01:38 
6113  191  156  71  1019  2019-08-25 05:01:40 
6114  190  156  71  1019  2019-08-25 06:01:38 
6115  189  151  72  1019  2019-08-25 07:01:36 
6116  189  151  72  1020  2019-08-25 08:01:39 
6117  187  153  72  1021  2019-08-25 09:01:37 
6118  187  156  72  1021  2019-08-25 10:01:39 
6119  186  166  73  1020  2019-08-25 11:01:37 
6120  191  171  74  1020  2019-08-25 12:01:39 
6121  191  180  74  1020  2019-08-25 13:01:37 
6122  195  186  74  1020  2019-08-25 14:01:40 
6123  196  181  74  1021  2019-08-25 15:01:38 
6124  196  171  75  1020  2019-08-25 16:01:40 
6125  196  166  75  1020  2019-08-25 17:01:38 
6126  196  156  75  1020  2019-08-25 18:01:36 
6127  196  151  75  1021  2019-08-25 19:01:39 
6128  196  145  75  1021  2019-08-25 20:01:37 
6129  196  144  74  1022  2019-08-25 21:01:39 
6130  196  142  74  1022  2019-08-25 22:01:37 
6131  191  140  73  1023  2019-08-25 23:01:40 
6132  191  139  73  1022  2019-08-26 00:01:38 
6133  191  135  72  1023  2019-08-26 01:01:40 
6134  188  135  72  1022  2019-08-26 02:01:38 
6135  187  131  72  1022  2019-08-26 03:01:40 
6136  186  130  72  1022  2019-08-26 04:01:38 
6137  185  125  72  1022  2019-08-26 05:01:40 
6138  181  125  71  1022  2019-08-26 06:01:38 
6139  181  126  71  1023  2019-08-26 07:01:40 
6140  179  128  71  1024  2019-08-26 08:01:38 
6141  181  133  71  1025  2019-08-26 09:01:36 
6142  181  145  71  1025  2019-08-26 10:01:38 
6143  181  146  70  1024  2019-08-26 11:01:36 
6144  185  151  70  1025  2019-08-26 12:01:38 
6145  188  151  70  1025  2019-08-26 13:01:37 
6146  191  156  70  1024  2019-08-26 14:01:39 
6147  196  155  71  1024  2019-08-26 15:01:37 
6148  200  161  71  1024  2019-08-26 16:01:39 
6149  201  161  70  1024  2019-08-26 17:01:37 
6150  201  151  67  1025  2019-08-26 18:01:40 
6151  198  145  66  1025  2019-08-26 19:01:38 
6152  196  136  66  1025  2019-08-26 20:01:40 
6153  193  135  66  1026  2019-08-26 21:01:38 
6154  191  130  66  1025  2019-08-26 22:01:40 
6155  190  129  66  1026  2019-08-26 23:01:38 
6156  186  130  66  1025  2019-08-27 00:01:40 
6157  186  129  66  1025  2019-08-27 01:01:38 
6158  183  130  67  1025  2019-08-27 02:01:37 
6159  181  125  67  1024  2019-08-27 03:01:39 
6160  181  129  67  1025  2019-08-27 04:01:37 
6161  179  125  67  1024  2019-08-27 05:01:39 
6162  177  120  67  1025  2019-08-27 06:01:37 
6163  176  120  67  1026  2019-08-27 07:01:39 
6164  176  120  70  1026  2019-08-27 08:01:37 
6165  181  124  71  1027  2019-08-27 09:01:39 
6166  183  130  71  1026  2019-08-27 10:01:37 
6167  185  145  70  1027  2019-08-27 11:01:41 
6168  186  156  70  1026  2019-08-27 12:01:39 
6169  188  164  70  1026  2019-08-27 13:01:37 
6170  191  164  67  1026  2019-08-27 14:01:40 
6171  196  167  67  1025  2019-08-27 15:01:38 
6172  191  166  66  1025  2019-08-27 16:01:40 
6173  191  161  66  1025  2019-08-27 17:01:38 
6174  192  150  65  1026  2019-08-27 18:01:40 
6175  192  140  66  1026  2019-08-27 19:01:38 
6176  193  130  66  1027  2019-08-27 20:01:37 
6177  195  125  67  1027  2019-08-27 21:01:39 
6178  196  120  67  1027  2019-08-27 22:01:37 
6179  191  112  66  1027  2019-08-27 23:01:39 
6180  188  105  66  1027  2019-08-28 00:01:37 
6181  185  103  65  1027  2019-08-28 01:01:39 
6182  181  100  65  1026  2019-08-28 02:01:37 
6183  171  90  65  1026  2019-08-28 05:01:38 
6184  168  85  65  1026  2019-08-28 06:01:40 
6185  166  80  65  1027  2019-08-28 07:01:38 
6186  165  80  66  1028  2019-08-28 08:01:40 
6187  161  95  66  1028  2019-08-28 09:01:37 
6188  161  109  66  1028  2019-08-28 10:01:39 
6189  165  131  67  1028  2019-08-28 11:01:37 
6190  176  151  67  1027  2019-08-28 13:01:38 
6191  181  145  67  1026  2019-08-28 14:01:41 
6192  186  151  67  1025  2019-08-28 15:01:38 
6193  188  145  67  1025  2019-08-28 16:01:36 
6194  191  140  67  1025  2019-08-28 17:01:39 
6195  196  135  66  1025  2019-08-28 18:01:37 
6196  196  130  66  1025  2019-08-28 19:01:39 
6197  196  120  66  1026  2019-08-28 20:01:37 
6198  194  110  65  1024  2019-08-28 21:01:39 
6199  191  105  64  1025  2019-08-28 22:01:37 
6200  189  100  63  1024  2019-08-28 23:01:39 
6201  186  95  63  1024  2019-08-29 00:01:38 
6202  184  89  62  1024  2019-08-29 01:01:40 
6203  182  85  62  1024  2019-08-29 02:01:38 
6204  181  80  62  1023  2019-08-29 03:01:40 
6205  178  75  62  1022  2019-08-29 04:01:41 
6206  177  70  62  1022  2019-08-29 05:01:40 
6207  173  71  62  1023  2019-08-29 06:01:38 
6208  171  75  62  1023  2019-08-29 07:01:40 
6209  171  80  63  1024  2019-08-29 08:01:38 
6210  171  85  63  1024  2019-08-29 09:01:39 
6211  176  105  63  1023  2019-08-29 10:01:37 
6212  176  125  62  1023  2019-08-29 11:01:40 
6213  177  135  63  1022  2019-08-29 12:01:38 
6214  183  151  63  1022  2019-08-29 13:01:40 
6215  186  156  63  1022  2019-08-29 14:01:38 
6216  187  161  64  1022  2019-08-29 15:01:40 
6217  191  161  64  1021  2019-08-29 16:01:38 
6218  196  161  63  1021  2019-08-29 17:01:40 
6219  193  156  63  1021  2019-08-29 18:01:39 
6220  191  151  63  1021  2019-08-29 19:01:37 
6221  187  145  63  1023  2019-08-29 20:01:39 
6222  186  140  63  1023  2019-08-29 21:01:37 
6223  181  130  64  1022  2019-08-29 22:01:39 
6224  181  120  64  1022  2019-08-29 23:01:37 
6225  176  115  64  1022  2019-08-30 00:01:40 
6226  175  110  64  1022  2019-08-30 01:01:37 
6227  171  106  64  1021  2019-08-30 02:01:39 
6228  170  100  64  1021  2019-08-30 03:01:38 
6229  166  100  64  1020  2019-08-30 04:01:39 
6230  165  93  64  1020  2019-08-30 05:01:37 
6231  161  85  64  1020  2019-08-30 06:01:39 
6232  160  85  64  1020  2019-08-30 07:01:36 
6233  156  90  64  1021  2019-08-30 08:01:38 
6234  161  97  65  1020  2019-08-30 09:01:40 
6235  171  110  67  1021  2019-08-30 10:01:38 
6236  175  125  70  1020  2019-08-30 11:01:40 
6237  181  140  67  1020  2019-08-30 12:01:38 
6238  181  151  67  1020  2019-08-30 13:01:40 
6239  183  156  66  1019  2019-08-30 14:01:40 
6240  186  152  66  1019  2019-08-30 15:01:38 
6241  191  155  67  1019  2019-08-30 16:01:40 
6242  186  151  67  1019  2019-08-30 17:01:38 
6243  187  145  67  1018  2019-08-30 18:01:41 
6244  186  140  67  1018  2019-08-30 19:01:40 
6245  181  135  67  1019  2019-08-30 20:01:38 
6246  181  130  67  1019  2019-08-30 21:01:40 
6247  177  125  67  1019  2019-08-30 22:01:38 
6248  176  120  67  1020  2019-08-30 23:01:40 
6249  174  115  67  1020  2019-08-31 00:01:38 
6250  171  115  67  1020  2019-08-31 01:01:40 
6251  171  112  67  1021  2019-08-31 02:01:38 
6252  166  114  66  1020  2019-08-31 03:01:40 
6253  166  110  66  1020  2019-08-31 04:01:39 
6254  161  100  67  1021  2019-08-31 06:06:01 
6255  161  100  66  1021  2019-08-31 07:01:40 
6256  159  100  66  1021  2019-08-31 08:01:37 
6257  160  110  67  1022  2019-08-31 09:01:39 
6258  161  116  67  1023  2019-08-31 10:01:37 
6259  160  130  67  1024  2019-08-31 11:01:39 
6260  161  140  67  1024  2019-08-31 12:01:37 
6261  161  151  67  1023  2019-08-31 13:01:39 
6262  163  151  67  1023  2019-08-31 14:01:37 
6263  166  156  67  1023  2019-08-31 15:01:39 
6264  168  166  67  1023  2019-08-31 16:01:37 
6265  169  158  67  1023  2019-08-31 17:01:39 
6266  171  155  67  1024  2019-08-31 18:01:37 
6267  170  151  66  1025  2019-08-31 19:01:39 
6268  171  150  67  1025  2019-08-31 20:01:38 
6269  168  146  67  1024  2019-08-31 21:01:40 
6270  169  148  67  1025  2019-08-31 22:01:38 
6271  171  145  67  1025  2019-08-31 23:01:40 
6272  169  144  70  1024  2019-09-01 00:01:38 
6273  166  141  70  1024  2019-09-01 01:01:40 
6274  167  140  70  1024  2019-09-01 02:01:38 
6275  166  140  71  1024  2019-09-01 03:01:40 
6276  168  140  71  1024  2019-09-01 04:01:38 
6277  166  135  71  1023  2019-09-01 05:01:40 
6278  166  130  71  1023  2019-09-01 06:01:38 
6279  166  130  71  1022  2019-09-01 07:01:40 
6280  166  130  71  1024  2019-09-01 08:01:38 
6281  166  130  72  1023  2019-09-01 09:01:40 
6282  166  132  72  1024  2019-09-01 10:01:38 
6283  166  140  73  1024  2019-09-01 11:01:40 
6284  169  155  73  1024  2019-09-01 12:01:39 
6285  171  158  74  1023  2019-09-01 13:01:41 
6286  176  166  75  1023  2019-09-01 14:01:39 
6287  176  166  74  1022  2019-09-01 15:01:38 
6288  180  167  73  1022  2019-09-01 16:01:40 
6289  181  168  73  1022  2019-09-01 17:01:38 
6290  182  161  73  1023  2019-09-01 18:01:40 
6291  181  156  73  1023  2019-09-01 19:01:39 
6292  183  156  73  1023  2019-09-01 20:01:37 
6293  181  156  73  1023  2019-09-01 21:01:39 
6294  181  156  73  1024  2019-09-01 22:01:38 
6295  181  151  73  1024  2019-09-01 23:01:40 
6296  181  140  73  1024  2019-09-02 00:01:38 
6297  180  140  73  1024  2019-09-02 01:01:40 
6298  179  140  72  1025  2019-09-02 02:01:38 
6299  176  140  72  1024  2019-09-02 03:01:40 
6300  176  140  72  1024  2019-09-02 04:01:38 
6301  176  137  72  1023  2019-09-02 05:01:40 
6302  173  135  73  1024  2019-09-02 06:01:38 
6303  174  130  73  1024  2019-09-02 07:01:40 
6304  171  134  73  1024  2019-09-02 08:01:38 
6305  176  145  73  1025  2019-09-02 09:01:40 
6306  176  156  73  1025  2019-09-02 10:01:38 
6307  181  161  74  1026  2019-09-02 11:01:41 
6308  182  176  74  1025  2019-09-02 12:01:39 
6309  191  180  75  1024  2019-09-02 13:01:37 
6310  196  186  74  1023  2019-09-02 14:01:40 
6311  196  186  73  1023  2019-09-02 15:01:38 
6312  199  186  73  1023  2019-09-02 16:01:40 
6313  201  179  73  1023  2019-09-02 17:01:39 
6314  201  166  73  1022  2019-09-02 18:01:37 
6315  206  161  73  1024  2019-09-02 19:01:39 
6316  211  153  72  1023  2019-09-02 20:01:37 
6317  211  151  73  1023  2019-09-02 21:01:40 
6318  215  140  72  1023  2019-09-02 22:01:39 
6319  211  135  72  1023  2019-09-02 23:01:37 
6320  206  129  71  1023  2019-09-03 00:01:39 
6321  201  120  70  1022  2019-09-03 01:01:37 
6322  196  115  70  1022  2019-09-03 02:01:39 
6323  191  105  67  1021  2019-09-03 04:01:40 
6324  186  100  67  1020  2019-09-03 05:01:38 
6325  181  100  67  1021  2019-09-03 06:01:40 
6326  179  95  67  1020  2019-09-03 07:01:37 
6327  176  100  70  1021  2019-09-03 07:58:14 
6328  176  95  67  1022  2019-09-03 08:01:39 
6329  176  120  70  1021  2019-09-03 09:01:41 
6330  176  137  70  1021  2019-09-03 10:01:39 
6331  176  161  71  1021  2019-09-03 11:01:37 
6332  179  174  71  1022  2019-09-03 12:01:39 
6333  181  181  72  1021  2019-09-03 13:01:37 
6334  186  186  73  1020  2019-09-03 14:01:39 
6335  189  190  74  1021  2019-09-03 15:01:37 
6336  192  186  73  1021  2019-09-03 16:01:40 
6337  195  181  72  1021  2019-09-03 17:01:38 
6338  196  171  72  1021  2019-09-03 18:01:40 
6339  196  161  73  1021  2019-09-03 19:01:38 
6340  196  151  73  1021  2019-09-03 20:01:40 
6341  192  145  72  1022  2019-09-03 21:01:38 
6342  192  148  72  1023  2019-09-03 22:01:41 
6343  191  153  72  1022  2019-09-03 23:01:39 
6344  191  156  72  1022  2019-09-04 00:01:41 
6345  190  154  72  1022  2019-09-04 01:01:39 
6346  187  151  72  1023  2019-09-04 02:01:37 
6347  186  152  72  1022  2019-09-04 03:01:39 
6348  185  154  72  1022  2019-09-04 04:01:37 
6349  186  156  72  1022  2019-09-04 05:01:39 
6350  186  154  72  1022  2019-09-04 06:01:37 
6351  184  148  73  1022  2019-09-04 07:01:39 
6352  185  151  73  1022  2019-09-04 08:01:37 
6353  186  156  73  1023  2019-09-04 09:01:40 
6354  191  165  75  1023  2019-09-04 10:01:38 
6355  193  175  74  1024  2019-09-04 11:01:40 
6356  199  176  74  1025  2019-09-04 12:01:38 
6357  201  182  73  1023  2019-09-04 13:01:41 
6358  204  181  72  1022  2019-09-04 14:01:39 
6359  206  180  71  1022  2019-09-04 15:01:37 
6360  211  181  71  1022  2019-09-04 16:01:39 
6361  211  172  71  1022  2019-09-04 17:01:37 
6362  207  166  70  1024  2019-09-04 18:01:40 
6363  206  154  70  1024  2019-09-04 19:01:38 
6364  201  151  67  1024  2019-09-04 20:01:40 
6365  201  149  67  1026  2019-09-04 21:01:38 
6366  199  151  67  1026  2019-09-04 22:01:40 
6367  196  145  67  1025  2019-09-04 23:01:38 
6368  196  145  67  1025  2019-09-05 00:01:41 
6369  192  144  67  1026  2019-09-05 01:01:39 
6370  191  140  67  1025  2019-09-05 02:01:41 
6371  190  138  67  1024  2019-09-05 03:01:40 
6372  186  138  67  1024  2019-09-05 04:01:38 
6373  186  135  67  1024  2019-09-05 05:01:40 
6374  183  130  67  1025  2019-09-05 06:01:38 
6375  181  130  67  1025  2019-09-05 07:01:41 
6376  181  135  67  1026  2019-09-05 08:01:39 
6377  181  145  67  1025  2019-09-05 09:01:37 
6378  182  161  67  1025  2019-09-05 10:01:39 
6379  184  175  67  1024  2019-09-05 11:01:37 
6380  186  188  70  1025  2019-09-05 12:01:39 
6381  188  197  70  1024  2019-09-05 13:01:38 
6382  191  201  70  1023  2019-09-05 14:01:40 
6383  196  198  70  1024  2019-09-05 15:01:38 
6384  201  199  71  1023  2019-09-05 16:01:40 
6385  201  195  71  1024  2019-09-05 17:01:38 
6386  201  178  71  1024  2019-09-05 18:01:40 
6387  201  169  71  1024  2019-09-05 19:01:38 
6388  201  164  70  1024  2019-09-05 20:01:41 
6389  200  160  70  1024  2019-09-05 21:01:39 
6390  196  151  70  1026  2019-09-05 22:01:37 
6391  196  151  70  1026  2019-09-05 23:01:39 
6392  196  141  70  1025  2019-09-06 00:01:37 
6393  196  135  70  1025  2019-09-06 01:01:39 
6394  191  130  70  1025  2019-09-06 02:01:37 
6395  191  125  67  1024  2019-09-06 03:01:40 
6396  187  118  67  1025  2019-09-06 04:01:38 
6397  186  114  67  1025  2019-09-06 05:01:40 
6398  183  107  67  1024  2019-09-06 06:01:38 
6399  180  105  67  1025  2019-09-06 07:01:40 
6400  176  105  67  1025  2019-09-06 08:01:38 
6401  180  135  67  1026  2019-09-06 09:01:40 
6402  181  164  70  1026  2019-09-06 10:01:38 
6403  179  178  70  1026  2019-09-06 11:01:41 
6404  181  188  70  1025  2019-09-06 12:01:39 
6405  184  201  71  1025  2019-09-06 13:01:37 
6406  191  211  71  1024  2019-09-06 14:01:39 
6407  194  216  71  1023  2019-09-06 15:01:37 
6408  199  216  71  1023  2019-09-06 16:01:39 
6409  201  211  71  1023  2019-09-06 17:01:38 
6410  201  195  71  1023  2019-09-06 18:01:40 
6411  202  186  71  1022  2019-09-06 19:01:38 
6412  201  176  71  1023  2019-09-06 20:01:40 
6413  201  162  71  1022  2019-09-06 21:01:38 
6414  201  156  71  1023  2019-09-06 22:01:41 
6415  201  140  70  1022  2019-09-06 23:01:38 
6416  196  135  70  1021  2019-09-07 00:01:41 
6417  196  130  70  1021  2019-09-07 01:01:39 
6418  193  125  70  1022  2019-09-07 02:01:41 
6419  191  120  67  1021  2019-09-07 03:01:39 
6420  186  112  67  1021  2019-09-07 04:01:38 
6421  186  110  67  1020  2019-09-07 05:01:38 
6422  181  105  67  1020  2019-09-07 06:01:40 
6423  179  100  66  1020  2019-09-07 07:01:38 
6424  178  105  66  1021  2019-09-07 08:01:40 
6425  179  140  67  1020  2019-09-07 09:01:38 
6426  181  181  70  1021  2019-09-07 10:01:40 
6427  188  211  72  1020  2019-09-07 11:01:38 
6428  196  255  70  1019  2019-09-07 12:01:40 
6429  206  268  71  1018  2019-09-07 13:01:39 
6430  217  288  65  1017  2019-09-07 14:01:41 
6431  221  289  64  1017  2019-09-07 15:01:39 
6432  224  285  63  1017  2019-09-07 16:01:38 
6433  228  277  63  1017  2019-09-07 17:01:40 
6434  228  261  61  1017  2019-09-07 18:01:38 
6435  228  246  62  1017  2019-09-07 19:01:41 
6436  229  227  62  1017  2019-09-07 20:01:39 
6437  229  215  63  1017  2019-09-07 21:01:37 
6438  229  206  63  1017  2019-09-07 22:01:39 
6439  228  202  63  1016  2019-09-07 23:01:38 
6440  226  195  63  1016  2019-09-08 00:01:40 
6441  226  189  63  1015  2019-09-08 01:01:38 
6442  225  183  63  1015  2019-09-08 02:01:40 
6443  225  202  63  1014  2019-09-08 03:01:38 
6444  225  216  63  1014  2019-09-08 04:01:41 
6445  224  226  63  1014  2019-09-08 05:01:39 
6446  224  242  63  1013  2019-09-08 06:01:41 
6447  222  256  62  1014  2019-09-08 07:01:39 
6448  226  267  62  1015  2019-09-08 08:01:37 
6449  226  280  62  1014  2019-09-08 09:01:40 
6450  231  291  62  1014  2019-09-08 10:01:38 
6451  236  302  62  1015  2019-09-08 11:01:40 
6452  241  315  62  1014  2019-09-08 12:01:39 
6453  245  319  62  1013  2019-09-08 13:01:37 
6454  251  320  63  1014  2019-09-08 14:01:40 
6455  251  307  63  1014  2019-09-08 15:01:38 
6456  261  309  62  1014  2019-09-08 16:01:41 
6457  261  286  63  1015  2019-09-08 17:01:39 
6458  261  266  62  1014  2019-09-08 18:01:37 
6459  261  236  62  1016  2019-09-08 19:01:40 
6460  261  229  62  1017  2019-09-08 20:01:38 
6461  261  217  62  1017  2019-09-08 21:01:40 
6462  261  206  62  1017  2019-09-08 22:01:39 
6463  258  198  62  1016  2019-09-08 23:01:41 
6464  256  191  62  1017  2019-09-09 00:01:39 
6465  252  188  62  1019  2019-09-09 01:01:38 
6466  253  183  62  1018  2019-09-09 02:01:40 
6467  248  179  62  1017  2019-09-09 03:01:39 
6468  246  176  62  1017  2019-09-09 04:01:38 
6469  245  172  62  1017  2019-09-09 05:01:37 
6470  241  171  62  1017  2019-09-09 06:01:40 
6471  240  171  62  1017  2019-09-09 07:01:38 
6472  237  176  62  1018  2019-09-09 08:01:41 
6473  236  181  63  1019  2019-09-09 09:01:39 
6474  236  191  63  1019  2019-09-09 10:01:41 
6475  235  200  63  1017  2019-09-09 11:01:39 
6476  236  211  63  1017  2019-09-09 12:01:41 
6477  240  226  63  1018  2019-09-09 13:01:40 
6478  241  222  63  1016  2019-09-09 14:01:38 
6479  243  224  63  1016  2019-09-09 15:01:40 
6480  243  211  63  1016  2019-09-09 16:01:38 
6481  246  201  63  1016  2019-09-09 17:01:41 
6482  242  191  63  1016  2019-09-09 18:01:39 
6483  242  181  64  1016  2019-09-09 19:01:37 
6484  242  178  64  1015  2019-09-09 20:01:40 
6485  241  177  64  1015  2019-09-09 21:01:38 
6486  241  176  64  1016  2019-09-09 22:01:40 
6487  236  177  64  1015  2019-09-09 23:01:38 
6488  238  176  64  1014  2019-09-10 00:01:41 
6489  235  167  64  1015  2019-09-10 01:01:39 
6490  231  164  64  1015  2019-09-10 02:01:41 
6491  229  165  64  1015  2019-09-10 03:01:40 
6492  229  161  64  1015  2019-09-10 04:01:38 
6493  226  161  64  1014  2019-09-10 05:01:41 
6494  221  156  64  1013  2019-09-10 06:01:39 
6495  221  156  64  1014  2019-09-10 07:01:41 
6496  216  156  65  1013  2019-09-10 08:01:39 
6497  216  166  65  1014  2019-09-10 09:01:38 
6498  216  176  65  1013  2019-09-10 10:01:40 
6499  221  187  65  1014  2019-09-10 11:01:38 
6500  219  196  65  1014  2019-09-10 12:01:41 
6501  221  206  65  1013  2019-09-10 13:01:39 
6502  223  211  65  1013  2019-09-10 14:01:41 
6503  226  211  64  1013  2019-09-10 15:01:40 
6504  226  208  64  1013  2019-09-10 16:01:38 
6505  226  197  65  1014  2019-09-10 17:01:40 
6506  226  183  65  1014  2019-09-10 18:01:39 
6507  222  174  65  1014  2019-09-10 19:01:41 
6508  222  169  64  1014  2019-09-10 20:01:39 
6509  221  168  64  1015  2019-09-10 21:01:37 
6510  219  167  64  1016  2019-09-10 22:01:40 
6511  218  166  64  1016  2019-09-10 23:01:38 
6512  216  166  64  1016  2019-09-11 00:01:40 
6513  215  166  64  1015  2019-09-11 01:01:38 
6514  214  156  64  1013  2019-09-11 02:01:41 
6515  211  151  64  1013  2019-09-11 03:01:39 
6516  210  155  64  1015  2019-09-11 04:01:41 
6517  209  156  64  1014  2019-09-11 05:01:39 
6518  209  156  64  1015  2019-09-11 06:01:41 
6519  206  151  64  1014  2019-09-11 07:01:39 
6520  206  156  64  1015  2019-09-11 08:01:41 
6521  206  166  65  1015  2019-09-11 09:01:39 
6522  206  170  65  1015  2019-09-11 10:01:38 
6523  206  181  65  1014  2019-09-11 12:01:38 
6524  206  186  65  1014  2019-09-11 13:01:40 
6525  209  196  65  1014  2019-09-11 14:01:39 
6526  211  201  65  1013  2019-09-11 15:01:41 
6527  211  196  65  1013  2019-09-11 16:01:39 
6528  211  191  66  1013  2019-09-11 17:01:41 
6529  211  181  66  1013  2019-09-11 18:01:40 
6530  211  176  66  1014  2019-09-11 19:01:38 
6531  211  170  65  1014  2019-09-11 20:01:40 
6532  211  166  65  1014  2019-09-11 21:01:38 
6533  209  162  65  1015  2019-09-11 22:01:40 
6534  206  161  65  1015  2019-09-11 23:01:39 
6535  205  159  65  1014  2019-09-12 00:01:41 
6536  203  156  65  1014  2019-09-12 01:01:39 
6537  204  156  65  1014  2019-09-12 02:01:41 
6538  201  156  65  1013  2019-09-12 03:01:39 
6539  201  155  65  1013  2019-09-12 04:01:38 
6540  201  153  65  1013  2019-09-12 05:01:40 
6541  196  151  65  1013  2019-09-12 06:01:39 
6542  196  135  66  1014  2019-09-12 07:01:41 
6543  195  130  66  1015  2019-09-12 08:01:39 
6544  192  130  66  1015  2019-09-12 09:01:41 
6545  195  135  66  1015  2019-09-12 10:01:39 
6546  191  133  66  1015  2019-09-12 11:01:38 
6547  193  140  66  1016  2019-09-12 12:01:40 
6548  195  151  66  1016  2019-09-12 13:01:39 
6549  196  156  65  1015  2019-09-12 14:01:41 
6550  196  156  64  1016  2019-09-12 15:01:40 
6551  196  156  64  1016  2019-09-12 16:01:38 
6552  201  151  64  1018  2019-09-12 17:01:40 
6553  198  145  64  1018  2019-09-12 18:01:39 
6554  198  135  65  1019  2019-09-12 19:01:42 
6555  198  126  65  1020  2019-09-12 20:01:40 
6556  198  122  65  1021  2019-09-12 21:01:38 
6557  196  120  65  1021  2019-09-12 22:01:41 
6558  196  120  65  1021  2019-09-12 23:01:40 
6559  191  115  65  1022  2019-09-13 00:01:38 
6560  191  114  65  1022  2019-09-13 01:01:40 
6561  190  109  65  1022  2019-09-13 02:01:38 
6562  186  105  65  1022  2019-09-13 03:01:41 
6563  186  105  65  1021  2019-09-13 04:01:39 
6564  184  101  65  1021  2019-09-13 05:01:41 
6565  181  100  65  1022  2019-09-13 06:01:40 
6566  178  95  65  1023  2019-09-13 07:01:41 
6567  181  98  65  1024  2019-09-13 08:01:39 
6568  177  100  64  1024  2019-09-13 09:01:41 
6569  180  105  64  1024  2019-09-13 10:01:39 
6570  177  120  64  1025  2019-09-13 11:01:41 
6571  180  121  64  1023  2019-09-13 12:01:39 
6572  180  135  64  1023  2019-09-13 13:01:41 
6573  184  140  64  1023  2019-09-13 14:01:39 
6574  186  145  64  1022  2019-09-13 15:01:41 
6575  191  145  63  1022  2019-09-13 16:01:39 
6576  190  140  62  1022  2019-09-13 17:01:41 
6577  191  131  62  1022  2019-09-13 18:01:40 
6578  190  125  62  1022  2019-09-13 19:01:38 
6579  189  118  63  1023  2019-09-13 20:01:40 
6580  186  110  63  1024  2019-09-13 21:01:38 
6581  186  105  63  1023  2019-09-13 22:01:40 
6582  186  100  63  1023  2019-09-13 23:01:38 
6583  185  102  63  1022  2019-09-14 00:01:40 
6584  181  100  63  1021  2019-09-14 01:01:38 
6585  181  100  63  1021  2019-09-14 02:01:40 
6586  177  95  63  1020  2019-09-14 03:01:38 
6587  178  90  63  1019  2019-09-14 04:01:40 
6588  176  95  63  1019  2019-09-14 05:01:41 
6589  172  95  63  1020  2019-09-14 06:01:39 
6590  171  97  63  1020  2019-09-14 07:01:41 
6591  169  100  63  1019  2019-09-14 08:01:38 
6592  171  110  64  1021  2019-09-14 09:01:41 
6593  171  127  64  1020  2019-09-14 10:01:39 
6594  172  130  61  1019  2019-09-14 11:01:41 
6595  172  140  62  1018  2019-09-14 12:01:39 
6596  176  156  61  1019  2019-09-14 13:01:41 
6597  181  170  62  1017  2019-09-14 14:01:39 
6598  184  171  61  1017  2019-09-14 15:01:42 
6599  186  176  61  1015  2019-09-14 16:01:40 
6600  188  166  61  1017  2019-09-14 17:01:38 
6601  189  160  61  1017  2019-09-14 18:01:40 
6602  191  151  61  1017  2019-09-14 19:01:39 
6603  198  143  61  1016  2019-09-14 20:01:41 
6604  196  135  61  1017  2019-09-14 21:01:39 
6605  196  130  61  1017  2019-09-14 22:01:41 
6606  194  125  61  1018  2019-09-14 23:01:39 
6607  191  120  61  1018  2019-09-15 00:01:42 
6608  191  121  61  1017  2019-09-15 01:01:40 
6609  188  124  61  1016  2019-09-15 02:01:38 
6610  186  120  61  1017  2019-09-15 03:01:40 
6611  186  121  62  1016  2019-09-15 04:01:38 
6612  185  121  62  1016  2019-09-15 05:01:40 
6613  184  120  62  1016  2019-09-15 06:01:39 
6614  182  120  62  1016  2019-09-15 07:01:41 
6615  181  125  62  1017  2019-09-15 08:01:39 
6616  181  135  62  1018  2019-09-15 09:01:41 
6617  185  145  64  1017  2019-09-15 10:01:39 
6618  191  159  65  1017  2019-09-15 11:01:41 
6619  191  170  65  1017  2019-09-15 12:01:40 
6620  191  176  64  1016  2019-09-15 13:01:38 
6621  196  190  64  1016  2019-09-15 14:01:40 
6622  201  201  65  1016  2019-09-15 15:01:38 
6623  204  206  65  1016  2019-09-15 16:01:40 
6624  206  199  66  1017  2019-09-15 17:01:38 
6625  207  188  66  1017  2019-09-15 18:01:41 
6626  211  184  66  1017  2019-09-15 19:01:39 
6627  211  181  66  1017  2019-09-15 20:01:41 
6628  213  176  66  1017  2019-09-15 21:01:40 
6629  212  174  66  1017  2019-09-15 22:01:38 
6630  216  176  66  1018  2019-09-15 23:01:40 
6631  214  171  67  1017  2019-09-16 00:01:38 
6632  211  171  67  1017  2019-09-16 01:01:40 
6633  211  171  67  1018  2019-09-16 02:01:38 
6634  210  169  67  1018  2019-09-16 03:01:41 
6635  208  166  67  1017  2019-09-16 04:01:39 
6636  206  166  67  1017  2019-09-16 05:01:41 
6637  206  165  67  1018  2019-09-16 06:01:39 
6638  204  165  67  1019  2019-09-16 07:01:42 
6639  203  166  67  1019  2019-09-16 08:01:40 
6640  204  166  70  1019  2019-09-16 08:22:06 
6641  204  171  70  1020  2019-09-16 09:01:38 
6642  204  176  70  1019  2019-09-16 10:01:40 
6643  206  181  71  1019  2019-09-16 11:01:38 
6644  206  194  71  1018  2019-09-16 12:01:41 
6645  209  205  71  1019  2019-09-16 13:01:39 
6646  211  211  70  1017  2019-09-16 14:01:42 
6647  216  222  67  1017  2019-09-16 15:01:39 
6648  221  223  67  1018  2019-09-16 16:01:38 
6649  223  219  67  1018  2019-09-16 17:01:40 
6650  226  213  67  1018  2019-09-16 18:01:39 
6651  226  201  67  1018  2019-09-16 19:01:41 
6652  224  186  67  1017  2019-09-16 20:01:40 
6653  223  175  67  1018  2019-09-16 21:01:38 
6654  224  166  66  1019  2019-09-16 22:01:40 
6655  221  161  66  1019  2019-09-16 23:01:39 
6656  221  154  65  1018  2019-09-17 00:01:41 
6657  216  145  65  1019  2019-09-17 01:01:39 
6658  216  139  65  1019  2019-09-17 02:01:41 
6659  212  135  65  1018  2019-09-17 03:01:40 
6660  211  135  65  1018  2019-09-17 04:01:39 
6661  206  130  64  1018  2019-09-17 05:01:41 
6662  206  135  64  1018  2019-09-17 06:01:39 
6663  205  133  65  1019  2019-09-17 07:01:41 
6664  201  140  66  1019  2019-09-17 08:01:39 
6665  202  165  66  1018  2019-09-17 09:01:41 
6666  206  187  66  1018  2019-09-17 10:01:39 
6667  206  201  67  1019  2019-09-17 11:01:42 
6668  207  206  70  1018  2019-09-17 12:01:40 
6669  211  206  71  1017  2019-09-17 13:01:39 
6670  214  211  71  1016  2019-09-17 14:01:40 
6671  217  216  71  1017  2019-09-17 15:01:39 
6672  222  211  70  1017  2019-09-17 16:01:41 
6673  224  201  70  1017  2019-09-17 17:01:39 
6674  225  189  71  1017  2019-09-17 18:01:42 
6675  222  181  71  1017  2019-09-17 19:01:40 
6676  221  178  70  1019  2019-09-17 21:01:42 
6677  220  176  70  1019  2019-09-17 23:01:38 
6678  219  174  70  1019  2019-09-18 00:01:41 
6679  218  168  70  1019  2019-09-18 01:01:39 
6680  214  164  70  1018  2019-09-18 02:01:41 
6681  216  161  67  1018  2019-09-18 03:01:40 
6682  212  154  67  1017  2019-09-18 04:01:42 
6683  211  145  67  1017  2019-09-18 05:01:40 
6684  210  140  67  1018  2019-09-18 06:01:42 
6685  206  139  67  1020  2019-09-18 07:01:40 
6686  206  156  70  1019  2019-09-18 08:01:38 
6687  206  168  70  1020  2019-09-18 09:01:40 
6688  206  176  70  1019  2019-09-18 10:01:38 
6689  206  191  70  1018  2019-09-18 11:01:41 
6690  208  191  71  1019  2019-09-18 12:01:39 
6691  210  194  72  1018  2019-09-18 13:01:41 
6692  212  196  73  1018  2019-09-18 14:01:39 
6693  215  195  73  1017  2019-09-18 15:01:41 
6694  211  191  73  1016  2019-09-18 16:01:40 
6695  216  186  73  1017  2019-09-18 17:01:42 
6696  216  186  73  1016  2019-09-18 18:01:40 
6697  216  182  73  1016  2019-09-18 19:01:38 
6698  213  184  73  1017  2019-09-18 20:01:41 
6699  212  183  73  1017  2019-09-18 21:01:39 
6700  212  181  73  1017  2019-09-18 22:01:41 
6701  211  176  73  1015  2019-09-18 23:01:40 
6702  211  176  72  1013  2019-09-19 00:01:42 
6703  211  171  72  1013  2019-09-19 01:01:40 
6704  208  169  72  1012  2019-09-19 02:01:38 
6705  206  166  72  1012  2019-09-19 03:01:40 
6706  206  161  72  1011  2019-09-19 04:01:40 
6707  206  156  72  1010  2019-09-19 05:01:41 
6708  202  153  72  1010  2019-09-19 06:01:39 
6709  201  154  72  1010  2019-09-19 07:01:41 
6710  203  161  73  1009  2019-09-19 08:01:39 
6711  201  186  73  1009  2019-09-19 09:01:41 
6712  216  251  101  1007  2019-09-19 13:25:29 
6713  219  261  77  1007  2019-09-19 14:01:40 
6714  226  256  74  1007  2019-09-19 15:01:38 
6715  225  231  73  1009  2019-09-19 16:01:41 
6716  225  221  72  1008  2019-09-19 17:01:39 
6717  225  216  72  1009  2019-09-19 18:01:42 
6718  225  203  72  1009  2019-09-19 19:01:40 
6719  223  191  72  1009  2019-09-19 20:01:38 
6720  223  191  72  1011  2019-09-19 21:01:41 
6721  222  188  72  1011  2019-09-19 22:01:39 
6722  221  186  72  1011  2019-09-19 23:01:41 
6723  221  182  71  1012  2019-09-20 00:01:39 
6724  221  181  71  1012  2019-09-20 01:01:42 
6725  221  180  71  1012  2019-09-20 02:01:40 
6726  216  176  72  1013  2019-09-20 03:01:38 
6727  216  176  72  1013  2019-09-20 04:01:41 
6728  216  176  72  1013  2019-09-20 05:01:39 
6729  215  174  72  1013  2019-09-20 06:01:41 
6730  216  175  72  1014  2019-09-20 07:01:39 
6731  213  176  72  1015  2019-09-20 08:01:42 
6732  215  181  72  1015  2019-09-20 09:01:40 
6733  215  187  72  1015  2019-09-20 10:01:42 
6734  216  191  72  1015  2019-09-20 11:01:40 
6735  214  191  73  1015  2019-09-20 12:01:39 
6736  213  194  73  1016  2019-09-20 13:01:41 
6737  216  201  72  1016  2019-09-20 14:01:39 
6738  217  201  72  1016  2019-09-20 15:01:42 
6739  221  204  71  1016  2019-09-20 16:01:40 
6740  218  201  71  1017  2019-09-20 17:01:42 
6741  219  195  71  1016  2019-09-20 18:01:40 
6742  216  185  71  1016  2019-09-20 19:01:38 
6743  221  176  70  1016  2019-09-20 20:01:40 
6744  216  171  70  1016  2019-09-20 21:01:39 
6745  220  171  70  1017  2019-09-20 22:01:41 
6746  215  171  70  1017  2019-09-20 23:01:39 
6747  212  168  70  1016  2019-09-21 00:01:41 
6748  212  166  70  1016  2019-09-21 01:01:39 
6749  211  161  70  1015  2019-09-21 02:01:42 
6750  210  161  70  1015  2019-09-21 03:01:40 
6751  206  156  67  1014  2019-09-21 04:01:42 
6752  206  156  67  1015  2019-09-21 05:01:40 
6753  206  156  67  1015  2019-09-21 06:01:38 
6754  205  156  67  1015  2019-09-21 07:01:41 
6755  201  157  67  1015  2019-09-21 08:01:39 
6756  204  161  70  1015  2019-09-21 09:01:41 
6757  201  167  71  1016  2019-09-21 10:01:39 
6758  203  166  72  1016  2019-09-21 11:01:41 
6759  204  171  72  1016  2019-09-21 12:01:40 
6760  206  176  72  1016  2019-09-21 13:01:42 
6761  206  176  73  1016  2019-09-21 14:01:40 
6762  206  171  72  1015  2019-09-21 15:01:42 
6763  203  167  71  1016  2019-09-21 16:01:40 
6764  205  161  72  1016  2019-09-21 17:01:39 
6765  204  159  72  1017  2019-09-21 18:01:41 
6766  204  152  72  1018  2019-09-21 19:01:39 
6767  203  145  72  1019  2019-09-21 20:01:41 
6768  201  136  72  1021  2019-09-21 21:01:39 
6769  201  134  72  1021  2019-09-21 22:01:42 
6770  201  130  71  1021  2019-09-21 23:01:40 
6771  198  135  71  1021  2019-09-22 00:01:42 
6772  196  140  71  1021  2019-09-22 01:01:40 
6773  196  136  70  1021  2019-09-22 02:01:42 
6774  191  140  70  1022  2019-09-22 03:01:40 
6775  191  140  70  1022  2019-09-22 04:01:44 
6776  191  135  70  1022  2019-09-22 05:01:40 
6777  186  135  70  1022  2019-09-22 06:01:42 
6778  186  135  70  1024  2019-09-22 07:01:40 
6779  183  138  70  1024  2019-09-22 08:01:42 
6780  186  151  70  1025  2019-09-22 09:01:40 
6781  185  156  70  1024  2019-09-22 10:01:39 
6782  186  167  70  1025  2019-09-22 11:01:41 
6783  187  171  70  1026  2019-09-22 12:01:39 
6784  186  176  66  1026  2019-09-22 13:01:41 
6785  188  176  66  1026  2019-09-22 14:01:39 
6786  191  184  67  1027  2019-09-22 15:01:42 
6787  192  177  67  1027  2019-09-22 16:01:40 
6788  193  166  67  1027  2019-09-22 17:01:42 
6789  196  161  66  1027  2019-09-22 18:01:40 
6790  194  156  66  1027  2019-09-22 19:01:42 
6791  196  145  66  1029  2019-09-22 20:01:40 
6792  196  140  66  1029  2019-09-22 21:01:38 
6793  196  139  66  1029  2019-09-22 22:01:41 
6794  191  139  65  1030  2019-09-22 23:01:44 
6795  191  134  65  1029  2019-09-23 00:01:41 
6796  190  126  65  1029  2019-09-23 01:01:39 
6797  186  125  65  1030  2019-09-23 02:01:41 
6798  186  125  65  1030  2019-09-23 03:01:39 
6799  182  125  65  1029  2019-09-23 04:01:41 
6800  181  124  64  1029  2019-09-23 05:01:39 
6801  180  115  64  1029  2019-09-23 06:01:41 
6802  178  119  64  1030  2019-09-23 07:01:39 
6803  178  138  65  1030  2019-09-23 08:01:41 
6804  177  151  65  1030  2019-09-23 09:01:39 
6805  181  162  65  1031  2019-09-23 10:01:42 
6806  181  171  66  1030  2019-09-23 11:01:39 
6807  182  176  66  1029  2019-09-23 12:01:42 
6808  186  181  66  1029  2019-09-23 13:01:40 
6809  190  186  66  1028  2019-09-23 14:01:42 
6810  191  191  66  1029  2019-09-23 15:01:40 
6811  196  189  66  1028  2019-09-23 16:01:42 
6812  196  183  66  1029  2019-09-23 17:01:40 
6813  201  171  66  1028  2019-09-23 18:01:39 
6814  201  161  66  1028  2019-09-23 19:01:41 
6815  197  161  66  1030  2019-09-23 20:01:39 
6816  201  159  67  1030  2019-09-23 21:01:41 
6817  201  157  67  1030  2019-09-23 22:01:39 
6818  196  156  67  1030  2019-09-23 23:01:42 
6819  196  153  67  1030  2019-09-24 00:01:40 
6820  196  151  67  1030  2019-09-24 01:01:42 
6821  195  151  67  1029  2019-09-24 02:01:40 
6822  194  151  66  1029  2019-09-24 03:01:43 
6823  191  145  66  1028  2019-09-24 04:01:40 
6824  190  151  66  1028  2019-09-24 05:01:38 
6825  191  152  67  1029  2019-09-24 06:01:41 
6826  190  156  67  1030  2019-09-24 07:01:39 
6827  189  158  70  1031  2019-09-24 08:01:41 
6828  190  171  70  1030  2019-09-24 09:01:39 
6829  190  186  71  1030  2019-09-24 10:01:41 
6830  191  196  72  1031  2019-09-24 11:01:39 
6831  196  206  73  1030  2019-09-24 12:01:42 
6832  196  202  74  1029  2019-09-24 13:01:40 
6833  201  201  74  1029  2019-09-24 14:01:42 
6834  205  204  73  1028  2019-09-24 15:01:40 
6835  206  206  73  1027  2019-09-24 16:01:38 
6836  209  201  72  1027  2019-09-24 17:01:41 
6837  211  189  72  1028  2019-09-24 18:01:39 
6838  201  185  76  1028  2019-09-24 19:01:42 
6839  201  181  77  1028  2019-09-24 20:01:40 
6840  201  176  76  1028  2019-09-24 21:01:39 
6841  201  174  76  1028  2019-09-24 22:01:41 
6842  198  171  76  1029  2019-09-24 23:01:39 
6843  196  166  74  1029  2019-09-25 00:01:42 
6844  191  161  73  1028  2019-09-25 01:01:40 
6845  191  156  73  1027  2019-09-25 02:01:42 
6846  188  146  73  1027  2019-09-25 03:01:40 
6847  186  145  73  1027  2019-09-25 04:01:42 
6848  181  135  73  1026  2019-09-25 05:01:40 
6849  181  138  73  1026  2019-09-25 06:01:39 
6850  181  130  73  1026  2019-09-25 07:01:41 
6851  180  145  74  1026  2019-09-25 08:01:39 
6852  186  171  74  1027  2019-09-25 09:01:41 
6853  186  195  74  1027  2019-09-25 10:01:40 
6854  191  216  75  1027  2019-09-25 11:01:42 
6855  196  228  75  1026  2019-09-25 12:01:40 
6856  196  246  74  1026  2019-09-25 13:01:42 
6857  203  251  75  1025  2019-09-25 14:01:41 
6858  208  251  71  1024  2019-09-25 15:01:39 
6859  212  253  70  1023  2019-09-25 16:01:41 
6860  214  246  67  1022  2019-09-25 17:01:39 
6861  216  231  71  1024  2019-09-25 18:01:42 
6862  211  222  71  1024  2019-09-25 19:01:40 
6863  213  211  71  1024  2019-09-25 20:01:42 
6864  211  190  71  1023  2019-09-25 21:01:41 
6865  208  176  71  1023  2019-09-25 22:01:39 
6866  206  171  70  1025  2019-09-25 23:01:41 
6867  202  161  67  1024  2019-09-26 00:01:39 
6868  199  153  66  1023  2019-09-26 01:01:41 
6869  196  145  67  1023  2019-09-26 02:01:39 
6870  195  140  67  1021  2019-09-26 03:01:45 
6871  191  130  67  1021  2019-09-26 04:01:40 
6872  186  125  66  1021  2019-09-26 05:01:42 
6873  181  120  66  1021  2019-09-26 06:01:40 
6874  182  120  66  1021  2019-09-26 07:01:43 
6875  176  135  72  1020  2019-09-26 08:01:40 
6876  186  182  72  1021  2019-09-26 09:01:39 
6877  191  211  67  1021  2019-09-26 10:01:41 
6878  201  261  67  1020  2019-09-26 11:01:39 
6879  215  296  75  1019  2019-09-26 12:01:42 
6880  221  296  71  1019  2019-09-26 13:01:41 
6881  217  295  70  1018  2019-09-26 14:01:40 
6882  221  287  70  1018  2019-09-26 15:01:42 
6883  222  290  67  1018  2019-09-26 16:01:41 
6884  224  273  65  1018  2019-09-26 17:01:39 
6885  226  256  64  1019  2019-09-26 18:01:41 
6886  222  249  62  1018  2019-09-26 19:01:40 
6887  221  231  63  1018  2019-09-26 20:01:42 
6888  221  212  63  1018  2019-09-26 21:01:40 
6889  219  205  64  1018  2019-09-26 22:01:43 
6890  216  192  64  1017  2019-09-26 23:01:41 
6891  216  186  64  1017  2019-09-27 00:01:39 
6892  215  181  64  1017  2019-09-27 01:01:42 
6893  211  175  63  1016  2019-09-27 02:01:40 
6894  209  171  62  1017  2019-09-27 03:01:42 
6895  206  166  64  1016  2019-09-27 04:01:48 
6896  203  161  64  1015  2019-09-27 05:01:42 
6897  201  152  65  1016  2019-09-27 06:01:40 
6898  196  156  70  1017  2019-09-27 07:01:42 
6899  201  176  76  1017  2019-09-27 08:01:40 
6900  207  201  76  1016  2019-09-27 09:01:43 
6901  210  206  100  1017  2019-09-27 10:01:41 
6902  212  216  101  1017  2019-09-27 11:01:39 
6903  215  216  103  1017  2019-09-27 12:01:42 
6904  218  219  103  1017  2019-09-27 13:01:40 
6905  221  225  103  1016  2019-09-27 14:01:42 
6906  222  229  103  1016  2019-09-27 15:01:41 
6907  225  221  102  1015  2019-09-27 16:01:39 
6908  225  209  103  1015  2019-09-27 17:01:42 
6909  221  196  103  1015  2019-09-27 18:01:40 
6910  221  191  102  1016  2019-09-27 19:01:43 
6911  218  187  102  1016  2019-09-27 20:01:41 
6912  217  186  102  1014  2019-09-27 21:01:39 
6913  216  186  101  1014  2019-09-27 22:01:42 
6914  215  181  101  1013  2019-09-27 23:01:40 
6915  211  174  77  1012  2019-09-28 00:01:42 
6916  210  166  77  1013  2019-09-28 01:01:41 
6917  206  161  77  1012  2019-09-28 02:01:43 
6918  206  161  76  1011  2019-09-28 03:01:41 
6919  203  168  76  1011  2019-09-28 04:01:39 
6920  201  169  76  1012  2019-09-28 05:01:41 
6921  201  171  76  1010  2019-09-28 06:01:40 
6922  201  166  77  1011  2019-09-28 07:01:42 
6923  201  176  103  1011  2019-09-28 08:01:40 
6924  202  186  102  1012  2019-09-28 09:01:42 
6925  210  205  102  1012  2019-09-28 10:01:40 
6926  216  226  103  1011  2019-09-28 11:01:43 
6927  217  241  102  1010  2019-09-28 12:01:41 
6928  221  254  102  1008  2019-09-28 13:01:40 
6929  226  251  102  1010  2019-09-28 14:01:42 
6930  223  226  102  1008  2019-09-28 15:01:40 
6931  226  221  102  1008  2019-09-28 16:01:43 
6932  225  204  102  1008  2019-09-28 17:01:41 
6933  222  206  102  1007  2019-09-28 18:01:40 
6934  221  194  102  1008  2019-09-28 19:01:42 
6935  216  196  101  1007  2019-09-28 20:01:40 
6936  216  193  101  1009  2019-09-28 21:01:43 
6937  219  191  101  1009  2019-09-28 22:01:41 
6938  216  191  101  1009  2019-09-28 23:01:40 
6939  216  191  101  1010  2019-09-29 00:01:42 
6940  216  187  101  1009  2019-09-29 01:01:40 
6941  212  181  101  1010  2019-09-29 02:01:43 
6942  211  176  101  1010  2019-09-29 03:01:41 
6943  211  175  101  1010  2019-09-29 04:01:39 
6944  211  170  101  1010  2019-09-29 05:01:41 
6945  206  166  101  1011  2019-09-29 06:01:40 
6946  201  156  101  1012  2019-09-29 07:01:42 
6947  201  155  100  1014  2019-09-29 08:01:40 
6948  201  144  77  1015  2019-09-29 09:01:42 
6949  201  144  100  1014  2019-09-29 10:01:41 
6950  201  156  100  1014  2019-09-29 11:01:43 
6951  199  145  100  1015  2019-09-29 12:01:41 
6952  204  151  101  1016  2019-09-29 13:01:39 
6953  206  161  101  1016  2019-09-29 14:01:42 
6954  207  165  101  1016  2019-09-29 15:01:40 
6955  206  174  100  1017  2019-09-29 16:01:42 
6956  208  176  77  1017  2019-09-29 17:01:40 
6957  206  161  76  1018  2019-09-29 18:01:43 
6958  206  156  76  1020  2019-09-29 19:01:41 
6959  206  156  76  1020  2019-09-29 20:01:43 
6960  206  151  76  1021  2019-09-29 21:01:41 
6961  204  146  76  1021  2019-09-29 22:01:39 
6962  201  151  75  1021  2019-09-29 23:01:41 
6963  199  153  75  1022  2019-09-30 00:01:40 
6964  196  138  74  1022  2019-09-30 01:01:42 
6965  196  140  74  1022  2019-09-30 02:01:40 
6966  195  140  74  1022  2019-09-30 03:01:42 
6967  191  120  74  1022  2019-09-30 04:01:40 
6968  191  125  73  1022  2019-09-30 05:01:43 
6969  191  136  74  1022  2019-09-30 06:01:41 
6970  191  135  74  1022  2019-09-30 07:01:43 
6971  194  160  74  1023  2019-09-30 08:01:41 
6972  191  176  75  1023  2019-09-30 09:01:40 
6973  191  176  75  1023  2019-09-30 10:01:43 
6974  196  186  75  1024  2019-09-30 11:01:41 
6975  196  200  75  1024  2019-09-30 12:01:39 
6976  201  196  75  1024  2019-09-30 13:01:42 
6977  203  201  75  1023  2019-09-30 14:01:40 
6978  204  206  74  1023  2019-09-30 15:01:42 
6979  206  199  73  1023  2019-09-30 16:01:41 
6980  204  185  72  1023  2019-09-30 17:01:43 
6981  202  176  72  1025  2019-09-30 18:01:41 
6982  201  161  72  1023  2019-09-30 19:01:43 
6983  198  153  71  1024  2019-09-30 20:01:41 
6984  201  145  72  1024  2019-09-30 21:01:39 
6985  201  145  73  1025  2019-09-30 22:01:42 
6986  196  151  72  1025  2019-09-30 23:01:40 
6987  196  151  72  1025  2019-10-01 00:01:42 
6988  191  138  72  1026  2019-10-01 01:01:40 
6989  191  145  72  1024  2019-10-01 02:01:42 
6990  186  140  72  1023  2019-10-01 03:01:40 
6991  186  127  72  1023  2019-10-01 04:01:43 
6992  186  120  72  1023  2019-10-01 05:01:42 
6993  181  115  73  1022  2019-10-01 06:01:40 
6994  181  125  73  1024  2019-10-01 07:01:42 
6995  181  156  73  1024  2019-10-01 08:01:41 
6996  186  171  73  1023  2019-10-01 09:01:39 
6997  191  186  74  1023  2019-10-01 10:01:42 
6998  192  196  74  1023  2019-10-01 11:01:40 
6999  196  201  75  1023  2019-10-01 12:01:42 
7000  198  201  76  1023  2019-10-01 13:01:41 
7001  200  206  77  1022  2019-10-01 14:01:44 
7002  201  205  77  1020  2019-10-01 15:01:42 
7003  206  201  77  1020  2019-10-01 16:01:40 
7004  205  191  77  1020  2019-10-01 17:01:42 
7005  205  176  76  1021  2019-10-01 18:01:40 
7006  206  163  77  1020  2019-10-01 19:01:43 
7007  206  161  77  1019  2019-10-01 20:01:40 
7008  205  156  76  1019  2019-10-01 21:01:43 
7009  203  161  76  1019  2019-10-01 22:01:41 
7010  201  148  76  1018  2019-10-01 23:01:43 
7011  197  138  75  1018  2019-10-02 00:01:41 
7012  191  121  74  1017  2019-10-02 02:01:42 
7013  186  115  74  1014  2019-10-02 03:01:40 
7014  186  110  74  1014  2019-10-02 04:01:42 
7015  181  110  74  1014  2019-10-02 05:01:40 
7016  178  105  73  1015  2019-10-02 06:01:43 
7017  176  107  73  1015  2019-10-02 07:01:41 
7018  181  142  74  1014  2019-10-02 08:01:43 
7019  183  186  74  1014  2019-10-02 09:01:41 
7020  191  216  74  1014  2019-10-02 10:01:43 
7021  196  241  73  1014  2019-10-02 11:01:41 
7022  201  249  72  1013  2019-10-02 12:01:40 
7023  206  260  72  1012  2019-10-02 13:01:42 
7024  206  256  71  1011  2019-10-02 14:01:40 
7025  211  221  73  1012  2019-10-02 15:01:43 
7026  207  208  73  1012  2019-10-02 16:01:41 
7027  207  196  74  1012  2019-10-02 17:01:43 
7028  211  186  75  1012  2019-10-02 18:01:41 
7029  211  176  75  1013  2019-10-02 19:01:40 
7030  208  167  75  1014  2019-10-02 20:01:42 
7031  207  161  76  1015  2019-10-02 21:01:40 
7032  206  161  76  1016  2019-10-02 22:01:42 
7033  201  150  75  1016  2019-10-02 23:01:40 
7034  199  146  75  1015  2019-10-03 00:01:43 
7035  196  148  74  1016  2019-10-03 01:01:41 
7036  196  138  74  1016  2019-10-03 02:01:43 
7037  191  130  74  1016  2019-10-03 03:01:41 
7038  190  120  74  1016  2019-10-03 04:01:40 
7039  186  117  74  1016  2019-10-03 05:01:42 
7040  186  113  74  1016  2019-10-03 06:01:40 
7041  184  119  74  1018  2019-10-03 07:01:42 
7042  181  146  77  1018  2019-10-03 08:01:41 
7043  186  181  76  1017  2019-10-03 09:01:43 
7044  192  206  76  1018  2019-10-03 10:01:41 
7045  196  196  76  1018  2019-10-03 11:01:39 
7046  196  211  76  1018  2019-10-03 12:01:42 
7047  201  216  77  1018  2019-10-03 13:01:40 
7048  206  226  77  1017  2019-10-03 14:01:42 
7049  211  216  77  1017  2019-10-03 15:04:59 
7050  211  214  76  1016  2019-10-03 16:01:40 
7051  211  201  76  1016  2019-10-03 17:01:42 
7052  210  188  75  1016  2019-10-03 18:01:40 
7053  209  172  75  1016  2019-10-03 19:01:42 
7054  206  166  75  1017  2019-10-03 20:01:41 
7055  208  165  75  1018  2019-10-03 21:01:43 
7056  207  162  75  1018  2019-10-03 22:01:41 
7057  201  166  74  1018  2019-10-03 23:01:43 
7058  201  166  74  1019  2019-10-04 00:01:42 
7059  198  161  74  1018  2019-10-04 01:01:42 
7060  197  161  73  1019  2019-10-04 02:01:42 
7061  196  154  73  1017  2019-10-04 03:01:40 
7062  196  156  73  1017  2019-10-04 04:01:43 
7063  195  156  74  1017  2019-10-04 05:01:41 
7064  195  151  74  1015  2019-10-04 06:01:43 
7065  191  161  74  1019  2019-10-04 07:01:41 
7066  190  166  73  1019  2019-10-04 08:01:40 
7067  191  176  73  1019  2019-10-04 09:01:42 
7068  196  191  72  1019  2019-10-04 10:01:40 
7069  201  206  73  1018  2019-10-04 11:01:42 
7070  202  215  72  1019  2019-10-04 12:01:40 
7071  208  221  72  1017  2019-10-04 13:01:43 
7072  209  227  72  1018  2019-10-04 14:01:41 
7073  211  231  72  1018  2019-10-04 15:01:43 
7074  211  225  72  1018  2019-10-04 16:01:41 
7075  211  191  71  1019  2019-10-04 17:01:40 
7076  206  180  71  1018  2019-10-04 18:01:42 
7077  201  166  70  1019  2019-10-04 19:01:40 
7078  207  162  71  1019  2019-10-04 20:01:42 
7079  206  148  72  1019  2019-10-04 21:01:40 
7080  206  140  72  1019  2019-10-04 22:01:42 
7081  201  130  71  1018  2019-10-04 23:01:40 
7082  196  117  71  1019  2019-10-05 00:01:43 
7083  191  120  71  1018  2019-10-05 01:01:44 
7084  191  110  70  1017  2019-10-05 02:01:43 
7085  186  100  70  1017  2019-10-05 03:01:41 
7086  181  95  70  1017  2019-10-05 04:01:43 
7087  181  95  70  1015  2019-10-05 05:01:41 
7088  176  95  70  1015  2019-10-05 06:01:42 
7089  176  102  71  1015  2019-10-05 07:01:40 
7090  176  151  73  1015  2019-10-05 08:01:42 
7091  182  173  72  1014  2019-10-05 09:01:40 
7092  186  196  72  1015  2019-10-05 10:01:42 
7093  191  221  72  1014  2019-10-05 11:01:40 
7094  196  236  73  1014  2019-10-05 12:01:43 
7095  205  241  73  1012  2019-10-05 13:01:41 
7096  206  246  74  1012  2019-10-05 14:01:43 
7097  211  239  76  1013  2019-10-05 15:01:42 
7098  213  223  75  1013  2019-10-05 16:01:40 
7099  216  213  74  1013  2019-10-05 17:01:42 
7100  216  191  74  1013  2019-10-05 18:01:41 
7101  216  177  74  1014  2019-10-05 19:01:43 
7102  206  166  73  1014  2019-10-05 20:01:41 
7103  196  155  72  1015  2019-10-05 21:01:40 
7104  206  145  73  1015  2019-10-05 22:01:42 
7105  206  143  73  1016  2019-10-05 23:01:40 
7106  201  134  71  1015  2019-10-06 00:01:42 
7107  198  126  71  1015  2019-10-06 01:01:40 
7108  196  124  71  1016  2019-10-06 02:01:43 
7109  195  130  71  1015  2019-10-06 03:01:40 
7110  191  127  71  1015  2019-10-06 04:01:57 
7111  191  135  71  1015  2019-10-06 05:01:41 
7112  188  140  71  1016  2019-10-06 06:01:43 
7113  190  130  72  1016  2019-10-06 07:01:41 
7114  186  161  73  1017  2019-10-06 08:01:43 
7115  195  187  73  1017  2019-10-06 09:01:41 
7116  197  181  74  1017  2019-10-06 10:01:44 
7117  196  188  74  1016  2019-10-06 11:01:42 
7118  201  206  74  1016  2019-10-06 12:01:40 
7119  204  211  75  1016  2019-10-06 13:01:42 
7120  206  211  76  1015  2019-10-06 14:01:40 
7121  206  206  75  1015  2019-10-06 15:01:43 
7122  206  211  75  1015  2019-10-06 16:01:41 
7123  208  205  75  1015  2019-10-06 17:01:43 
7124  209  186  74  1015  2019-10-06 18:01:42 
7125  210  176  74  1015  2019-10-06 19:01:40 
7126  207  170  74  1014  2019-10-06 20:01:42 
7127  206  168  74  1014  2019-10-06 21:01:41 
7128  206  164  74  1015  2019-10-06 22:01:43 
7129  205  158  74  1015  2019-10-06 23:01:41 
7130  201  155  74  1016  2019-10-07 00:01:44 
7131  200  151  73  1015  2019-10-07 01:01:42 
7132  197  141  73  1015  2019-10-07 02:01:40 
7133  196  140  73  1014  2019-10-07 03:01:42 
7134  195  138  73  1015  2019-10-07 04:01:40 
7135  191  135  73  1015  2019-10-07 05:01:42 
7136  190  134  73  1016  2019-10-07 06:01:41 
7137  187  130  74  1016  2019-10-07 07:01:43 
7138  191  159  74  1016  2019-10-07 08:01:41 
7139  196  201  75  1016  2019-10-07 09:01:43 
7140  198  206  75  1017  2019-10-07 10:01:42 
7141  201  227  75  1017  2019-10-07 11:01:40 
7142  201  221  75  1017  2019-10-07 12:01:42 
7143  206  211  74  1016  2019-10-07 13:01:41 
7144  210  231  75  1016  2019-10-07 14:01:43 
7145  211  231  75  1015  2019-10-07 15:01:41 
7146  211  214  75  1016  2019-10-07 16:01:44 
7147  213  198  75  1016  2019-10-07 17:01:42 
7148  216  191  76  1017  2019-10-07 18:01:40 
7149  216  181  76  1017  2019-10-07 19:01:43 
7150  216  181  76  1017  2019-10-07 20:01:41 
7151  215  176  75  1018  2019-10-07 21:01:43 
7152  211  171  75  1017  2019-10-07 22:01:42 
7153  206  161  74  1017  2019-10-07 23:01:40 
7154  206  161  73  1018  2019-10-08 00:01:42 
7155  201  156  73  1017  2019-10-08 01:01:40 
7156  201  145  72  1016  2019-10-08 02:01:42 
7157  196  148  72  1016  2019-10-08 03:01:41 
7158  196  144  72  1016  2019-10-08 04:01:43 
7159  192  151  72  1016  2019-10-08 05:01:41 
7160  191  146  72  1015  2019-10-08 06:01:43 
7161  191  151  72  1017  2019-10-08 07:01:41 
7162  193  171  72  1017  2019-10-08 08:01:43 
7163  196  181  72  1017  2019-10-08 09:01:41 
7164  199  188  72  1017  2019-10-08 10:01:44 
7165  202  199  72  1017  2019-10-08 11:01:42 
7166  206  206  71  1015  2019-10-08 12:01:44 
7167  206  201  71  1016  2019-10-08 13:01:42 
7168  206  201  72  1016  2019-10-08 14:01:40 
7169  212  216  72  1016  2019-10-08 15:01:42 
7170  212  198  73  1016  2019-10-08 16:01:41 
7171  211  201  73  1015  2019-10-08 17:01:43 
7172  211  191  73  1016  2019-10-08 18:01:41 
7173  211  167  74  1016  2019-10-08 19:01:44 
7174  211  159  75  1016  2019-10-08 20:01:42 
7175  212  156  75  1017  2019-10-08 21:01:40 
7176  209  156  75  1017  2019-10-08 22:01:43 
7177  206  141  74  1017  2019-10-08 23:01:41 
7178  201  130  74  1018  2019-10-09 00:01:43 
7179  199  135  73  1018  2019-10-09 01:01:41 
7180  196  142  73  1018  2019-10-09 02:01:43 
7181  196  140  73  1019  2019-10-09 03:01:42 
7182  191  151  72  1019  2019-10-09 04:01:50 
7183  191  145  72  1020  2019-10-09 05:01:42 
7184  186  130  72  1021  2019-10-09 06:01:40 
7185  186  135  72  1021  2019-10-09 07:01:42 
7186  189  148  70  1022  2019-10-09 08:01:40 
7187  187  151  67  1024  2019-10-09 09:01:43 
7188  187  156  64  1024  2019-10-09 10:01:41 
7189  191  176  65  1025  2019-10-09 11:01:43 
7190  191  175  64  1025  2019-10-09 12:01:41 
7191  193  172  64  1025  2019-10-09 13:01:43 
7192  196  161  65  1025  2019-10-09 14:01:41 
7193  196  185  64  1026  2019-10-09 15:01:44 
7194  196  156  64  1026  2019-10-09 16:01:42 
7195  196  156  64  1026  2019-10-09 17:01:40 
7196  196  145  63  1026  2019-10-09 18:01:42 
7197  194  140  63  1027  2019-10-09 19:01:40 
7198  191  140  61  1028  2019-10-09 20:01:43 
7199  193  127  63  1028  2019-10-09 21:01:41 
7200  187  130  62  1028  2019-10-09 22:01:43 
7201  186  126  62  1029  2019-10-09 23:01:41 
7202  181  125  62  1031  2019-10-10 00:01:44 
7203  180  115  63  1029  2019-10-10 01:01:42 
7204  176  100  63  1028  2019-10-10 02:01:45 
7205  172  90  63  1027  2019-10-10 03:01:42 
7206  171  110  63  1028  2019-10-10 04:01:44 
7207  167  120  62  1028  2019-10-10 05:01:42 
7208  166  120  62  1028  2019-10-10 06:01:44 
7209  166  120  62  1027  2019-10-10 07:01:42 
7210  166  138  62  1028  2019-10-10 08:01:40 
7211  171  159  62  1026  2019-10-10 09:01:42 
7212  176  181  63  1027  2019-10-10 10:01:40 
7213  178  187  63  1026  2019-10-10 11:01:43 
7214  181  201  62  1026  2019-10-10 12:01:41 
7215  186  203  62  1025  2019-10-10 13:01:43 
7216  191  221  62  1025  2019-10-10 14:01:41 
7217  193  206  65  1025  2019-10-10 15:01:44 
7218  197  197  66  1025  2019-10-10 16:01:41 
7219  196  181  66  1025  2019-10-10 17:01:44 
7220  199  170  66  1024  2019-10-10 18:01:42 
7221  196  161  66  1024  2019-10-10 19:01:40 
7222  196  156  67  1024  2019-10-10 20:01:42 
7223  196  156  67  1024  2019-10-10 21:01:41 
7224  195  156  67  1023  2019-10-10 22:01:43 
7225  191  152  70  1023  2019-10-10 23:01:41 
7226  191  151  70  1023  2019-10-11 00:01:44 
7227  187  145  70  1021  2019-10-11 01:01:42 
7228  186  147  70  1021  2019-10-11 02:01:40 
7229  186  138  70  1021  2019-10-11 03:01:43 
7230  181  130  70  1020  2019-10-11 04:01:41 
7231  181  115  70  1021  2019-10-11 05:01:43 
7232  177  125  70  1019  2019-10-11 06:01:41 
7233  181  120  70  1020  2019-10-11 07:01:43 
7234  177  169  71  1020  2019-10-11 08:01:41 
7235  185  191  71  1020  2019-10-11 09:01:44 
7236  186  196  72  1020  2019-10-11 10:01:41 
7237  191  211  73  1020  2019-10-11 11:01:44 
7238  196  211  73  1020  2019-10-11 12:01:42 
7239  197  221  73  1019  2019-10-11 13:01:40 
7240  201  223  73  1019  2019-10-11 14:01:43 
7241  201  211  73  1017  2019-10-11 15:01:41 
7242  202  211  74  1017  2019-10-11 16:01:43 
7243  206  191  74  1017  2019-10-11 17:01:41 
7244  203  178  74  1018  2019-10-11 18:01:44 
7245  201  166  74  1018  2019-10-11 19:01:42 
7246  204  161  74  1018  2019-10-11 20:01:44 
7247  201  161  74  1019  2019-10-11 21:01:42 
7248  200  157  74  1018  2019-10-11 22:01:41 
7249  197  155  74  1018  2019-10-11 23:01:43 
7250  196  140  74  1017  2019-10-12 00:01:41 
7251  192  151  74  1017  2019-10-12 01:01:43 
7252  191  156  74  1017  2019-10-12 02:01:41 
7253  191  151  74  1016  2019-10-12 03:01:44 
7254  190  153  74  1017  2019-10-12 04:01:43 
7255  189  150  74  1018  2019-10-12 05:01:41 
7256  186  140  74  1018  2019-10-12 06:01:44 
7257  182  145  74  1018  2019-10-12 07:01:42 
7258  183  158  74  1018  2019-10-12 08:01:44 
7259  187  177  74  1019  2019-10-12 09:01:42 
7260  191  196  74  1020  2019-10-12 10:01:40 
7261  192  199  74  1019  2019-10-12 11:01:43 
7262  195  207  74  1019  2019-10-12 12:01:41 
7263  198  211  75  1018  2019-10-12 13:01:43 
7264  201  212  75  1020  2019-10-12 14:01:41 
7265  206  216  75  1018  2019-10-12 15:01:44 
7266  208  216  75  1018  2019-10-12 16:01:42 
7267  211  199  75  1018  2019-10-12 17:01:40 
7268  210  186  76  1018  2019-10-12 18:01:43 
7269  206  172  76  1019  2019-10-12 19:01:41 
7270  206  170  76  1020  2019-10-12 20:01:43 
7271  205  171  76  1020  2019-10-12 21:01:41 
7272  201  166  77  1019  2019-10-12 22:21:17 
7273  203  166  76  1020  2019-10-12 23:01:43 
7274  201  164  76  1020  2019-10-13 00:01:42 
7275  199  161  76  1019  2019-10-13 01:01:43 
7276  196  161  76  1019  2019-10-13 02:01:41 
7277  195  161  76  1019  2019-10-13 03:01:44 
7278  195  161  76  1019  2019-10-13 04:01:42 
7279  195  159  76  1019  2019-10-13 05:01:44 
7280  191  157  76  1019  2019-10-13 06:01:42 
7281  191  166  76  1019  2019-10-13 07:01:44 
7282  196  185  76  1018  2019-10-13 08:01:42 
7283  196  206  76  1019  2019-10-13 09:01:40 
7284  201  229  76  1017  2019-10-13 10:01:42 
7285  201  233  77  1017  2019-10-13 11:01:41 
7286  206  241  77  1016  2019-10-13 12:01:43 
7287  211  254  77  1017  2019-10-13 13:01:41 
7288  216  258  77  1015  2019-10-13 14:01:43 
7289  221  251  77  1015  2019-10-13 15:01:42 
7290  225  236  100  1015  2019-10-13 16:01:44 
7291  225  236  100  1014  2019-10-13 17:01:42 
7292  227  227  100  1015  2019-10-13 18:01:41 
7293  226  213  100  1013  2019-10-13 19:01:43 
7294  222  196  77  1013  2019-10-13 20:01:41 
7295  221  1